[[{"header":{"parameterUnit":"m.s-1","parameterCategory":1,"la1":31.0,"la2":29.5877,"lo1":-88.7671,"lo2":-86.6584,"dy":0.0162,"dx":0.0185,"nx":115,"ny":88,"refTime":"2026-03-14T12:00:00:Z","depth":0,"parameterNumber":2,"parameterNumberName":"U-component_of_WINDS"},"data":[0.0,0.0,0.0,0.0,0.0,0.0,0.0,0.0,0.0,0.0,0.0,0.0,0.0,0.0,0.0,0.0,0.0,0.0,0.0,0.0,0.0,0.0,0.0,0.0,0.0,0.0,0.0,0.0,0.0,0.0,0.0,0.0,0.0,0.0,0.0,0.0,0.0,0.0,0.0,0.0,0.0,0.0,0.0,0.0,0.0,0.0,0.0,0.0,0.0,0.0,0.0,0.0,0.0,0.0,0.0,0.0,0.0,0.0,0.0,0.0,0.0,0.0,0.0,0.0,0.0,0.0,0.0,0.0,0.0,0.0,0.0,0.0,0.0,0.0,0.0,0.0,0.0,0.0,0.0,0.0,0.0,0.0,0.0,0.0,0.0,0.0,0.0,0.0,0.0,0.0,0.0,0.0,0.0,0.0,0.0,0.0,0.0,0.0,0.0,0.0,0.0,0.0,0.0,0.0,0.0,0.0,0.0,0.0,0.0,0.0,0.0,0.0,0.0,0.0,0.0,0.0,0.0,0.0,0.0,0.0,0.0,0.0,0.0,0.0,0.0,0.0,0.0,0.0,0.0,0.0,0.0,0.0,0.0,0.0,0.0,0.0,0.0,0.0,0.0,0.0,0.0,0.0,0.0,0.0,0.0,0.0,0.0,0.0,0.0,0.0,0.0,0.0,0.0,0.0,0.0,0.0,0.0,0.0,0.0,0.0,0.0,0.0,0.0,0.0,0.0,0.0,0.0,0.0,0.0,0.0,0.0,0.0,0.0,0.0,0.0,0.0,0.0,0.0,0.0,0.0,0.0,0.0,0.0,0.0,0.0,0.0,0.0,0.0,0.0,0.0,0.0,0.0,0.0,0.0,0.0,0.0,0.0,0.0,0.0,0.0,0.0,0.0,0.0,0.0,0.0,0.0,0.0,0.0,0.0,0.0,0.0,0.0,0.0,0.0,0.0,0.0,0.0,0.0,0.0,0.0,0.0,0.0,0.0,0.0,0.0,0.0,0.0,0.0,0.0,0.0,0.0,0.0,0.0,0.0,0.0,0.0,0.0,0.0,0.0,0.0,0.0,0.0,0.0,0.0,0.0,0.0,0.0,0.0,0.0,0.0,0.0,0.0,0.0,0.0,0.0,0.0,0.0,0.0,0.0,0.0,0.0,0.0,0.0,0.0,0.0,0.0,0.0,0.0,0.0,0.0,0.0,0.0,0.0,0.0,0.0,0.0,0.0,0.0,0.0,0.0,0.0,0.0,0.0,0.0,0.0,0.0,0.0,0.0,0.0,0.0,0.0,0.0,0.0,0.0,0.0,0.0,0.0,0.0,0.0,0.0,0.0,0.0,0.0,0.0,0.0,0.0,0.0,0.0,0.0,0.0,0.0,0.0,0.0,0.0,0.0,0.0,0.0,0.0,0.0,0.0,0.0,0.0,0.0,0.0,0.0,0.0,0.0,0.0,0.0,0.0,0.0,0.0,0.0,0.0,0.0,0.0,0.0,0.0,0.0,0.0,0.0,0.0,0.0,0.0,0.0,0.0,0.0,0.0,0.0,0.0,0.0,0.0,0.0,0.0,0.0,0.0,0.0,0.0,0.0,0.0,0.0,0.0,0.0,0.0,0.0,0.0,0.0,0.0,0.0,0.0,0.0,0.0,0.0,0.0,0.0,0.0,0.0,0.0,0.0,0.0,0.0,0.0,0.0,0.0,0.0,0.0,0.0,0.0,0.0,0.0,0.0,0.0,0.0,0.0,0.0,0.0,0.0,0.0,0.0,0.0,0.0,0.0,0.0,0.0,0.0,0.0,0.0,0.0,0.0,0.0,0.0,0.0,0.0,0.0,0.0,0.0,0.0,0.0,0.0,0.0,0.0,0.0,0.0,0.0,0.0,0.0,0.0,0.0,0.0,0.0,0.0,0.0,0.0,0.0,0.0,0.0,0.0,0.0,0.0,0.0,0.0,0.0,0.0,0.0,0.0,0.0,0.0,0.0,0.0,0.0,0.0,0.0,0.0,0.0,0.0,0.0,0.0,0.0,0.0,0.0,0.0,0.0,0.0,0.0,0.0,0.0,0.0,0.0,0.0,0.0,0.0,0.0,0.0,0.0,0.0,0.0,0.0,0.0,0.0,0.0,0.0,0.0,0.0,0.0,0.0,0.0,0.0,0.0,0.0,0.0,0.0,0.0,0.0,0.0,0.0,0.0,0.0,0.0,0.0,0.0,0.0,0.0,0.0,0.0,0.0,0.0,0.0,0.0,0.0,0.0,0.0,0.0,0.0,0.0,0.0,0.0,0.0,0.0,0.0,0.0,0.0,0.0,0.0,0.0,0.0,0.0,0.0,0.0,0.0,0.0,0.0,0.0,0.0,0.0,0.0,0.0,0.0,0.0,0.0,0.0,0.0,0.0,0.0,0.0,0.0,0.0,0.0,0.0,0.0,0.0,0.0,0.0,0.0,0.0,0.0,0.0,0.0,0.0,0.0,0.0,0.0,0.0,0.0,0.0,0.0,0.0,0.0,0.0,0.0,0.0,0.0,0.0,0.0,0.0,0.0,0.0,0.0,0.0,0.0,0.0,0.0,0.0,0.0,0.0,0.0,0.0,0.0,0.0,0.0,0.0,0.0,0.0,0.0,0.0,0.0,0.0,0.0,0.0,0.0,0.0,0.0,0.0,0.0,0.0,0.0,0.0,0.0,0.0,0.0,0.0,0.0,0.0,0.0,0.0,0.0,0.0,0.0,0.0,0.0,0.0,0.0,0.0,0.0,0.0,0.0,0.0,0.0,0.0,0.0,0.0,0.0,0.0,0.0,0.0,0.0,0.0,0.0,0.0,0.0,0.0,0.0,0.0,0.0,0.0,0.0,0.0,0.0,0.0,0.0,0.0,0.0,0.0,0.0,0.0,0.0,0.0,0.0,0.0,0.0,0.0,0.0,0.0,0.0,0.0,0.0,0.0,0.0,0.0,0.0,0.0,0.0,0.0,0.0,0.0,0.0,0.0,0.0,0.0,0.0,0.0,0.0,0.0,0.0,0.0,0.0,0.0,0.0,0.0,0.0,0.0,0.0,0.0,0.0,0.0,0.0,0.0,0.0,0.0,0.0,0.0,0.0,0.0,0.0,0.0,0.0,0.0,0.0,0.0,0.0,0.0,0.0,0.0,0.0,0.0,0.0,0.0,0.0,0.0,0.0,0.0,0.0,0.0,0.0,0.0,0.0,0.0,0.0,0.0,0.0,0.0,0.0,0.0,0.0,0.0,0.0,0.0,0.0,0.0,0.0,0.0,0.0,0.0,0.0,0.0,0.0,0.0,0.0,0.0,0.0,0.0,0.0,0.0,0.0,0.0,0.0,0.0,0.0,0.0,0.0,0.0,0.0,0.0,0.0,0.0,0.0,0.0,0.0,0.0,0.0,0.0,0.0,0.0,0.0,0.0,0.0,0.0,0.0,0.0,0.0,0.0,0.0,0.0,0.0,0.0,0.0,0.0,0.0,0.0,0.0,0.0,0.0,0.0,0.0,0.0,0.0,0.0,0.0,0.0,0.0,0.0,0.0,0.0,0.0,0.0,0.0,0.0,0.0,0.0,0.0,0.0,0.0,0.0,0.0,0.0,0.0,0.0,0.0,0.0,0.0,0.0,0.0,0.0,0.0,0.0,0.0,0.0,0.0,0.0,0.0,0.0,0.0,0.0,0.0,0.0,0.0,0.0,0.0,0.0,0.0,0.0,0.0,0.0,0.0,0.0,0.0,0.0,0.0,0.0,0.0,0.0,0.0,0.0,0.0,0.0,0.0,0.0,0.0,0.0,0.0,0.0,0.0,0.0,0.0,0.0,0.0,0.0,0.0,0.0,0.0,0.0,0.0,0.0,0.0,0.0,0.0,0.0,0.0,0.0,0.0,0.0,0.0,0.0,0.0,0.0,0.0,0.0,0.0,0.0,0.0,0.0,0.0,0.0,0.0,0.0,0.0,0.0,0.0,0.0,0.0,0.0,0.0,0.0,0.0,0.0,0.0,0.0,0.0,0.0,0.0,0.0,0.0,0.0,0.0,0.0,0.0,0.0,0.0,0.0,0.0,0.0,0.0,0.0,0.0,0.0,0.0,0.0,0.0,0.0,0.0,0.0,0.0,0.0,0.0,0.0,0.0,0.0,0.0,0.0,0.0,0.0,0.0,0.0,0.0,0.0,0.0,0.0,0.0,0.0,0.0,0.0,0.0,0.0,0.0,0.0,0.0,0.0,0.0,0.0,0.0,0.0,0.0,0.0,0.0,0.0,0.0,0.0,-0.5222,0.0,0.0,0.0,0.0,0.0,0.0,0.0,0.0,0.0,0.0,0.0,0.0,0.0,0.0,0.0,0.0,0.0,0.0,0.0,0.0,0.0,0.0,0.0,0.0,0.0,0.0,0.0,0.0,0.0,0.0,0.0,0.0,0.0,0.0,0.0,0.0,0.0,0.0,0.0,0.0,0.0,0.0,0.0,0.0,0.0,0.0,0.0,0.0,0.0,0.0,0.0,0.0,0.0,0.0,0.0,0.0,0.0,0.0,0.0,0.0,0.0,0.0,0.0,0.0,0.0,0.0,0.0,0.0,0.0,0.0,0.0,0.0,0.0,0.0,0.0,0.0,0.0,0.0,0.0,0.0,0.0,0.0,0.0,0.0,0.0,0.0,0.0,0.0,0.0,0.0,0.0,0.0,0.0,0.0,0.0,0.0,0.0,0.0,0.0,0.0,0.0,0.0,0.0,0.0,0.0,0.0,0.0,0.0,0.0,0.0,-0.4713,-0.4843,-0.4951,-0.4884,-0.4571,0.0,0.0,0.0,0.0,0.0,0.0,0.0,0.0,0.0,0.0,0.0,0.0,0.0,0.0,0.0,0.0,0.0,0.0,0.0,0.0,0.0,0.0,0.0,0.0,0.0,0.0,0.0,0.0,0.0,0.0,0.0,0.0,0.0,0.0,0.0,0.0,0.0,0.0,0.0,0.0,0.0,0.0,0.0,0.0,0.0,0.0,0.0,0.0,0.0,0.0,0.0,0.0,0.0,0.0,0.0,0.0,0.0,0.0,0.0,0.0,0.0,0.0,0.0,0.0,0.0,0.0,0.0,0.0,0.0,0.0,0.0,0.0,0.0,0.0,0.0,0.0,0.0,0.0,0.0,0.0,0.0,0.0,0.0,0.0,0.0,0.0,0.0,0.0,0.0,0.0,0.0,0.0,0.0,0.0,0.0,0.0,0.0,0.0,0.0,0.0,0.0,0.0,0.0,0.0,0.0,0.0,0.0,0.0,0.0,0.0,0.0,0.0,-0.4403,-0.4366,-0.4258,0.0,0.0,0.0,0.0,0.0,0.0,0.0,0.0,0.0,0.0,0.0,0.0,0.0,0.0,0.0,0.0,0.0,0.0,0.0,0.0,0.0,0.0,0.0,0.0,0.0,0.0,0.0,0.0,0.0,0.0,0.0,0.0,0.0,0.0,0.0,0.0,0.0,0.0,0.0,0.0,0.0,0.0,0.0,0.0,0.0,0.0,0.0,0.0,0.0,0.0,0.0,0.0,0.0,0.0,0.0,0.0,0.0,0.0,0.0,0.0,0.0,0.0,0.0,0.0,0.0,0.0,0.0,0.0,0.0,0.0,0.0,0.0,0.0,0.0,0.0,0.0,0.0,0.0,0.0,0.0,0.0,0.0,0.0,0.0,0.0,0.0,0.0,0.0,0.0,0.0,0.0,0.0,0.0,0.0,0.0,0.0,0.0,0.0,0.0,0.0,0.0,0.0,0.0,0.0,0.0,0.0,0.0,0.0,0.0,0.0,-0.3844,-0.3618,-0.4357,0.0,-0.4738,0.0,0.0,0.0,0.0,0.0,0.0,0.0,0.0,0.0,0.0,0.0,0.0,0.0,0.0,0.0,0.0,0.0,0.0,0.0,0.0,0.0,0.0,0.0,0.0,0.0,0.0,0.0,0.0,0.0,0.0,0.0,0.0,0.0,0.0,0.0,0.0,0.0,0.0,0.0,0.0,0.0,0.0,0.0,0.0,0.0,0.0,0.0,0.0,0.0,0.0,0.0,0.0,0.0,0.0,0.0,0.0,0.0,0.0,0.0,0.0,0.0,0.0,0.0,0.0,0.0,0.0,0.0,0.0,0.0,0.0,0.0,0.0,0.0,0.0,0.0,0.0,0.0,0.0,0.0,0.0,0.0,0.0,0.0,0.0,0.0,0.0,0.0,0.0,0.0,0.0,0.0,0.0,0.0,0.0,0.0,0.0,0.0,0.0,0.0,0.0,0.0,0.0,0.0,0.0,0.0,0.0,0.0,0.0,0.0,0.0,0.0,-0.3806,-0.3941,-0.4113,0.0,0.0,0.0,0.0,0.0,0.0,0.0,0.0,0.0,0.0,0.0,0.0,0.0,0.0,0.0,0.0,0.0,0.0,0.0,0.0,0.0,0.0,0.0,0.0,0.0,0.0,0.0,0.0,0.0,0.0,0.0,0.0,0.0,0.0,0.0,0.0,0.0,0.0,0.0,0.0,0.0,0.0,0.0,0.0,0.0,0.0,0.0,0.0,0.0,0.0,0.0,0.0,0.0,0.0,0.0,0.0,0.0,0.0,0.0,0.0,0.0,0.0,0.0,0.0,0.0,0.0,0.0,0.0,0.0,0.0,0.0,0.0,0.0,0.0,0.0,0.0,0.0,0.0,0.0,0.0,0.0,0.0,0.0,0.0,0.0,0.0,0.0,0.0,0.0,0.0,0.0,0.0,0.0,0.0,0.0,0.0,0.0,0.0,0.0,0.0,0.0,0.0,0.0,0.0,0.0,0.0,0.0,0.0,0.0,0.0,-0.3709,0.0,-0.3805,-0.3583,-0.3523,-0.3723,0.0,0.0,0.0,0.0,0.0,0.0,0.0,0.0,0.0,0.0,0.0,0.0,0.0,0.0,0.0,0.0,0.0,0.0,0.0,0.0,0.0,0.0,0.0,0.0,0.0,0.0,0.0,0.0,0.0,0.0,0.0,0.0,0.0,0.0,0.0,0.0,0.0,0.0,0.0,0.0,0.0,0.0,0.0,0.0,0.0,0.0,0.0,0.0,0.0,0.0,0.0,0.0,0.0,0.0,0.0,0.0,0.0,0.0,0.0,0.0,0.0,0.0,0.0,0.0,0.0,0.0,0.0,0.0,0.0,0.0,0.0,0.0,0.0,0.0,0.0,0.0,0.0,0.0,0.0,0.0,0.0,0.0,0.0,0.0,0.0,0.0,0.0,0.0,0.0,0.0,0.0,0.0,0.0,0.0,0.0,0.0,0.0,0.0,0.0,0.0,0.0,0.0,0.0,0.0,0.0,0.0,0.0,0.0,0.0,-0.3467,-0.332,-0.3355,-0.3333,-0.3257,0.0,0.0,0.0,0.0,0.0,0.0,0.0,0.0,0.0,0.0,0.0,0.0,0.0,0.0,0.0,0.0,0.0,0.0,0.0,0.0,0.0,0.0,0.0,0.0,0.0,0.0,0.0,0.0,0.0,0.0,0.0,0.0,0.0,0.0,0.0,0.0,0.0,0.0,0.0,0.0,0.0,0.0,0.0,0.0,0.0,0.0,0.0,0.0,0.0,0.0,0.0,0.0,0.0,0.0,0.0,0.0,0.0,0.0,0.0,0.0,0.0,0.0,0.0,0.0,0.0,0.0,0.0,0.0,0.0,0.0,0.0,0.0,0.0,0.0,0.0,0.0,0.0,0.0,0.0,0.0,0.0,0.0,0.0,0.0,0.0,0.0,0.0,0.0,0.0,0.0,0.0,0.0,0.0,0.0,0.0,0.0,0.0,0.0,0.0,0.0,0.0,0.0,0.0,0.0,0.0,0.0,0.0,0.0,0.0,-0.3069,-0.3128,-0.3319,-0.3589,-0.3149,-0.3006,0.0,0.0,0.0,0.0,0.0,0.0,0.0,0.0,0.0,0.0,0.0,0.0,0.0,0.0,0.0,0.0,0.0,0.0,0.0,0.0,0.0,0.0,0.0,0.0,0.0,0.0,0.0,0.0,0.0,0.0,0.0,0.0,0.0,0.0,0.0,0.0,0.0,0.0,0.0,0.0,0.0,0.0,0.0,0.0,0.0,0.0,0.0,0.0,0.0,0.0,0.0,0.0,0.0,0.0,0.0,0.0,0.0,0.0,0.0,0.0,0.0,0.0,0.0,0.0,0.0,0.0,0.0,0.0,0.0,0.0,0.0,0.0,0.0,0.0,0.0,0.0,0.0,0.0,0.0,0.0,0.0,0.0,0.0,0.0,0.0,0.0,0.0,0.0,0.0,0.0,0.0,0.0,0.0,0.0,0.0,0.0,0.0,0.0,0.0,0.0,0.0,0.0,0.0,0.0,0.0,0.0,0.0,0.0,0.0,-0.2726,0.0,-0.3041,0.0,-0.2803,-0.2617,0.0,0.0,0.0,0.0,0.0,0.0,0.0,0.0,0.0,0.0,0.0,0.0,0.0,0.0,0.0,0.0,0.0,0.0,0.0,0.0,0.0,0.0,0.0,0.0,0.0,0.0,0.0,0.0,0.0,0.0,0.0,0.0,0.0,0.0,0.0,0.0,0.0,0.0,0.0,0.0,0.0,0.0,0.0,0.0,0.0,0.0,0.0,0.0,0.0,0.0,0.0,0.0,0.0,0.0,0.0,0.0,0.0,0.0,0.0,0.0,0.0,0.0,0.0,0.0,0.0,0.0,0.0,0.0,0.0,0.0,0.0,0.0,0.0,0.0,0.0,0.0,0.0,0.0,0.0,0.0,0.0,0.0,0.0,0.0,0.0,0.0,0.0,0.0,0.0,0.0,0.0,0.0,0.0,0.0,0.0,0.0,0.0,0.0,0.0,0.0,0.0,0.0,0.0,0.0,0.0,0.0,0.0,0.0,-0.2679,-0.2687,-0.2568,-0.244,-0.2224,-0.2207,-0.2093,0.0,0.0,0.0,0.0,0.0,0.0,0.0,0.0,0.0,0.0,0.0,0.0,0.0,0.0,0.0,0.0,0.0,0.0,0.0,0.0,0.0,0.0,0.0,0.0,0.0,0.0,0.0,0.0,0.0,0.0,0.0,0.0,0.0,0.0,0.0,0.0,0.0,0.0,0.0,0.0,0.0,0.0,0.0,0.0,0.0,0.0,0.0,0.0,0.0,0.0,0.0,0.0,0.0,0.0,0.0,0.0,0.0,0.0,0.0,0.0,0.0,0.0,0.0,0.0,0.0,0.0,0.0,0.0,0.0,0.0,0.0,0.0,0.0,0.0,0.0,0.0,0.0,0.0,0.0,0.0,0.0,0.0,0.0,0.0,0.0,0.0,0.0,0.0,0.0,0.0,0.0,0.0,0.0,0.0,0.0,0.0,0.0,0.0,0.0,0.0,0.0,0.0,0.0,0.0,0.0,0.0,0.0,0.0,0.0,-0.2218,-0.2413,-0.2513,-0.253,-0.2242,-0.213,0.0,0.0,0.0,0.0,0.0,0.0,0.0,0.0,0.0,0.0,0.0,0.0,0.0,0.0,0.0,0.0,0.0,0.0,0.0,0.0,0.0,0.0,0.0,0.0,0.0,0.0,0.0,0.0,0.0,0.0,0.0,0.0,0.0,0.0,0.0,0.0,0.0,0.0,0.0,0.0,0.0,0.0,0.0,0.0,0.0,0.0,0.0,0.0,0.0,0.0,0.0,0.0,0.0,0.0,0.0,0.0,0.0,0.0,0.0,0.0,0.0,0.0,0.0,0.0,0.0,0.0,0.0,0.0,0.0,0.0,0.0,0.0,0.0,0.0,0.0,0.0,0.0,0.0,0.0,0.0,0.0,0.0,0.0,0.0,0.0,0.0,0.0,0.0,0.0,0.0,0.0,0.0,0.0,0.0,0.0,0.0,0.0,0.0,0.0,0.0,0.0,0.0,0.0,0.0,0.0,0.0,0.0,0.0,0.0,-0.1618,-0.2249,-0.2618,-0.2698,-0.2416,-0.2237,-0.2248,0.0,0.0,0.0,0.0,0.0,0.0,0.0,0.0,0.0,0.0,0.0,0.0,0.0,0.0,0.0,0.0,0.0,0.0,0.0,0.0,0.0,0.0,0.0,0.0,0.0,0.0,0.0,0.0,0.0,0.0,0.0,0.0,0.0,0.0,0.0,0.0,0.0,0.0,0.0,0.0,0.0,0.0,0.0,0.0,0.0,0.0,0.0,0.0,0.0,0.0,0.0,0.0,0.0,0.0,0.0,0.0,0.0,0.0,0.0,0.0,0.0,0.0,0.0,0.0,0.0,0.0,0.0,0.0,0.0,0.0,0.0,0.0,0.0,0.0,0.0,0.0,0.0,0.0,0.0,0.0,0.0,0.0,0.0,0.0,0.0,0.0,0.0,0.0,0.0,0.0,0.0,0.0,0.0,0.0,0.0,0.0,0.0,0.0,0.0,0.0,0.0,0.0,0.0,0.0,0.0,0.0,0.0,0.0,-0.1007,-0.2073,-0.2634,-0.2624,-0.2586,-0.2384,0.0,0.0,0.0,0.0,0.0,0.0,0.0,0.0,0.0,0.0,0.0,0.0,0.0,0.0,0.0,0.0,0.0,0.0,0.0,0.0,0.0,0.0,0.0,0.0,0.0,0.0,0.0,0.0,0.0,0.0,0.0,0.0,0.0,0.0,0.0,0.0,0.0,0.0,0.0,0.0,0.0,0.0,0.0,0.0,0.0,0.0,0.0,0.0,0.0,0.0,0.0,0.0,0.0,0.0,0.0,0.0,0.0,0.0,0.0,0.0,0.0,0.0,0.0,0.0,0.0,0.0,0.0,0.0,0.0,0.0,0.0,0.0,0.0,0.0,0.0,0.0,0.0,0.0,0.0,0.0,0.0,0.0,0.0,0.0,0.0,0.0,0.0,0.0,0.0,0.0,0.0,0.0,0.0,0.0,0.0,0.0,0.0,0.0,0.0,0.0,0.0,0.0,0.0,0.0,0.0,0.0,0.0,0.0,0.0,-0.2187,-0.2107,-0.1897,-0.1698,-0.1685,-0.1846,0.0,0.0,0.0,0.0,0.0,0.0,0.0,0.0,0.0,0.0,0.0,0.0,0.0,0.0,0.0,0.0,0.0,0.0,0.0,0.0,0.0,0.0,0.0,0.0,0.0,0.0,0.0,0.0,0.0,0.0,0.0,0.0,0.0,0.0,0.0,0.0,0.0,0.0,0.0,0.0,0.0,0.0,0.0,0.0,0.0,0.0,0.0,0.0,0.0,0.0,0.0,0.0,0.0,0.0,0.0,0.0,0.0,0.0,0.0,0.0,0.0,0.0,0.0,0.0,0.0,0.0,0.0,0.0,0.0,0.0,0.0,0.0,0.0,0.0,0.0,0.0,0.0,0.0,0.0,0.0,0.0,0.0,0.0,0.0,0.0,0.0,0.0,0.0,0.0,0.0,0.0,0.0,0.0,0.0,0.0,0.0,0.0,0.0,0.0,0.0,0.0,0.0,0.0,0.0,0.0,0.0,0.0,0.0,-0.1485,-0.2653,-0.1612,-0.0938,-0.0726,-0.0764,-0.096,0.0,0.0,0.0,0.0,0.0,0.0,0.0,0.0,0.0,0.0,0.0,0.0,0.0,0.0,0.0,0.0,0.0,0.0,0.0,0.0,0.0,0.0,0.0,0.0,0.0,0.0,0.0,0.0,0.0,0.0,0.0,0.0,0.0,0.0,0.0,0.0,0.0,0.0,0.0,0.0,0.0,0.0,0.0,0.0,0.0,0.0,0.0,0.0,0.0,0.0,0.0,0.0,0.0,0.0,0.0,0.0,0.0,0.0,0.0,0.0,0.0,0.0,0.0,0.0,0.0,0.0,0.0,0.0,0.0,0.0,0.0,0.0,0.0,0.0,0.0,0.0,0.0,0.0,0.0,0.0,0.0,0.0,0.0,0.0,0.0,0.0,0.0,0.0,0.0,0.0,0.0,0.0,0.0,0.0,0.0,0.0,0.0,0.0,0.0,0.0,0.0,0.0,0.0,0.0,0.0,0.0,0.0,0.0,-0.1459,-0.2386,-0.0811,-0.0,-0.0,-0.0,-0.0,0.0,0.0,0.0,0.0,0.0,0.0,0.0,0.0,0.0,0.0,0.0,0.0,0.0,0.0,0.0,0.0,0.0,0.0,0.0,0.0,0.0,0.0,0.0,0.0,0.0,0.0,0.0,0.0,0.0,0.0,0.0,0.0,0.0,0.0,0.0,0.0,0.0,0.0,0.0,0.0,0.0,0.0,0.0,0.0,0.0,0.0,0.0,0.0,0.0,0.0,0.0,0.0,0.0,0.0,0.0,0.0,0.0,0.0,0.0,0.0,0.0,0.0,0.0,0.0,0.0,0.0,0.0,0.0,0.0,0.0,0.0,0.0,0.0,0.0,0.0,0.0,0.0,0.0,0.0,0.0,0.0,0.0,0.0,0.0,0.0,0.0,0.0,0.0,0.0,0.0,0.0,0.0,0.0,0.0,0.0,0.0,0.0,0.0,0.0,0.0,0.0,0.0,0.0,0.0,0.0,0.0,0.0,0.0,-0.128,-0.0598,-0.0212,-0.0,-0.0,-0.0,-0.0,0.0,0.0,0.0,0.0,0.0,0.0,0.0,0.0,0.0,0.0,0.0,0.0,0.0,0.0,0.0,0.0,0.0,0.0,0.0,0.0,0.0,0.0,0.0,0.0,0.0,0.0,0.0,0.0,0.0,0.0,0.0,0.0,0.0,0.0,0.0,0.0,0.0,0.0,0.0,0.0,0.0,0.0,0.0,0.0,0.0,0.0,0.0,0.0,0.5885,0.0,0.0,0.0,0.0,0.0,0.0,0.0,0.0,0.0,0.0,0.0,0.0,0.0,0.0,0.0,0.0,0.0,0.0,0.0,0.0,0.0,0.0,0.0,0.0,0.0,0.0,0.0,0.0,0.0,0.0,0.0,0.0,0.0,0.0,0.0,0.0,0.0,0.0,0.0,0.0,0.0,0.0,0.0,0.0,0.0,0.0,0.0,0.0,0.0,0.0,0.0,0.0,0.0,0.0,0.0,0.0,0.0,0.0,0.0,-0.15,-0.0,-0.0,-0.0,-0.0,-0.0,-0.0,0.0,0.0,0.0,0.0,0.0,0.0,0.0,0.0,0.0,0.0,0.0,0.0,0.0,0.0,0.0,0.0,0.0,0.0,0.0,0.0,0.0,0.0,0.0,0.0,0.0,0.0,0.0,0.0,0.0,0.0,0.0,0.0,0.0,0.0,0.0,0.0,0.0,0.0,0.0,0.0,0.0,0.0,0.0,0.0,0.0,0.0,0.0,0.0,0.0,0.0,0.0,0.0,0.0,0.0,0.0,0.0,0.0,0.0,0.0,0.0,0.0,0.0,0.0,0.0,0.0,0.0,0.0,0.0,0.0,0.0,0.0,0.0,0.0,0.0,0.0,0.0,0.0,0.0,0.0,0.0,0.0,0.0,0.0,0.0,0.0,0.0,0.0,0.0,0.0,0.0,0.0,0.0,0.0,0.0,0.0,0.0,0.0,0.0,0.0,0.0,0.0,0.0,0.0,0.0,0.0,0.0,0.0,-0.1762,-0.1561,-0.0,-0.0,-0.0,-0.0,-0.0,-0.0,-0.0,0.0,0.0,0.0,0.0,0.0,0.0,0.0,0.0,0.0,0.0,0.0,0.0,0.0,0.0,0.0,0.0,0.0,0.0,0.0,0.0,0.0,0.0,0.0,0.0,0.0,0.0,0.0,0.0,0.0,0.0,0.0,0.0,0.0,0.0,0.0,0.0,0.0,0.0,0.3059,0.4104,0.0,0.0,0.0,0.0,0.0,0.0,0.0,0.0,0.6689,0.0,0.0,0.0,0.0,0.0,0.0,0.0,0.0,0.0,0.0,0.0,0.0,0.0,0.0,0.0,0.0,0.0,0.0,0.0,0.0,0.0,0.0,0.0,0.0,0.0,0.0,0.0,0.0,0.0,0.0,0.0,0.0,0.0,0.0,0.0,0.0,0.0,0.0,0.0,0.0,0.0,0.0,0.0,0.0,0.0,0.0,0.0,0.0,0.0,0.0,0.0,0.0,0.0,0.0,0.0,0.0,-0.0153,-0.0349,-0.0274,-0.0,-0.0,-0.0,-0.0,-0.0,-0.0,-0.0,0.0,0.0,0.0,0.0,0.0,0.0,0.0,0.0,0.0,0.0,0.0,0.0,0.0,0.0,0.0,0.0,0.0,0.0,0.0,0.0,0.0,0.0,0.0,0.0,0.0,0.0,0.0,0.0,0.0,0.0,0.0,0.0,0.0,0.0,0.0,0.0,0.0,0.0,0.0,0.5054,0.5822,0.0,0.0,0.0,0.0,0.0,0.0,0.0,0.0,0.6578,0.0,0.0,0.0,0.0,0.0,0.0,0.0,0.0,0.0,0.0,0.0,0.0,0.0,0.0,0.0,0.0,0.0,0.0,0.0,0.0,0.0,0.0,0.0,0.0,0.0,0.0,0.0,0.0,0.0,0.0,0.0,0.0,0.0,0.0,0.0,0.0,0.0,0.0,0.0,0.0,0.0,0.0,0.0,0.0,0.0,0.0,0.0,0.0,0.0,0.0,0.0,0.0,0.0,0.0,0.0,-0.0898,-0.031,-0.0,-0.0,-0.0,-0.0,-0.0,-0.0,-0.0,0.0,0.0,0.0,0.0,0.0,0.0,0.0,0.0,0.0,0.0,0.0,0.0,0.0,0.0,0.0,0.0,0.0,0.0,0.0,0.0,0.0,0.0,0.0,0.0,0.0,0.0,0.0,0.0,0.0,0.0,0.0,0.0,0.0,0.0,0.0,0.0,0.0,0.0,0.0,0.0,0.5608,0.618,0.6088,0.0,0.0,0.0,0.0,0.0,0.0,0.692,0.6957,0.0,0.0,0.0,0.0,0.0,0.0,0.0,0.0,0.0,0.0,0.0,0.0,0.0,0.0,0.0,0.0,0.0,0.0,0.0,0.0,0.0,0.0,0.0,0.0,0.0,0.0,0.0,0.0,0.0,0.0,0.0,0.0,0.0,0.0,0.0,0.0,0.0,0.0,0.0,0.0,0.0,0.0,0.0,0.0,0.0,0.0,0.0,0.0,0.0,0.0,0.0,0.0,0.0,0.0,0.0,-0.1365,-0.0501,-0.0,-0.0,-0.0,-0.0,-0.0,-0.0,-0.0,0.0,0.0,0.0,0.0,0.0,0.0,0.0,0.0,0.0,0.0,0.0,0.0,0.0,0.0,0.0,0.0,0.0,0.0,0.0,0.0,0.0,0.0,0.0,0.0,0.0,0.0,0.0,0.0,0.0,0.0,0.0,0.0,0.0,0.0,0.0,0.0,0.0,0.0,0.0,0.0,0.0,0.6523,0.6729,0.704,0.0,0.0,0.0,0.0,0.7724,0.7842,0.0,0.0,0.0,0.0,0.0,0.0,0.0,0.0,0.0,0.0,0.0,0.0,0.0,0.0,0.0,0.0,0.0,0.0,0.0,0.0,0.0,0.0,0.0,0.0,0.0,0.0,0.0,0.0,0.0,0.0,0.0,0.0,0.0,0.0,0.0,0.0,0.0,0.0,0.0,0.0,0.0,0.0,0.0,0.0,0.0,0.0,0.0,0.0,0.0,0.0,0.0,0.0,0.0,0.0,0.0,0.0,-0.0193,-0.0078,-0.0,-0.0,-0.0,-0.0,-0.0,-0.0,-0.0,0.0,0.0,0.0,0.0,0.0,0.0,0.0,0.0,0.0,0.0,0.0,0.0,0.0,0.0,0.0,0.0,0.0,0.0,0.0,0.0,0.0,0.0,0.0,0.0,0.0,0.0,0.0,0.0,0.0,0.0,0.0,0.0,0.0,0.0,0.0,0.0,0.0,0.0,0.0,0.0,0.0,0.7446,0.703,0.7327,0.7856,0.0,0.0,0.8406,0.9209,0.949,0.0,0.0,0.0,0.0,0.0,0.0,0.0,0.0,0.0,0.0,0.0,0.0,0.0,0.0,0.0,0.0,0.0,0.0,0.0,0.0,0.0,0.0,0.0,0.0,0.0,0.0,0.0,0.0,0.0,0.0,0.0,0.0,0.0,0.0,0.0,0.0,0.0,0.0,0.0,0.0,0.0,0.0,0.0,0.0,0.0,0.0,0.0,0.0,0.0,0.0,0.0,0.0,0.0,0.0,0.0,-0.0,-0.0,-0.0,-0.0,-0.0,-0.0,-0.0,-0.0,0.1298,0.1732,0.0,0.0,0.0,0.0,0.0,0.0,0.0,0.0,0.0,0.0,0.0,0.0,0.0,0.0,0.0,0.0,0.0,0.0,0.0,0.0,0.0,0.0,0.0,0.0,0.0,0.0,0.0,0.0,0.0,0.0,0.0,0.0,0.0,0.0,0.0,0.0,0.0,0.0,0.0,0.0,0.0,0.0,0.7579,0.8213,0.0,0.0,0.0,0.9729,1.0744,0.0,0.0,0.0,0.0,0.0,0.0,0.0,0.0,0.0,0.0,0.0,0.0,0.0,0.0,0.0,0.0,0.0,0.0,0.0,0.0,0.0,0.0,0.0,0.0,0.0,0.0,0.0,0.0,0.0,0.0,0.0,0.0,0.0,0.0,0.0,0.0,0.0,0.0,0.0,0.0,0.0,0.0,0.0,0.0,0.0,0.0,0.0,0.0,0.0,0.0,0.0,0.0,0.0,0.0,0.0,0.0,0.0,-0.0,-0.0,-0.0,-0.0,0.0449,0.0456,0.0077,0.227,0.0,0.0,0.0,0.0,0.0,0.0,0.0,0.0,0.0,0.0,0.0,0.0,0.0,0.0,0.0,0.0,0.0,0.0,0.0,0.0,0.0,0.0,0.0,0.0,0.0,0.0,0.0,0.0,0.0,0.0,0.0,0.0,0.0,0.0,0.0,0.0,0.0,0.0,0.0,0.0,0.0,0.0,0.6379,0.8298,0.9214,0.9852,0.0,0.0,1.1153,1.191,1.1282,1.0518,0.0,0.0,0.0,0.0,0.0,0.0,0.0,0.0,0.0,0.0,0.0,0.0,0.0,0.0,0.0,0.0,0.0,0.0,0.0,0.0,0.0,0.0,0.0,0.0,0.0,0.0,0.0,0.0,0.0,0.0,0.0,0.0,0.0,0.0,0.0,0.0,0.0,0.0,0.0,0.0,0.0,0.0,0.0,0.0,0.0,0.0,0.0,0.0,0.0,0.0,0.0,0.0,0.0,0.0,0.0,-0.0,-0.0,-0.0,-0.0,0.1666,0.1698,0.011,0.2011,0.2963,0.0,0.0,0.0,0.0,0.0,0.0,0.0,0.0,0.0,0.0,0.0,0.0,0.0,0.0,0.0,0.0,0.0,0.0,0.0,0.0,0.0,0.0,0.0,0.0,0.0,0.0,0.0,0.0,0.0,0.0,0.0,0.0,0.0,0.0,0.0,0.0,0.0,0.0,0.0,0.0,0.0,0.6901,0.9279,1.0159,1.0989,0.0,0.0,1.2511,1.2394,1.2722,1.2271,1.0244,0.0,0.0,0.0,0.0,0.0,0.0,0.0,0.0,0.0,0.0,0.0,0.0,0.0,0.0,0.0,0.0,0.0,0.0,0.0,0.0,0.0,0.0,0.0,0.0,0.0,0.0,0.0,0.0,0.0,0.0,0.0,0.0,0.0,0.0,0.0,0.0,0.0,0.0,0.0,0.0,0.0,0.0,0.0,0.0,0.0,0.0,0.0,0.0,0.0,0.0,0.0,0.0,0.0,-0.0,-0.0,0.1086,0.1665,0.1668,0.1769,0.1759,0.1667,0.2582,0.2944,0.0,0.0,0.0,0.0,0.0,0.0,0.0,0.0,0.0,0.0,0.0,0.0,0.0,0.0,0.0,0.0,0.0,0.0,0.0,0.0,0.0,0.0,0.0,0.0,0.0,0.0,0.0,0.0,0.2449,0.2604,0.2613,0.0,0.0,0.0,0.0,0.0,0.0,0.0,0.0,0.0,0.0,0.7121,0.8568,1.0262,0.0,0.0,1.2118,1.2579,1.3739,1.3245,1.2397,1.1588,1.0872,0.0,0.0,0.0,0.0,0.0,0.0,0.0,0.0,0.0,0.0,0.0,0.0,0.0,0.0,0.0,0.0,0.0,0.0,0.0,0.0,0.0,0.0,0.0,0.0,0.0,0.0,0.0,0.0,0.0,0.0,0.0,0.0,0.0,0.0,0.0,0.0,0.0,0.0,0.0,0.0,0.0,0.0,0.0,0.0,0.0,0.0,0.0,0.0,0.0,0.0,0.0,0.0,-0.0,-0.0,0.1782,0.27,0.2683,0.2053,0.2013,0.266,0.2886,0.2874,0.0,0.0,0.0,0.0,0.0,0.0,0.0,0.0,0.0,0.0,0.0,0.0,0.0,0.0,0.0,0.0,0.0,0.0,0.0,0.0,0.0,0.0,0.0,0.0,0.0,0.0,0.0,0.0,0.2784,0.2948,0.3073,0.0,0.0,0.0,0.0,0.0,0.0,0.0,0.0,0.0,0.0,0.7462,0.9264,1.0794,1.1933,1.2461,1.2449,1.2881,1.4157,1.352,1.275,1.2336,0.0,0.0,0.0,0.0,0.0,0.0,0.0,0.0,0.0,0.0,0.0,0.0,0.0,0.0,0.0,0.0,0.0,0.0,0.0,0.0,0.0,0.0,0.0,0.0,0.0,0.0,0.0,0.0,0.0,0.0,-0.2191,0.0,0.0,0.0,0.0,0.0,0.0,0.0,0.0,0.0,0.0,0.0,0.0,0.0,0.0,0.0,0.0,0.0,0.0,0.0,0.0,0.0,0.0,-0.0,-0.0,0.1722,0.2676,0.2686,0.267,0.2666,0.2706,0.2835,0.2835,0.2716,0.0,0.0,0.0,0.0,0.0,0.0,0.0,0.0,0.0,0.0,0.0,0.0,0.0,0.0,0.0,0.0,0.0,0.0,0.0,0.0,0.0,0.0,0.0,0.0,0.0,0.0,0.3453,0.3469,0.338,0.0,0.0,0.0,0.0,0.0,0.0,0.0,0.0,0.0,0.0,0.7098,0.7988,1.1861,1.2003,1.2267,1.3691,1.3872,1.3693,1.3306,1.3607,1.3531,0.0,0.0,0.0,0.0,0.0,0.0,0.0,0.0,0.0,0.0,0.0,0.0,0.0,0.0,0.0,0.0,0.0,0.0,0.0,0.0,0.0,0.0,0.0,0.0,0.0,0.0,0.0,-0.2784,-0.2545,0.0,0.0,0.0,0.0,0.0,0.0,0.0,0.0,0.0,0.0,0.0,-0.3096,-0.3281,0.0,0.0,0.0,0.0,0.0,0.0,0.0,0.0,0.0,0.0,0.0,0.0,-0.0,-0.0,0.0598,0.1471,0.264,0.2698,0.2684,0.269,0.273,0.2686,0.2565,0.0,0.0,0.0,0.0,0.0,0.0,0.0,0.0,0.0,0.0,0.0,0.0,0.0,0.0,0.0,0.0,0.0,0.0,0.0,0.0,0.0,0.0,0.0,0.0,0.0,0.3506,0.0,0.0,0.0,0.0,0.0,0.0,0.0,0.0,0.0,0.0,0.0,0.7229,0.7931,0.8599,0.9789,1.1869,1.3696,1.4565,0.0,0.0,0.0,0.0,0.0,0.0,0.0,0.0,0.0,0.0,0.0,0.0,0.0,0.0,1.6757,1.369,1.259,1.2133,1.2133,0.0,0.0,0.0,0.0,0.0,0.0,0.0,0.0,0.0,0.0,0.0,0.0,0.0,0.0,-0.3281,0.0,-0.3031,0.0,0.0,0.0,0.0,0.0,0.0,0.0,0.0,-0.3593,-0.3594,-0.3396,-0.3554,-0.2803,0.0,-0.2266,-0.2167,0.0,0.0,0.0,0.0,0.0,0.0,0.0,0.0,-0.0,-0.0,-0.0,0.0763,0.2327,0.2585,0.2679,0.2696,0.2761,0.278,0.2647,0.2644,0.2543,0.0,0.0,0.0,0.0,0.0,0.0,0.0,0.0,0.0,0.0,0.0,0.0,0.0,0.0,0.0,0.0,0.0,0.0,0.0,0.0,0.0,0.0,0.0,0.3549,0.0,0.0,0.0,0.0,0.0,0.0,0.0,0.0,0.0,0.5354,0.6884,0.8201,0.8736,0.9655,1.0797,1.2152,0.0,0.0,0.0,0.0,0.0,0.0,0.0,1.4525,1.5136,1.4802,1.4759,1.5668,1.691,1.8201,1.9476,0.0,0.0,1.5709,1.4663,1.4236,1.4405,1.4867,1.514,1.489,1.5852,1.6485,0.0,0.0,0.0,0.0,0.0,0.0,0.0,0.0,-0.3776,-0.3673,0.0,-0.3654,0.0,0.0,0.0,0.0,0.0,-0.3714,0.0,0.0,-0.4196,-0.417,-0.3563,-0.3619,-0.283,-0.1466,-0.2196,-0.1689,-0.0,-0.0,0.0,0.0,0.0,0.0,0.0,0.0,-0.0,-0.0,-0.0,0.0611,0.1773,0.2403,0.2733,0.2723,0.2913,0.2985,0.2907,0.29,0.2801,0.2526,0.2496,0.0,0.0,0.0,0.0,0.0,0.0,0.0,0.0,0.0,0.0,0.0,0.0,0.0,0.0,0.0,0.0,0.0,0.0,0.0,0.0,0.3709,0.0,0.0,0.0,0.0,0.0,0.0,0.0,0.0,0.0,0.0,0.6911,0.7598,0.8636,1.0118,0.0,0.0,0.0,0.0,1.5948,1.4835,1.4642,1.4687,1.4778,1.4779,1.4658,1.44,0.0,0.0,1.7424,1.8223,1.8834,1.9484,1.9081,1.8882,1.9361,1.835,1.7743,1.8083,1.7908,1.8022,1.8368,1.8817,1.9639,-0.8737,0.0,0.0,0.0,0.0,-0.5027,-0.4614,-0.4403,-0.431,-0.419,-0.4071,-0.3929,0.0,0.0,0.0,0.0,0.0,0.0,-0.4043,-0.4254,-0.427,-0.37,-0.2686,-0.3748,-0.377,-0.2899,-0.1486,-0.052,-0.0,-0.0,-0.0,-0.0,0.0,0.0,0.0,0.0,-0.0,-0.0,0.0864,0.1472,0.1795,0.2835,0.3179,0.2841,0.3086,0.3127,0.2913,0.291,0.2867,0.2785,0.2492,0.0,0.0,0.0,0.0,0.0,0.0,0.0,0.0,0.0,0.0,0.0,0.0,0.0,0.0,0.0,0.0,0.0,0.0,0.0,0.3951,0.4411,0.486,0.0,0.0,0.0,0.0,0.0,0.0,0.0,0.0,0.0,0.8776,0.9564,1.0351,0.0,0.0,1.2523,1.347,1.3925,1.4137,1.4218,0.0,0.0,0.0,1.4309,1.455,1.5167,1.5993,1.6818,1.7591,1.7859,1.8065,1.8246,1.8107,1.8041,1.8223,1.8484,1.8401,1.8102,1.8306,1.8451,1.8145,1.8643,1.9389,-1.0063,-0.9345,-0.8273,-0.7466,-0.6844,-0.5993,-0.5418,-0.5156,-0.4823,-0.4624,-0.4521,-0.4359,-0.4233,-0.4134,-0.3938,0.0,0.0,0.0,-0.427,-0.4433,-0.3163,-0.2127,-0.1435,-0.2265,-0.2506,-0.2125,-0.0697,-0.0,-0.0,-0.0,-0.0,-0.0,0.0,0.0,-0.0,-0.0,0.0479,0.1429,0.2141,0.229,0.1834,0.2927,0.3305,0.2927,0.3087,0.3159,0.2998,0.2991,0.2968,0.2991,0.2663,0.2397,0.0,0.0,0.0,0.0,0.0,0.0,0.0,0.0,0.0,0.0,0.0,0.3693,0.0,0.0,0.0,0.0,0.4187,0.468,0.5192,0.5891,0.0,0.0,0.0,0.0,0.0,0.0,0.0,0.8229,0.8855,0.9402,1.0064,1.0733,1.1211,1.1289,1.2049,1.265,1.2904,0.0,1.3086,1.3591,1.3936,1.4198,1.4375,1.4223,1.4377,1.5117,1.5962,1.664,1.6889,1.7146,1.7203,1.7062,1.7368,1.7692,1.7694,1.8254,1.8643,1.8311,1.8583,1.8801,1.8687,1.9046,1.9491,-1.1029,-1.1028,-1.016,-0.9427,-0.8652,-0.7741,-0.6885,-0.616,-0.5344,-0.5053,-0.5067,-0.4841,-0.4707,-0.4691,-0.4378,0.0,-0.4271,-0.4467,-0.4515,-0.4438,-0.1658,-0.0221,-0.0,-0.0,-0.0,-0.0,-0.0,-0.0,-0.0,-0.0,-0.0,-0.0,-0.0,-0.0,-0.0,-0.0,0.1212,0.3565,0.3575,0.3049,0.2006,0.2833,0.3185,0.2937,0.3063,0.3134,0.312,0.3095,0.3108,0.3096,0.3027,0.2748,0.2302,0.0,0.0,0.0,0.0,0.0,0.0,0.0,0.0,0.0,0.0,0.0,0.0,0.0,0.0,0.0,0.5395,0.0,0.6992,0.7583,0.0,0.0,0.0,0.7431,0.7028,0.7985,0.8772,0.9115,0.0,0.0,1.0908,0.0,1.1381,1.0918,1.149,1.1891,1.161,1.2038,1.253,1.3075,1.3597,1.414,1.4474,1.427,1.4105,1.4436,1.5165,1.5713,1.589,1.6278,1.6381,1.5991,1.6755,1.7563,1.7575,1.7941,1.8408,1.8718,1.8783,1.9021,1.9545,1.9715,1.9698,-1.1248,-1.108,-1.1022,-1.0675,-0.9992,-0.8304,-0.7058,-0.6181,-0.5972,-0.5589,-0.51,-0.4917,-0.4867,-0.4863,-0.453,-0.461,-0.4864,-0.4832,-0.4836,-0.4914,-0.3915,-0.2222,-0.0,-0.0,-0.0,-0.0,-0.0,-0.0,-0.0,-0.0,-0.0,-0.0,-0.0,-0.0,-0.0,-0.0,0.1164,0.3559,0.3618,0.3458,0.3173,0.3409,0.3378,0.3041,0.3215,0.3242,0.313,0.3232,0.3253,0.3105,0.3331,0.3272,0.2884,0.3063,0.0,0.0,0.0,0.0,0.0,0.0,0.0,0.0,0.0,0.4774,0.4447,0.0,0.4888,0.0,0.602,0.6463,0.6774,0.7125,0.0,0.0,0.8308,0.853,0.9336,0.9105,0.9319,1.0309,1.0468,1.0547,1.0869,1.1006,1.0908,1.0508,1.116,1.1667,1.1587,1.1747,1.2061,1.2511,1.2819,1.3047,1.3599,1.3483,1.3616,1.398,1.4515,1.5039,1.5712,1.5906,1.5964,1.5831,1.601,1.6413,1.6891,1.7052,1.7432,1.813,1.8247,1.8243,1.8698,1.8792,1.8726,-1.1623,-1.1617,-1.1483,-1.1397,-1.121,-0.9012,-0.7747,-0.7092,-0.6311,-0.5654,-0.5209,-0.5051,-0.4979,-0.4867,-0.4748,-0.4781,-0.5036,-0.5099,-0.5106,-0.503,-0.4845,-0.3443,-0.0983,-0.0306,-0.0,-0.0,-0.0,-0.0,-0.0,-0.0,-0.0,-0.0,-0.0,-0.0,-0.0,-0.0,0.069,0.1962,0.304,0.3578,0.3588,0.3578,0.3497,0.3337,0.3409,0.3446,0.3419,0.3503,0.351,0.3344,0.3502,0.3528,0.3419,0.3547,0.359,0.0,0.0,0.0,0.0,0.0,0.0,0.0,0.0,0.0,0.0,0.0,0.5374,0.0,0.7184,0.7684,0.7959,0.8471,0.8941,0.9216,0.9391,0.9635,0.9944,0.9753,0.9868,1.0566,1.043,1.0371,1.0605,1.0801,1.083,1.0596,1.1185,1.1528,1.1351,1.1496,1.1922,1.262,1.2789,1.3073,1.3815,1.4105,1.4401,1.4862,1.5302,1.5669,1.5814,1.6273,1.6637,1.6623,1.6637,1.6741,1.7056,1.7148,1.743,1.8022,1.8185,1.8307,1.8729,1.8965,1.9018,-1.208,-1.2223,-1.1727,-1.1854,-1.211,-0.9862,-0.8754,-0.8527,-0.6747,-0.5744,-0.5476,-0.5274,-0.5148,-0.5033,-0.5013,-0.5006,-0.5006,-0.5301,-0.5232,-0.4975,-0.5105,-0.4229,-0.2554,-0.0784,-0.0,-0.0,-0.0,-0.0,-0.0,-0.0,-0.0,-0.0,-0.0,-0.0,-0.0,-0.0,0.0113,0.028,0.242,0.3527,0.3649,0.3656,0.3646,0.3609,0.3626,0.3687,0.3785,0.3809,0.3768,0.3614,0.367,0.3757,0.3873,0.3949,0.4162,0.0,0.4517,0.0,0.0,0.0,0.0,0.0,0.0,0.0,0.0,0.5518,0.607,0.7224,0.8417,0.9203,0.9563,1.0312,1.0429,0.9787,1.042,1.0596,0.9834,1.0098,1.0342,1.0322,1.0332,1.0371,1.041,1.0723,1.0996,1.1025,1.143,1.1562,1.1221,1.1581,1.2225,1.3123,1.3325,1.3792,1.4597,1.5094,1.5457,1.5969,1.6355,1.6602,1.6132,1.6957,1.7652,1.7717,1.7654,1.7699,1.7809,1.7846,1.7987,1.851,1.8734,1.8991,1.9442,1.9807,2.0119,-1.2225,-1.2304,-1.2158,-1.2217,-1.2224,-1.0942,-1.0162,-0.9668,-0.8563,-0.7144,-0.5718,-0.5688,-0.5661,-0.5623,-0.5375,-0.5389,-0.5454,-0.5401,-0.5346,-0.5277,-0.5343,-0.5157,-0.4632,-0.1486,-0.0,-0.0,-0.0,-0.0,-0.0,-0.0,-0.0,-0.0,-0.0,-0.0,-0.0,0.0,0.0,0.0,0.2493,0.3192,0.3909,0.406,0.3953,0.3768,0.3873,0.0,0.3802,0.391,0.39,0.3786,0.4047,0.0,0.0,0.0,0.0,0.0,0.0,0.0,0.0,0.0,0.0,0.0,0.6048,0.6236,0.6457,0.7815,0.8415,0.7654,0.8718,0.9505,0.9592,0.9729,0.9914,1.0166,1.0615,1.0703,1.0244,1.0537,1.0664,1.0322,1.0576,1.0791,1.082,1.1172,1.1479,1.1455,1.1816,1.2051,1.1982,1.242,1.2938,1.3225,1.4002,1.4604,1.4864,1.5031,1.5197,1.5259,1.5864,1.6571,1.7155,1.7456,1.7882,1.8193,1.7951,1.7919,1.8388,1.8499,1.8693,1.9326,2.0009,2.0477,2.0389,2.0428,2.075,-1.2438,0.0,-1.2305,-1.2305,0.0,-1.1774,-1.1414,-1.1109,-0.9504,-0.7941,-0.6508,-0.6015,-0.58,-0.5796,-0.5654,-0.5624,-0.5688,-0.547,-0.5406,-0.5471,-0.5463,-0.5372,-0.5326,-0.263,-0.0851,-0.0,-0.0,-0.0,-0.0,-0.0,-0.0,-0.0,-0.0,-0.0,-0.0,-0.0,0.1076,0.3309,0.349,0.374,0.4096,0.4026,0.4019,0.3969,0.0,0.0,0.0,0.0,0.0,0.0,0.0,0.0,0.0,0.0,0.0,0.6162,0.656,0.6471,0.5766,0.6098,0.6426,0.6573,0.709,0.7386,0.7337,0.8319,0.8832,0.8649,0.944,0.9951,0.9951,0.9961,1.0039,1.0312,1.0664,1.082,1.0674,1.0967,1.1143,1.1018,1.1103,1.124,1.1283,1.1621,1.1875,1.1914,1.2275,1.2539,1.2577,1.2853,1.3231,1.3871,1.4941,1.568,1.5693,1.568,1.5777,1.6111,1.67,1.752,1.844,1.8647,1.8766,1.9004,1.8846,1.8822,1.9091,1.9209,1.945,2.0147,2.0698,2.1132,2.1313,2.1434,2.1608,-1.2652,-1.2297,-1.2371,-1.2345,-1.2305,-1.2305,-1.2231,-1.1903,0.0,0.0,0.0,-0.6313,-0.5884,-0.5881,-0.5857,-0.584,-0.583,-0.5621,-0.5627,-0.562,-0.5471,-0.5413,-0.5295,-0.3567,-0.1745,-0.0,-0.0,-0.0,-0.0,-0.0,-0.0,-0.0,-0.0,-0.0,-0.0,-0.0,0.1376,0.3956,0.4361,0.4429,0.4226,0.4058,0.4043,0.419,0.41,0.4097,0.419,0.4217,0.4168,0.3976,0.449,0.4985,0.5306,0.6141,0.6853,0.7291,0.7595,0.7557,0.7198,0.7062,0.7064,0.7154,0.7825,0.8179,0.8006,0.8421,0.8954,0.9639,1.0215,1.0557,1.0508,1.0508,1.0547,1.0547,1.082,1.1035,1.1035,1.1341,1.1571,1.1596,1.1636,1.1704,1.1743,1.207,1.2344,1.2383,1.2627,1.2891,1.2929,1.315,1.3705,1.4699,1.5688,1.6471,1.6509,1.6459,1.671,1.7096,1.7679,1.845,1.929,1.9642,1.9705,1.9636,1.969,1.9645,1.9675,1.966,1.998,2.0747,2.0959,2.1213,2.1945,2.2237,2.2265,-1.2797,-1.2335,-1.2596,-1.2532,-1.2305,-1.2305,-1.1768,-1.0932,-0.9788,-0.8703,-0.7702,-0.6649,-0.6196,-0.6266,-0.6214,-0.6152,-0.5989,-0.614,-0.5994,0.0,-0.5623,-0.5493,-0.5287,-0.3527,-0.1741,-0.0,-0.0,-0.0,-0.0,-0.0,-0.0,-0.0,-0.0,-0.0,-0.0,-0.0,0.0837,0.2493,0.3802,0.4467,0.446,0.4507,0.446,0.421,0.4348,0.4348,0.42,0.4362,0.4467,0.4426,0.5035,0.5341,0.5361,0.6241,0.6773,0.6746,0.6994,0.7326,0.773,0.7293,0.7228,0.7728,0.8209,0.8315,0.8005,0.9526,1.0394,1.0118,1.0832,1.143,1.143,1.139,1.1361,1.139,1.1469,1.1518,1.1508,1.1578,1.1661,1.1699,1.1906,1.2122,1.2158,1.25,1.2754,1.2783,1.2812,1.2891,1.3075,1.38,1.4652,1.5365,1.6051,1.6436,1.6534,1.6534,1.671,1.7229,1.7747,1.8263,1.8889,1.9413,1.969,1.9705,1.9705,1.9705,1.9705,1.9705,1.9945,2.0416,2.0748,2.1197,2.1688,2.2061,2.2299,-1.318,-1.283,-1.2915,-1.2919,-1.2772,-1.2614,-1.233,-1.1759,-1.0035,-0.8755,-0.7706,-0.6721,-0.6261,-0.6254,-0.6266,-0.6235,-0.6149,-0.6226,-0.6152,-0.5915,-0.5772,-0.5597,-0.5322,-0.456,-0.2719,-0.0,-0.0,-0.0,-0.0,-0.0,-0.0,-0.0,-0.0,-0.0,-0.0,-0.0,0.0727,0.2176,0.3699,0.4487,0.4463,0.4453,0.4423,0.4362,0.4358,0.4321,0.4362,0.4285,0.4182,0.41,0.4936,0.5382,0.5346,0.6496,0.7168,0.7088,0.7348,0.7595,0.7902,0.7649,0.7595,0.7909,0.8346,0.8685,0.8885,1.0056,1.0727,1.0433,1.1098,1.1596,1.1596,1.1596,1.1596,1.1596,1.1768,1.1924,1.1943,1.2161,1.2315,1.2322,1.2459,1.2567,1.2578,1.2754,1.2891,1.2891,1.2891,1.2891,1.2929,1.3931,1.4801,1.5096,1.5599,1.6095,1.6436,1.6534,1.6595,1.6837,1.7544,1.8092,1.8496,1.9095,1.9654,1.9705,1.9705,1.9705,1.9705,1.9705,1.998,2.0565,2.0829,2.1213,2.1811,2.218,2.2299,-1.3581,-1.34,-1.3313,-1.3273,-1.3173,-1.2932,-1.2782,-1.2363,-1.0299,-0.8852,-0.7854,-0.6813,-0.6261,-0.6261,-0.6261,-0.6257,-0.6321,-0.6294,-0.6238,-0.6067,-0.5925,-0.5728,-0.556,-0.5473,-0.3689,-0.0813,-0.0204,-0.0,-0.0,-0.0,-0.0,-0.0,-0.0,-0.0,-0.0,0.0805,0.1573,0.2255,0.3764,0.4536,0.4512,0.4351,0.4334,0.4395,0.4341,0.4337,0.4411,0.422,0.4066,0.4045,0.5018,0.5596,0.557,0.6875,0.7681,0.7621,0.7796,0.7927,0.7907,0.8045,0.8092,0.8001,0.8542,0.9111,0.969,1.036,1.0876,1.1003,1.1538,1.193,1.1949,1.193,1.191,1.193,1.2158,1.2373,1.2412,1.2676,1.2891,1.2891,1.2891,1.2871,1.2891,1.2891,1.2891,1.2891,1.2891,1.2929,1.3152,1.3967,1.4468,1.496,1.541,1.5952,1.6436,1.6534,1.6637,1.6752,1.7544,1.8171,1.8535,1.9244,1.9654,1.9705,1.9705,1.9705,1.9705,1.9705,2.005,2.0731,2.0959,2.126,2.2077,2.2282,2.2327,-1.4054,-1.4001,-1.3702,-1.3447,-1.3253,-1.316,-1.2628,-1.173,-1.0402,-0.9208,-0.8107,-0.6861,-0.6264,-0.6261,-0.6261,-0.6261,-0.6261,-0.6321,-0.6311,-0.6217,-0.6081,-0.6003,-0.5892,-0.558,-0.4367,-0.2369,-0.0767,-0.0,-0.0,-0.0,-0.0,-0.0,-0.0,-0.0,-0.0,0.3191,0.4011,0.2272,0.391,0.4691,0.4519,0.445,0.4389,0.4217,0.4382,0.4379,0.4267,0.4358,0.4467,0.4551,0.5719,0.6328,0.6278,0.7505,0.8159,0.7896,0.7875,0.7895,0.7928,0.8413,0.8602,0.8416,0.8905,0.9403,0.9758,1.0396,1.1164,1.1827,1.2472,1.2628,1.2754,1.2725,1.2724,1.2646,1.2734,1.2822,1.2803,1.2861,1.2891,1.2891,1.2891,1.2891,1.2891,1.2891,1.2891,1.2891,1.2891,1.3017,1.3467,1.3826,1.4365,1.5276,1.6008,1.6337,1.6534,1.6534,1.6837,1.7626,1.7973,1.8419,1.9058,1.9442,1.9705,1.9705,1.9705,1.9705,1.9705,1.9726,1.998,2.0764,2.1103,2.1291,2.2049,2.2327,2.2327,-1.4112,-1.4095,-1.3991,-1.3841,-1.3741,-1.3533,-1.3175,-1.2657,-1.0693,-0.9649,-0.902,-0.7343,-0.6427,-0.6264,-0.6261,-0.6261,-0.6261,-0.6261,-0.6261,-0.6257,-0.6193,-0.6118,-0.603,-0.5932,-0.4823,-0.2659,-0.0841,-0.0,-0.0,-0.0,-0.0,-0.0,-0.0,-0.0,-0.0,0.3566,0.4947,0.412,0.4539,0.4737,0.4632,0.4511,0.4491,0.4389,0.4484,0.444,0.4375,0.4355,0.4334,0.4381,0.5118,0.5722,0.6062,0.6946,0.7591,0.7839,0.7882,0.7974,0.8196,0.8577,0.8741,0.8631,0.8875,0.9233,0.9747,1.0064,1.0697,1.1749,1.2153,1.2403,1.2832,1.2891,1.2891,1.2891,1.2891,1.2891,1.2891,1.2891,1.2891,1.2891,1.2891,1.2891,1.2891,1.2891,1.2891,1.2891,1.2891,1.3065,1.3296,1.3826,1.4514,1.5062,1.5876,1.6436,1.6534,1.6534,1.6879,1.7435,1.7907,1.8433,1.902,1.953,1.969,1.9705,1.9705,1.9705,1.9705,1.9762,1.996,2.0731,2.1554,2.1915,2.2254,2.2327,2.2327,-1.4088,-1.4088,-1.4088,-1.4088,-1.4082,-1.3886,-1.351,-1.3003,-1.1009,-0.9878,-0.9384,-0.7583,-0.6624,-0.6396,-0.6339,-0.6298,-0.6264,-0.6261,-0.6261,-0.6261,-0.6261,-0.62,-0.6105,-0.6204,-0.509,-0.2802,-0.0932,-0.0,-0.0,-0.0,-0.0,-0.0,-0.0,-0.0,-0.0,0.2746,0.4432,0.5289,0.511,0.4907,0.4735,0.4602,0.4563,0.4522,0.4463,0.4463,0.4512,0.4362,0.4307,0.4304,0.478,0.5424,0.6117,0.6701,0.7356,0.8032,0.8143,0.826,0.849,0.8691,0.8804,0.8804,0.8804,0.9155,0.9724,0.9948,1.0665,1.1953,1.2148,1.2443,1.2793,1.2891,1.2891,1.2891,1.2891,1.2891,1.2891,1.2891,1.2891,1.2891,1.2891,1.2891,1.2891,1.2891,1.2891,1.2891,1.2891,1.3027,1.3248,1.4014,1.4744,1.4971,1.5876,1.6436,1.6534,1.6534,1.6752,1.7188,1.7747,1.8302,1.8817,1.9332,1.969,1.9705,1.9705,1.9726,1.9767,1.9803,2.0162,2.0991,2.1751,2.2237,2.2299,2.2327,2.2327,-1.4088,-1.4088,-1.4088,-1.4088,-1.4088,-1.4082,-1.3372,-1.2372,-1.1091,-0.9866,-0.8772,-0.751,-0.6831,-0.6668,-0.6451,-0.6311,-0.6274,-0.6264,-0.6261,-0.6261,-0.6261,-0.6257,-0.6251,-0.6271,-0.5177,-0.2994,-0.0,-0.0,-0.0,-0.0,-0.0,-0.0,-0.0,-0.0,-0.0,0.0471,0.2058,0.4865,0.5291,0.5172,0.4928,0.4762,0.4613,0.4501,0.4463,0.4463,0.446,0.4512,0.445,0.4508,0.5066,0.5761,0.6538,0.727,0.801,0.8626,0.8705,0.8718,0.8771,0.8791,0.8818,0.8824,0.8844,0.9198,1.0046,1.0238,1.0996,1.2634,1.2707,1.289,1.2897,1.2988,1.2998,1.2978,1.2988,1.2949,1.2978,1.2988,1.2939,1.291,1.29,1.2891,1.2891,1.2891,1.293,1.2939,1.292,1.3144,1.3793,1.4392,1.4994,1.5584,1.6105,1.6534,1.6547,1.6534,1.6723,1.7229,1.7747,1.8249,1.8803,1.9281,1.953,1.9705,1.9705,1.9747,1.9773,2.0116,2.0638,2.1285,2.1853,2.2237,2.2299,2.2327,2.2327,-1.4088,-1.4088,-1.4088,-1.4088,-1.4088,-1.4088,-1.3385,-1.2237,-1.1123,-0.9966,-0.8793,-0.7581,-0.6983,-0.6841,-0.6706,-0.6627,-0.64,-0.6305,-0.6261,-0.6261,-0.6261,-0.6261,-0.6264,-0.6285,-0.5195,-0.3106,-0.0,-0.0,-0.0,-0.0,-0.0,-0.0,-0.0,-0.0,-0.0,0.1147,0.2479,0.3645,0.4604,0.5123,0.5064,0.4911,0.4746,0.4507,0.4505,0.4463,0.4463,0.4463,0.4463,0.4463,0.4728,0.5382,0.6529,0.7759,0.8514,0.8752,0.8804,0.8804,0.8804,0.8804,0.8891,0.9058,0.903,0.9315,0.9784,0.9967,1.0399,1.1335,1.2078,1.2401,1.2929,1.3361,1.3672,1.3682,1.3682,1.3652,1.3584,1.3441,1.3303,1.3233,1.3066,1.2891,1.2988,1.3115,1.3271,1.3311,1.3506,1.3911,1.4589,1.5236,1.5825,1.648,1.6901,1.7074,1.7074,1.6722,1.668,1.7229,1.7747,1.8249,1.8803,1.9317,1.9654,1.9705,1.9705,1.9803,1.9899,2.0351,2.0926,2.1469,2.2032,2.2254,2.2327,2.2327,2.2327,-1.4088,-1.4088,-1.4088,-1.4088,-1.4088,-1.4088,-1.3209,-1.1724,-1.095,-0.9749,-0.8364,-0.7492,-0.7085,-0.6997,-0.6949,-0.6824,-0.6607,-0.6424,-0.6332,-0.6322,-0.6359,-0.6261,-0.6264,-0.6285,-0.5214,-0.3057,-0.0986,-0.0,-0.0,-0.0,-0.0,-0.0,-0.0,-0.0,-0.0,0.2364,0.3578,0.3825,0.4688,0.517,0.5196,0.506,0.4924,0.4826,0.4679,0.4613,0.4609,0.4613,0.4609,0.4656,0.4808,0.5614,0.7025,0.8263,0.8991,0.9065,0.8908,0.8902,0.903,0.9092,0.9178,0.9352,0.9336,0.9506,0.978,1.0048,1.0486,1.1062,1.2077,1.2885,1.3345,1.4034,1.4379,1.4165,1.4087,1.4087,1.4111,1.3846,1.3749,1.3674,1.3506,1.333,1.3311,1.3535,1.3672,1.3711,1.3922,1.4367,1.5081,1.576,1.6489,1.7157,1.7466,1.7631,1.7639,1.7413,1.6823,1.7157,1.7909,1.8375,1.8884,1.9398,1.9794,1.975,1.9777,1.9874,2.0177,2.0649,2.1134,2.1658,2.2032,2.2282,2.2327,2.2327,2.2316,-1.4088,-1.4088,-1.4088,-1.4088,-1.4088,-1.3997,-1.2693,-1.0869,-1.0524,-0.9226,-0.7489,-0.7139,-0.7132,-0.7105,-0.6917,-0.6929,-0.6861,-0.6624,-0.6478,-0.6444,-0.6332,-0.6271,-0.6261,-0.6281,-0.5021,-0.2807,-0.0918,-0.0,-0.0,-0.0,-0.0,-0.0,-0.0,-0.0,-0.0,0.3117,0.5087,0.5192,0.5302,0.5355,0.5408,0.5206,0.5202,0.5318,0.5058,0.4918,0.4918,0.4904,0.4877,0.4924,0.5469,0.6548,0.7908,0.8821,0.9365,0.9495,0.9118,0.9131,0.9575,0.9684,0.9728,0.9686,0.9686,0.9806,1.0114,1.0763,1.1323,1.1768,1.3057,1.4073,1.4173,1.4809,1.5019,1.4336,1.4243,1.4243,1.4184,1.4116,1.4077,1.4048,1.397,1.4048,1.4058,1.4111,1.4141,1.4247,1.4263,1.4707,1.5615,1.6258,1.6631,1.7337,1.7932,1.8182,1.8204,1.8116,1.7463,1.7155,1.7932,1.8625,1.9162,1.9671,2.0229,2.0288,2.0064,2.0171,2.0506,2.0942,2.1368,2.1811,2.2094,2.2361,2.2344,2.2333,2.2383,-1.4088,-1.4088,-1.4088,-1.4088,-1.3997,-1.3203,-1.1992,-1.0524,-0.9836,-0.8536,-0.7316,-0.7139,-0.7139,-0.7132,-0.7004,-0.7075,-0.7058,-0.6868,-0.6678,-0.6498,-0.6427,-0.6349,-0.6278,-0.6285,-0.4474,-0.141,-0.039,-0.0,-0.0,-0.0,-0.0,-0.0,-0.0,-0.0,-0.0,0.2322,0.4056,0.5259,0.5372,0.5428,0.5428,0.5315,0.5356,0.5353,0.5308,0.5226,0.5213,0.503,0.4925,0.4925,0.5636,0.6783,0.8265,0.9144,0.9586,0.9666,0.9557,0.9485,0.9686,1.0096,1.0193,0.9999,0.998,1.012,1.0492,1.1185,1.1691,1.1966,1.321,1.4213,1.4332,1.4923,1.5206,1.5029,1.5019,1.4961,1.4902,1.4736,1.4412,1.4138,1.4111,1.4087,1.4209,1.4346,1.4845,1.5161,1.5164,1.5485,1.7073,1.745,1.8088,1.8855,1.8921,1.8769,1.8756,1.8727,1.8414,1.8235,1.8758,1.9182,1.9632,2.0127,2.0659,2.0805,2.0595,2.0681,2.0989,2.137,2.1861,2.2082,2.2411,2.2479,2.2412,2.2535,2.2806,-1.4088,-1.4088,-1.4088,-1.4088,-1.3997,-1.2766,-1.1638,-1.0524,-0.941,-0.8189,-0.7316,-0.7139,-0.7139,-0.7139,-0.7139,-0.7139,-0.7041,-0.7044,-0.6875,-0.6641,-0.6505,-0.6476,-0.644,-0.6298,-0.4086,-0.0,-0.0,-0.0,-0.0,-0.0,-0.0,-0.0,-0.0,-0.0,0.1756,0.2464,0.3578,0.5119,0.5372,0.5428,0.5428,0.5428,0.5428,0.5428,0.5428,0.5428,0.5348,0.5176,0.5084,0.5258,0.6104,0.7471,0.9005,0.9583,0.9893,0.9993,1.0013,1.002,1.0073,1.0382,1.0551,1.0377,1.0581,1.0643,1.0885,1.1531,1.2166,1.2057,1.3228,1.4213,1.4273,1.4932,1.5352,1.541,1.5381,1.542,1.5371,1.5186,1.4934,1.4722,1.4661,1.4564,1.4687,1.5119,1.5563,1.6019,1.6071,1.652,1.8086,1.846,1.8996,1.9414,1.9459,1.9321,1.9284,1.9293,1.9281,1.9476,1.986,2.0091,2.0382,2.0885,2.1395,2.1437,2.1295,2.1661,2.2013,2.2297,2.2685,2.2778,2.297,2.3257,2.3477,2.3545,2.3744,-1.4088,-1.4088,-1.4088,-1.3997,-1.3737,-1.2589,-1.1466,-1.0346,-0.9231,-0.8105,-0.7228,-0.7139,-0.7139,-0.7139,-0.7139,-0.7139,-0.7139,-0.7129,-0.7054,-0.6875,-0.6668,-0.6541,-0.6461,-0.5677,-0.3228,-0.0,-0.0,-0.0,-0.0,-0.0,-0.0,-0.0,-0.0,0.1848,0.4133,0.3719,0.3849,0.5212,0.5449,0.5428,0.5428,0.5428,0.5428,0.5428,0.5428,0.5428,0.5422,0.5522,0.5599,0.5734,0.6935,0.8419,0.9756,1.0144,1.0261,1.053,1.0604,1.0564,1.0591,1.053,1.0683,1.0746,1.1238,1.1531,1.1233,1.2266,1.2857,1.2378,1.3536,1.4332,1.451,1.4991,1.5352,1.542,1.542,1.542,1.542,1.5391,1.5264,1.5342,1.5391,1.5391,1.5283,1.584,1.6193,1.6578,1.6772,1.751,1.8431,1.8903,1.9049,1.9285,1.9622,1.9648,1.9535,1.99,1.995,2.0462,2.0889,2.1182,2.1354,2.1813,2.2149,2.2179,2.2201,2.2623,2.2837,2.3025,2.3456,2.3799,2.4069,2.4438,2.4489,2.4374,2.4397,-1.4088,-1.4088,-1.4088,-1.3561,-1.2681,-1.1558,-1.0423,-0.9291,-0.8093,-0.7489,-0.7139,-0.7139,-0.7139,-0.7139,-0.7139,-0.7139,-0.7139,-0.7139,-0.7041,-0.6977,-0.6823,-0.6624,-0.5644,-0.0,-0.0,-0.0,-0.0,-0.0,-0.0,-0.0,-0.0,-0.0,-0.0,0.211,0.5264,0.5041,0.499,0.5511,0.548,0.5428,0.5428,0.5428,0.5428,0.5428,0.5428,0.5428,0.5491,0.6009,0.67,0.7352,0.8285,0.9313,1.0332,1.0468,1.0461,1.0591,1.0618,1.0618,1.0618,1.0618,1.087,1.1406,1.1717,1.195,1.2389,1.3304,1.369,1.3753,1.4517,1.505,1.5118,1.5235,1.542,1.542,1.542,1.542,1.542,1.542,1.542,1.542,1.542,1.542,1.5526,1.5748,1.6244,1.7013,1.7544,1.7893,1.8903,1.9359,1.9451,1.9567,1.9761,1.9786,1.9927,2.0283,2.0752,2.1336,2.1879,2.2423,2.2643,2.2944,2.3122,2.3197,2.3187,2.3447,2.3391,2.3419,2.3983,2.4797,2.4746,2.4896,2.4862,2.4794,2.49,-1.4088,-1.4082,-1.3561,-1.2942,-1.2066,-1.0611,-0.9474,-0.8769,-0.7654,-0.7139,-0.7139,-0.7139,-0.7139,-0.7139,-0.7139,-0.7139,-0.7139,-0.7139,-0.7139,-0.6858,-0.5903,-0.5777,-0.5106,-0.0,-0.0,-0.0,-0.0,-0.0,-0.0,-0.0,-0.0,-0.0,0.1782,0.3526,0.461,0.5466,0.5547,0.5599,0.5514,0.5428,0.5428,0.5428,0.5428,0.5428,0.5428,0.5428,0.5557,0.6597,0.747,0.8038,0.8846,0.9722,1.0498,1.0618,1.0618,1.0618,1.0618,1.0618,1.0618,1.0618,1.0982,1.1648,1.2012,1.2504,1.3061,1.3965,1.4681,1.4308,1.4954,1.5332,1.542,1.542,1.542,1.542,1.542,1.542,1.542,1.542,1.542,1.542,1.541,1.5584,1.5806,1.6083,1.6856,1.7786,1.8382,1.8915,1.9579,1.9747,1.9798,1.9798,1.9798,1.985,2.0042,2.0446,2.1113,2.1744,2.25,2.3143,2.3334,2.3595,2.3634,2.3648,2.3925,2.4144,2.4104,2.4372,2.5196,2.5676,2.5439,2.5389,2.549,2.5544,2.5586,-1.4004,-1.3822,-1.2766,-1.2157,-1.1552,-0.984,-0.8877,-0.8511,-0.757,-0.7139,-0.7139,-0.7139,-0.7139,-0.7139,-0.7139,-0.7139,-0.7139,-0.7139,-0.7143,-0.6609,-0.5505,-0.4846,-0.4435,-0.1667,-0.0,-0.0,-0.0,-0.0,-0.0,-0.0,-0.0,-0.0,0.3929,0.4982,0.4683,0.5169,0.5644,0.5594,0.5518,0.5432,0.5428,0.5428,0.5428,0.5428,0.5428,0.5557,0.5947,0.6985,0.8037,0.8161,0.9005,0.9849,1.0555,1.0618,1.0618,1.0618,1.0618,1.0618,1.0688,1.0821,1.1247,1.1965,1.2749,1.3183,1.3606,1.4628,1.5051,1.451,1.5032,1.5342,1.542,1.542,1.542,1.542,1.542,1.542,1.542,1.542,1.542,1.542,1.542,1.5758,1.6368,1.709,1.7731,1.8155,1.8679,1.8895,1.9426,1.9747,1.9798,1.9798,1.985,1.9862,2.0144,2.0534,2.128,2.2072,2.2876,2.3465,2.3465,2.361,2.3711,2.3918,2.4405,2.4828,2.5121,2.5612,2.6286,2.642,2.6099,2.6336,2.6589,2.6559,2.6592,-1.3555,-1.2674,-1.2413,-1.13,-0.9753,-0.9065,-0.836,-0.7482,-0.7228,-0.7139,-0.7139,-0.7139,-0.7139,-0.7139,-0.7139,-0.7139,-0.7139,-0.7143,-0.7153,-0.6999,-0.6732,-0.4104,-0.0,-0.0,-0.0,-0.0,-0.0,-0.0,-0.0,-0.0,-0.0,-0.0,0.3932,0.6064,0.5705,0.5613,0.5891,0.5772,0.5644,0.5519,0.5432,0.5439,0.5439,0.5428,0.5425,0.5815,0.6465,0.7442,0.8296,0.9017,0.9792,1.0364,1.0555,1.0618,1.0618,1.0618,1.0618,1.0618,1.0814,1.1604,1.2491,1.2712,1.3364,1.4204,1.4874,1.5108,1.5342,1.5177,1.5332,1.542,1.542,1.542,1.542,1.542,1.542,1.542,1.542,1.542,1.542,1.542,1.5478,1.57,1.6425,1.6765,1.7457,1.837,1.8684,1.8758,1.9196,1.9734,1.9798,1.9798,2.0003,2.0105,2.0521,2.1002,2.1852,2.2455,2.3172,2.3595,2.3595,2.3797,2.3955,2.439,2.4958,2.5317,2.5577,2.6087,2.659,2.6657,2.6708,2.6758,2.6858,2.7115,2.74,-1.2595,-1.1466,-1.095,-1.0009,-0.889,-0.8277,-0.7665,-0.7228,-0.7139,-0.7139,-0.7139,-0.7139,-0.7139,-0.7139,-0.7139,-0.7139,-0.7143,-0.7153,-0.7132,-0.7129,-0.6871,-0.4441,-0.0,-0.0,-0.0,-0.0,-0.0,-0.0,-0.0,-0.0,-0.0,0.2671,0.4403,0.5263,0.6129,0.6119,0.598,0.5901,0.5751,0.5651,0.5526,0.55,0.5483,0.5572,0.5885,0.6404,0.6719,0.7962,0.8759,0.942,1.0117,1.0618,1.0618,1.0618,1.0618,1.0618,1.0618,1.0618,1.0947,1.1784,1.2661,1.3017,1.3726,1.4569,1.5177,1.542,1.542,1.542,1.541,1.542,1.542,1.542,1.542,1.542,1.542,1.542,1.542,1.542,1.542,1.5468,1.5748,1.6312,1.6765,1.709,1.7907,1.9085,1.9242,1.9325,1.9337,1.9798,1.9798,1.9901,2.0156,2.0484,2.089,2.1506,2.2438,2.295,2.3363,2.3595,2.3595,2.3925,2.4265,2.4748,2.5218,2.5492,2.5799,2.6315,2.6691,2.6691,2.6725,2.6825,2.7036,2.7378,2.7613,-1.1381,-1.0265,-0.9323,-0.8807,-0.8452,-0.7577,-0.7139,-0.7139,-0.7139,-0.7139,-0.7139,-0.7139,-0.7139,-0.7139,-0.7139,-0.7132,-0.6841,-0.5855,-0.5463,-0.7073,-0.5619,-0.3335,-0.0,-0.0,-0.0,-0.0,-0.0,-0.0,-0.0,-0.0,-0.0,0.5123,0.4628,0.5015,0.6038,0.6177,0.6007,0.5966,0.5905,0.5775,0.5616,0.5583,0.5562,0.5911,0.6474,0.712,0.7507,0.8484,0.9344,0.949,1.0187,1.0498,1.0618,1.0618,1.0618,1.0618,1.0618,1.0744,1.1122,1.1941,1.2821,1.3199,1.3965,1.4628,1.5225,1.542,1.542,1.542,1.542,1.542,1.542,1.542,1.542,1.542,1.542,1.542,1.542,1.5468,1.5642,1.569,1.6083,1.6652,1.7468,1.807,1.8939,1.9579,1.9747,1.9798,1.9798,1.985,1.985,2.0003,2.0245,2.1077,2.152,2.2072,2.2995,2.3231,2.3595,2.3621,2.3679,2.4006,2.4426,2.4941,2.5374,2.5642,2.598,2.6436,2.6657,2.6691,2.6841,2.7004,2.7286,2.7678,2.785,-1.0183,-0.9148,-0.8978,-0.8364,-0.7489,-0.7139,-0.7139,-0.7139,-0.7139,-0.7139,-0.7139,-0.7139,-0.7139,-0.7139,-0.7136,-0.7085,-0.6384,-0.4086,-0.3535,-0.5278,-0.0,-0.0,-0.0,-0.0,-0.0,-0.0,-0.0,-0.0,-0.0,-0.0,-0.0,0.5283,0.5824,0.6045,0.6116,0.6261,0.611,0.6078,0.6006,0.5858,0.5671,0.57,0.5916,0.6354,0.6994,0.7777,0.8619,0.9075,0.9658,1.0301,1.0498,1.0555,1.0618,1.0618,1.0618,1.0618,1.0681,1.0919,1.1538,1.2707,1.3554,1.4061,1.4688,1.5108,1.5352,1.542,1.542,1.542,1.542,1.542,1.542,1.542,1.542,1.542,1.5468,1.5468,1.5584,1.5921,1.6368,1.6472,1.6698,1.6968,1.7907,1.8673,1.9202,1.9592,1.9747,1.9798,1.9798,1.9862,1.9914,2.0105,2.0396,2.1355,2.2253,2.2846,2.3465,2.345,2.3636,2.3655,2.3796,2.4107,2.4552,2.5297,2.5718,2.5974,2.6297,2.659,2.6725,2.6825,2.6987,2.721,2.7572,2.7918,2.8076,-0.9501,-0.9082,-0.8281,-0.7665,-0.7139,-0.7139,-0.7139,-0.7139,-0.7139,-0.7139,-0.7139,-0.7139,-0.7139,-0.7122,-0.7152,-0.7149,-0.584,-0.2212,-0.1599,-0.2576,-0.0,-0.0,-0.0,-0.0,-0.0,-0.0,-0.0,-0.0,-0.0,-0.0,-0.0,0.4077,0.5649,0.6281,0.6271,0.6261,0.6217,0.6173,0.6123,0.6033,0.5858,0.6018,0.6443,0.6779,0.7702,0.8554,0.9139,0.9849,1.0168,1.0491,1.0555,1.0618,1.0618,1.0618,1.0618,1.0681,1.0989,1.1344,1.195,1.3103,1.401,1.4222,1.4932,1.5352,1.542,1.542,1.542,1.542,1.542,1.542,1.542,1.541,1.542,1.5468,1.569,1.5979,1.6151,1.6641,1.7079,1.7468,1.7743,1.807,1.834,1.8992,1.9371,1.9643,1.9798,1.985,1.985,2.0003,2.0169,2.066,2.1077,2.1876,2.2772,2.3187,2.3595,2.3638,2.3822,2.3838,2.4147,2.4563,2.5224,2.5999,2.6247,2.626,2.6453,2.6691,2.6825,2.6939,2.7147,2.7409,2.7805,2.8103,2.8286,-0.8875,-0.8801,-0.7574,-0.7054,-0.7058,-0.7001,-0.7024,-0.7048,-0.7051,-0.7099,-0.7058,-0.7075,-0.7068,-0.685,-0.6592,-0.6492,-0.6476,-0.2167,-0.0,-0.0,-0.0,-0.0,-0.0,-0.0,-0.0,-0.0,-0.0,-0.0,-0.0,-0.0,-0.0,0.391,0.5799,0.6271,0.6264,0.6261,0.6261,0.6261,0.6254,0.6159,0.618,0.6557,0.7009,0.7113,0.8506,0.9338,0.9722,1.0174,1.0428,1.0555,1.0618,1.0618,1.0618,1.0618,1.0618,1.0744,1.1351,1.1772,1.2381,1.3295,1.4282,1.4569,1.505,1.5294,1.542,1.542,1.542,1.542,1.542,1.542,1.541,1.5575,1.5642,1.5816,1.6312,1.6754,1.6922,1.7302,1.7895,1.8328,1.8768,1.8992,1.9097,1.9214,1.9643,1.9695,1.9798,2.0105,2.0156,2.0446,2.0746,2.1348,2.1913,2.2611,2.3186,2.3363,2.3595,2.3595,2.4006,2.4261,2.4642,2.5109,2.5824,2.6369,2.6374,2.6417,2.6607,2.6758,2.6873,2.7051,2.7272,2.7619,2.8029,2.8394,2.8621,-0.7824,-0.7177,-0.684,-0.6753,-0.6867,-0.6902,-0.694,-0.6953,-0.7034,-0.6987,-0.6888,-0.6885,-0.6881,-0.6531,-0.4979,-0.5421,-0.4854,-0.0,-0.0,-0.0,-0.0,-0.0,-0.0,-0.0,-0.0,-0.0,-0.0,-0.0,0.3538,0.1802,0.2267,0.5168,0.5876,0.6271,0.6261,0.6261,0.6261,0.6261,0.6335,0.6256,0.6222,0.6726,0.7455,0.8071,0.8881,0.967,1.0251,1.0491,1.0555,1.0618,1.0618,1.0618,1.0618,1.0618,1.0618,1.0807,1.1358,1.2143,1.2749,1.3726,1.4569,1.4991,1.5352,1.542,1.542,1.542,1.542,1.542,1.542,1.5625,1.5771,1.6077,1.6275,1.6715,1.7175,1.7512,1.7634,1.8124,1.8661,1.8874,1.915,1.9423,1.9631,1.9695,1.9798,1.9798,1.985,2.0156,2.0523,2.0898,2.1465,2.2142,2.2452,2.3054,2.3316,2.3537,2.3595,2.3595,2.4158,2.4648,2.5098,2.5577,2.6019,2.645,2.6503,2.6606,2.6791,2.6906,2.6954,2.7224,2.7589,2.7936,2.829,2.8608,2.8863,-0.8239,-0.8621,-0.7281,-0.6615,-0.6539,-0.6689,-0.6757,-0.6802,-0.687,-0.6824,-0.6812,-0.6763,-0.6725,-0.6456,-0.5782,-0.4568,-0.0,-0.0,-0.0,-0.0,-0.0,-0.0,-0.0,-0.0,-0.0,0.3066,0.3618,-0.0,0.5268,0.4945,0.4859,0.5799,0.6274,0.6264,0.6261,0.6261,0.6261,0.6409,0.6773,0.7071,0.7282,0.8112,0.8885,0.9058,0.9808,1.0329,1.0524,1.0618,1.0618,1.0618,1.0618,1.0856,1.1142,1.1329,1.1469,1.2027,1.2749,1.2967,1.2813,1.4058,1.4864,1.5235,1.542,1.542,1.542,1.5449,1.5576,1.5771,1.5547,1.5802,1.6526,1.6936,1.7429,1.7893,1.8385,1.8539,1.8709,1.8987,1.9371,1.9475,1.954,1.9695,1.9798,1.9798,1.9798,1.9798,1.9952,2.0295,2.0924,2.1621,2.224,2.3024,2.3201,2.336,2.3477,2.3595,2.3638,2.3794,2.4552,2.5036,2.5512,2.5963,2.6382,2.6674,2.6843,2.6927,2.6989,2.7123,2.727,2.759,2.7936,2.8237,2.8558,2.8725,2.8952,-0.8125,-0.9057,-0.733,-0.6505,-0.6342,-0.6542,-0.6649,-0.6698,-0.6689,-0.6664,-0.6685,-0.6586,-0.6623,-0.6659,-0.6398,-0.0,-0.0,-0.0,-0.0,-0.0,-0.0,-0.0,-0.0,-0.0,0.22,0.6247,0.5686,0.5993,0.6129,0.6045,0.5886,0.6271,0.6268,0.6261,0.6261,0.6335,0.6412,0.6857,0.7375,0.7761,0.8175,0.9483,0.985,1.0071,1.0466,1.0855,1.0608,1.0618,1.0618,1.0624,1.0863,1.1274,1.1596,1.1927,1.2258,1.2818,1.3485,1.3485,1.3391,1.4064,1.5157,1.542,1.542,1.542,1.5449,1.5459,1.5644,1.6016,1.6327,1.6869,1.7641,1.7965,1.8684,1.9287,1.9778,1.9893,1.9922,1.9966,1.983,1.9643,1.9695,1.9747,1.9798,1.9798,1.9798,1.985,2.0042,2.0446,2.1256,2.2211,2.2747,2.3436,2.345,2.3492,2.3608,2.3638,2.3681,2.4032,2.4792,2.5329,2.5782,2.6184,2.6555,2.686,2.708,2.7144,2.7152,2.7347,2.7568,2.7877,2.8237,2.8533,2.8791,2.8929,2.9104,-0.6504,-0.6525,-0.6373,-0.6305,-0.6315,-0.643,-0.651,-0.6507,-0.6603,-0.6616,-0.6513,-0.64,-0.6359,-0.6192,-0.5562,-0.3634,-0.0,-0.0,-0.0,-0.0,-0.0,-0.0,-0.0,-0.0,0.2357,0.5442,0.6159,0.6302,0.6285,0.6278,0.6271,0.6264,0.6261,0.6261,0.6335,0.6486,0.6857,0.7375,0.804,0.858,0.918,1.003,1.0361,1.0233,1.0587,1.0862,1.0588,1.0631,1.0744,1.0744,1.1226,1.1819,1.2212,1.2671,1.3053,1.3485,1.3965,1.3963,1.385,1.4427,1.5216,1.542,1.5469,1.5576,1.5771,1.5908,1.6081,1.6475,1.7093,1.7767,1.8533,1.916,1.9925,2.0521,2.0925,2.0883,2.0761,2.0586,2.0385,1.9974,1.9874,1.9987,2.0028,2.0105,2.0118,2.0156,2.0868,2.1259,2.1974,2.2795,2.3171,2.3551,2.3551,2.3623,2.3709,2.3852,2.4074,2.4511,2.5182,2.5577,2.5921,2.6332,2.6708,2.686,2.7046,2.7208,2.7438,2.777,2.8058,2.8244,2.8471,2.8725,2.885,2.8948,2.9197,-0.6261,-0.6261,-0.6261,-0.6261,-0.6268,-0.6318,-0.639,-0.6362,-0.6458,-0.6462,-0.6352,-0.6298,-0.6315,-0.5605,-0.3224,-0.1728,-0.0,-0.0,-0.0,-0.0,-0.0,-0.0,-0.0,0.2277,0.4249,0.4792,0.55,0.6288,0.6271,0.6271,0.6264,0.6261,0.6261,0.6261,0.6412,0.6861,0.7452,0.8045,0.9,0.9905,1.0237,1.1089,1.1408,1.1198,1.1054,1.1122,1.0855,1.0648,1.0898,1.1296,1.1663,1.2304,1.302,1.3528,1.3906,1.4273,1.4688,1.465,1.4495,1.5012,1.5352,1.5498,1.5684,1.6049,1.6414,1.6569,1.7365,1.7874,1.8161,1.8649,2.0385,2.0709,2.1056,2.1734,2.1952,2.1825,2.1594,2.1305,2.1029,2.0627,2.0439,2.0401,2.0422,2.0425,2.0462,2.056,2.1369,2.2128,2.274,2.3157,2.3421,2.3595,2.3595,2.3837,2.3964,2.4241,2.4552,2.5028,2.554,2.5835,2.6156,2.6418,2.6725,2.6911,2.7163,2.7506,2.7835,2.8255,2.8464,2.8515,2.8658,2.8863,2.8943,2.9115,2.9588,-0.6261,-0.6261,-0.6261,-0.6261,-0.6261,-0.6261,-0.6261,-0.6261,-0.6271,-0.6278,-0.6295,-0.6318,-0.5445,-0.3857,-0.1728,-0.0,-0.0,-0.0,-0.0,-0.0,-0.0,-0.0,-0.0,0.3379,0.5277,0.4621,0.5246,0.6271,0.6261,0.6261,0.6261,0.6261,0.6261,0.6261,0.6486,0.7238,0.8053,0.9025,0.9836,1.1021,1.1236,1.1829,1.2072,1.1813,1.1643,1.1416,1.1262,1.1142,1.1411,1.1914,1.2414,1.313,1.3846,1.4451,1.4874,1.5177,1.542,1.542,1.543,1.5694,1.5684,1.5723,1.6417,1.6929,1.7347,1.7595,1.8554,1.9346,1.9331,1.9913,2.1928,2.1837,2.2005,2.2583,2.2533,2.2447,2.2133,2.1845,2.1594,2.1305,2.1184,2.1066,2.1681,2.1819,2.1817,2.1759,2.1846,2.2543,2.3054,2.3377,2.3508,2.3595,2.3595,2.3921,2.4282,2.4592,2.495,2.5449,2.5888,2.6123,2.6401,2.6657,2.6859,2.7057,2.7388,2.7799,2.8282,2.8791,2.8801,2.8669,2.8907,2.9153,2.9717,2.9981,3.0504,-0.6261,-0.6261,-0.6261,-0.6261,-0.6261,-0.6261,-0.6261,-0.6264,-0.6278,-0.6298,-0.6162,-0.6009,-0.3857,-0.0,-0.0,-0.0,-0.0,-0.0,-0.0,-0.0,-0.0,-0.0,-0.0,0.3932,0.5668,0.6136,0.6281,0.6268,0.6261,0.6261,0.6261,0.6412,0.649,0.649,0.649,0.7326,0.8836,1.0409,1.0703,1.1385,1.1916,1.2224,1.2144,1.1991,1.1837,1.163,1.1567,1.1852,1.2143,1.2549,1.3434,1.4065,1.4432,1.4961,1.5294,1.5352,1.542,1.542,1.5459,1.6218,1.6376,1.6296,1.6992,1.7885,1.8222,1.8908,1.9832,2.0538,2.085,2.1404,2.2175,2.2482,2.2847,2.3002,2.2927,2.2827,2.2573,2.241,2.2171,2.2052,2.1819,2.1843,2.2737,2.3363,2.3396,2.322,2.2821,2.2963,2.3467,2.3508,2.3595,2.3681,2.3724,2.4142,2.4592,2.4973,2.5373,2.5888,2.626,2.6485,2.6741,2.7063,2.7211,2.7351,2.8032,2.885,2.914,2.9403,2.9514,2.9643,2.9362,2.9577,3.0234,3.0953,3.1544,-0.6261,-0.6261,-0.6261,-0.6261,-0.6261,-0.6261,-0.6261,-0.6268,-0.6302,-0.6247,-0.5608,-0.362,-0.1649,-0.0,-0.0,-0.0,-0.0,-0.0,-0.0,-0.0,-0.0,-0.0,0.3538,0.424,0.5179,0.5967,0.6274,0.6264,0.6261,0.6261,0.6261,0.6335,0.7026,0.7249,0.7778,0.8756,1.0335,1.0864,1.1391,1.2003,1.2231,1.2298,1.2245,1.2124,1.1977,1.1915,1.2011,1.2376,1.2859,1.3298,1.4247,1.4854,1.5106,1.5605,1.5362,1.543,1.5439,1.5566,1.6017,1.6733,1.7173,1.7199,1.7709,1.8714,1.923,1.9909,2.0802,2.1531,2.1784,2.2261,2.2689,2.2871,2.3053,2.3053,2.3075,2.3002,2.2899,2.284,2.2786,2.2778,2.2667,2.3163,2.3927,2.4566,2.4713,2.4655,2.4273,2.3893,2.4179,2.3775,2.361,2.3767,2.3921,2.4389,2.4855,2.5297,2.5746,2.6245,2.6605,2.6859,2.7131,2.7487,2.8113,2.8563,2.9273,2.9953,3.0233,3.0472,3.0661,3.0687,3.0667,3.0678,3.1201,3.2012,3.2751,-0.6261,-0.6261,-0.6261,-0.6261,-0.6261,-0.6264,-0.6271,-0.6291,-0.6247,-0.5614,-0.37,-0.0,-0.0,-0.0,-0.0,-0.0,-0.0,-0.0,-0.0,-0.0,-0.0,0.3698,0.4961,0.5023,0.5488,0.6116,0.6268,0.6261,0.6261,0.6261,0.6806,0.7504,0.7944,0.8542,0.9135,1.0104,1.0938,1.1391,1.1996,1.2231,1.2305,1.2305,1.2305,1.2245,1.2144,1.2096,1.2451,1.2954,1.3613,1.4205,1.4842,1.542,1.5699,1.5635,1.5498,1.5576,1.5523,1.5834,1.6611,1.7332,1.7656,1.7829,1.8721,1.9635,2.0506,2.1218,2.1906,2.247,2.2506,2.2641,2.2944,2.3125,2.3125,2.3125,2.3125,2.3113,2.3173,2.3148,2.3386,2.3416,2.3715,2.4354,2.5112,2.5604,2.6066,2.5886,2.5702,2.5285,2.4792,2.4297,2.3932,2.4055,2.4271,2.4697,2.5182,2.5652,2.6139,2.6624,2.6996,2.7351,2.7709,2.8169,2.8952,2.9715,3.0168,3.0689,3.1283,3.1626,3.1806,3.214,3.244,3.2418,3.2414,3.292,3.3634,-0.6251,-0.6254,-0.6261,-0.6261,-0.6261,-0.6274,-0.6295,-0.6247,-0.6015,-0.3706,-0.0,-0.0,-0.0,-0.0,-0.0,-0.0,-0.0,-0.0,-0.0,-0.0,-0.0,0.5608,0.6074,0.6051,0.596,0.6112,0.6268,0.6261,0.6257,0.6563,0.7504,0.8823,0.9165,0.9825,1.049,1.0938,1.1471,1.1922,1.215,1.2305,1.2305,1.2305,1.2305,1.2352,1.2464,1.2604,1.3107,1.3917,1.4307,1.4821,1.5386,1.5628,1.5681,1.5488,1.5732,1.5885,1.567,1.6284,1.7129,1.778,1.8647,1.9091,1.9997,2.1003,2.1631,2.22,2.2738,2.2944,2.2884,2.2944,2.3125,2.3125,2.3125,2.3185,2.3245,2.3258,2.333,2.345,2.3819,2.4105,2.4446,2.5079,2.6107,2.6747,2.6778,2.6803,2.6561,2.6163,2.5651,2.4911,2.4602,2.4502,2.4764,2.5044,2.5519,2.6092,2.6578,2.708,2.7638,2.8046,2.8424,2.9041,3.0012,3.0702,3.0919,3.1397,3.2211,3.2716,3.2988,3.3339,3.3543,3.3695,3.3525,3.3637,3.4208,-0.6177,-0.6266,-0.6304,-0.6271,-0.6274,-0.6291,-0.6312,-0.6006,-0.3306,-0.0,-0.0,-0.0,-0.0,-0.0,-0.0,-0.0,-0.0,-0.0,-0.0,0.3936,0.5523,0.6071,0.6295,0.6281,0.6271,0.6264,0.6261,0.6335,0.649,0.6868,0.8178,0.9732,1.0067,1.0875,1.1471,1.1848,1.2077,1.215,1.2305,1.2305,1.2305,1.2305,1.2305,1.2378,1.2952,1.3353,1.448,1.5238,1.5627,1.5958,1.6515,1.6836,1.6894,1.654,1.6454,1.6451,1.6424,1.673,1.7534,1.8955,1.9911,2.0204,2.0974,2.1491,2.2063,2.2567,2.3065,2.3125,2.3125,2.3125,2.3125,2.3125,2.3185,2.3365,2.3543,2.3767,2.3878,2.4256,2.4593,2.4939,2.5287,2.5969,2.7034,2.7195,2.7255,2.744,2.736,2.7031,2.6442,2.5727,2.5373,2.5274,2.5195,2.5519,2.6081,2.6645,2.709,2.7587,2.8215,2.8935,2.9627,3.0331,3.1211,3.1786,3.2115,3.2645,3.3296,3.3607,3.366,3.4031,3.4285,3.4509,3.4677,3.4626,3.4649,-0.6016,-0.6184,-0.6204,-0.6218,-0.6294,-0.6288,-0.5523,-0.354,-0.1021,-0.0,-0.0,-0.0,-0.0,-0.0,-0.0,-0.0,-0.0,-0.0,0.2042,0.5204,0.6318,0.6298,0.6281,0.6271,0.6268,0.6261,0.6261,0.6261,0.6563,0.7403,0.8637,1.0116,1.0669,1.1397,1.1996,1.2157,1.2231,1.2305,1.2305,1.2305,1.2305,1.2305,1.2305,1.2519,1.323,1.4527,1.5944,1.6695,1.6522,1.6482,1.693,1.7239,1.721,1.6963,1.6987,1.6977,1.7203,1.7321,1.7935,1.9438,2.0238,2.0809,2.1428,2.2002,2.2384,2.2884,2.3065,2.3125,2.3125,2.3125,2.3125,2.3125,2.3365,2.3603,2.4002,2.4394,2.474,2.5114,2.5479,2.5873,2.6376,2.6923,2.7408,2.7509,2.761,2.7645,2.7799,2.7913,2.7287,2.6473,2.6267,2.6182,2.6,2.5961,2.6612,2.7207,2.7582,2.8216,2.9126,2.9885,3.0698,3.1517,3.2276,3.2922,3.3432,3.3723,3.3827,3.4018,3.4149,3.451,3.4794,3.4923,3.504,3.5136,3.5211,-0.5861,-0.5864,-0.5663,-0.5335,-0.578,-0.5979,-0.4064,-0.0,-0.0,-0.0,-0.0,-0.0,-0.0,-0.0,-0.0,-0.0,-0.0,-0.0,0.3062,0.6244,0.6305,0.6288,0.6274,0.6264,0.6261,0.6261,0.6335,0.6412,0.6791,0.7855,0.9306,1.0338,1.0824,1.1545,1.215,1.2305,1.2305,1.2305,1.2305,1.2305,1.2305,1.2305,1.2291,1.2492,1.3557,1.4985,1.6893,1.7226,1.6542,1.6541,1.6796,1.7206,1.7259,1.7246,1.7383,1.748,1.7667,1.7957,1.8449,1.9722,2.0499,2.1001,2.1491,2.2249,2.2823,2.3005,2.3065,2.3125,2.3125,2.3125,2.3125,2.3412,2.3708,2.4105,2.4624,2.5007,2.5481,2.5883,2.6247,2.6614,2.6916,2.7444,2.7458,2.761,2.776,2.7795,2.8027,2.8321,2.831,2.7509,2.7301,2.7294,2.7139,2.7064,2.7341,2.787,2.8091,2.8779,2.9833,3.0612,3.1305,3.2286,3.3325,3.3606,3.3797,3.3974,3.4091,3.4292,3.4555,3.4813,3.5051,3.5223,3.5354,3.5432,3.5446,-0.5574,-0.5237,-0.259,-0.1459,-0.1987,-0.4993,-0.3847,-0.0,-0.0,-0.0,-0.0,-0.0,-0.0,-0.0,-0.0,0.1649,0.4016,0.3932,0.5271,0.5983,0.6288,0.6281,0.6268,0.6261,0.6261,0.6261,0.6412,0.6795,0.7629,0.8988,1.0115,1.0732,1.1316,1.2077,1.2231,1.2305,1.2305,1.2305,1.2305,1.2378,1.2452,1.2358,1.2345,1.2882,1.3837,1.5769,1.7296,1.7829,1.755,1.7619,1.7707,1.7784,1.7744,1.7812,1.7842,1.7881,1.7978,1.8345,1.9208,2.0118,2.096,2.1624,2.2187,2.2689,2.3005,2.3065,2.3125,2.3125,2.3125,2.3125,2.3245,2.3649,2.4092,2.4597,2.5245,2.5673,2.6162,2.6625,2.7027,2.7246,2.7479,2.7545,2.756,2.771,2.7894,2.8091,2.8286,2.8639,2.9271,2.901,2.8735,2.8642,2.8507,2.846,2.852,2.8728,2.9055,2.9692,3.075,3.1394,3.1947,3.2768,3.3625,3.3752,3.3949,3.4097,3.4327,3.468,3.4924,3.5138,3.5239,3.5369,3.5398,3.546,3.5474,-0.5498,-0.5176,-0.3252,-0.1431,-0.0575,-0.2543,-0.2135,-0.0,-0.0,-0.0,-0.0,-0.0,-0.0,-0.0,-0.0,0.3381,0.6087,0.6159,0.6061,0.6203,0.6278,0.6271,0.6264,0.6261,0.6261,0.6335,0.6868,0.7553,0.8613,0.9739,1.0714,1.1007,1.1768,1.2305,1.2305,1.2305,1.2305,1.2305,1.2378,1.2519,1.2806,1.2865,1.2597,1.3114,1.4506,1.6368,1.7366,1.7978,1.8027,1.8008,1.7998,1.7998,1.7939,1.7959,1.825,1.8335,1.8439,1.8532,1.9738,2.0862,2.1647,2.2185,2.2641,2.3005,2.3065,2.3125,2.3125,2.3125,2.3125,2.3125,2.3305,2.3649,2.4103,2.4606,2.5549,2.6336,2.6759,2.7174,2.7378,2.7429,2.7545,2.756,2.771,2.8042,2.8174,2.8432,2.8622,2.921,2.9783,3.0203,3.0011,2.9872,2.961,2.9344,2.9145,2.9592,3.0161,3.0907,3.1586,3.2264,3.2865,3.3328,3.3834,3.3928,3.4056,3.4244,3.4524,3.4867,3.5133,3.5304,3.5383,3.5474,3.5507,3.5507,3.5507,-0.5386,-0.5406,-0.4777,-0.2933,-0.0,-0.0,-0.0,-0.0,-0.0,-0.0,-0.0,-0.0,0.0782,0.22,0.4254,0.5523,0.6315,0.6302,0.6285,0.6278,0.6274,0.6268,0.6264,0.6261,0.6412,0.6945,0.7557,0.8461,0.9518,1.064,1.1242,1.1236,1.1694,1.2305,1.2305,1.2305,1.2378,1.2579,1.2785,1.3142,1.344,1.381,1.3367,1.3833,1.5064,1.6917,1.7703,1.7978,1.8018,1.8008,1.8008,1.8008,1.8134,1.8202,1.8654,1.888,1.8975,1.95,2.0643,2.1977,2.2231,2.2469,2.286,2.3078,2.3065,2.3125,2.3125,2.3125,2.3125,2.3305,2.3484,2.3962,2.4393,2.497,2.5994,2.6826,2.724,2.756,2.756,2.761,2.761,2.761,2.7944,2.8271,2.8575,2.8826,2.9252,2.9843,3.0352,3.0623,3.0667,3.0533,3.0374,3.0105,3.0006,3.0386,3.1063,3.1563,3.2216,3.3039,3.3652,3.3753,3.3868,3.3986,3.4134,3.4419,3.4699,3.5024,3.5262,3.5432,3.546,3.5507,3.5507,3.5507,3.5507,-0.5389,-0.5138,-0.2303,-0.0,-0.0,-0.0,-0.0,-0.0,-0.0,-0.0,-0.0,0.3755,0.5104,0.5045,0.5686,0.6318,0.6291,0.6281,0.6274,0.6268,0.6268,0.6261,0.6331,0.6556,0.6868,0.7629,0.8613,0.9518,1.0421,1.1397,1.1996,1.1996,1.2003,1.2305,1.2305,1.2378,1.2673,1.307,1.3554,1.3945,1.4363,1.4498,1.4277,1.4898,1.5913,1.706,1.7754,1.7959,1.8008,1.8008,1.8008,1.8008,1.8202,1.8529,1.9044,1.9465,1.9554,2.0478,2.16,2.2553,2.269,2.28,2.3078,2.3078,2.3125,2.3125,2.3125,2.3233,2.3352,2.3603,2.3943,2.4724,2.5301,2.5898,2.6739,2.7108,2.7509,2.756,2.756,2.761,2.766,2.7894,2.8271,2.8638,2.9088,2.9403,2.9751,3.0336,3.0804,3.1038,3.1247,3.1168,3.1045,3.1347,3.1409,3.1324,3.1829,3.2287,3.2742,3.3317,3.368,3.378,3.3895,3.4105,3.4401,3.4699,3.4956,3.5159,3.5326,3.546,3.5474,3.5507,3.5507,3.5507,3.5507]},{"header":{"parameterUnit":"m.s-1","parameterCategory":1,"la1":31.0,"la2":29.5877,"lo1":-88.7671,"lo2":-86.6584,"dy":0.0162,"dx":0.0185,"nx":115,"ny":88,"refTime":"2026-03-14T12:00:00:Z","depth":0,"parameterNumber":3,"parameterNumberName":"V-component_of_WINDS"},"data":[0.0,0.0,0.0,0.0,0.0,0.0,0.0,0.0,0.0,0.0,0.0,0.0,0.0,0.0,0.0,0.0,0.0,0.0,0.0,0.0,0.0,0.0,0.0,0.0,0.0,0.0,0.0,0.0,0.0,0.0,0.0,0.0,0.0,0.0,0.0,0.0,0.0,0.0,0.0,0.0,0.0,0.0,0.0,0.0,0.0,0.0,0.0,0.0,0.0,0.0,0.0,0.0,0.0,0.0,0.0,0.0,0.0,0.0,0.0,0.0,0.0,0.0,0.0,0.0,0.0,0.0,0.0,0.0,0.0,0.0,0.0,0.0,0.0,0.0,0.0,0.0,0.0,0.0,0.0,0.0,0.0,0.0,0.0,0.0,0.0,0.0,0.0,0.0,0.0,0.0,0.0,0.0,0.0,0.0,0.0,0.0,0.0,0.0,0.0,0.0,0.0,0.0,0.0,0.0,0.0,0.0,0.0,0.0,0.0,0.0,0.0,0.0,0.0,0.0,0.0,0.0,0.0,0.0,0.0,0.0,0.0,0.0,0.0,0.0,0.0,0.0,0.0,0.0,0.0,0.0,0.0,0.0,0.0,0.0,0.0,0.0,0.0,0.0,0.0,0.0,0.0,0.0,0.0,0.0,0.0,0.0,0.0,0.0,0.0,0.0,0.0,0.0,0.0,0.0,0.0,0.0,0.0,0.0,0.0,0.0,0.0,0.0,0.0,0.0,0.0,0.0,0.0,0.0,0.0,0.0,0.0,0.0,0.0,0.0,0.0,0.0,0.0,0.0,0.0,0.0,0.0,0.0,0.0,0.0,0.0,0.0,0.0,0.0,0.0,0.0,0.0,0.0,0.0,0.0,0.0,0.0,0.0,0.0,0.0,0.0,0.0,0.0,0.0,0.0,0.0,0.0,0.0,0.0,0.0,0.0,0.0,0.0,0.0,0.0,0.0,0.0,0.0,0.0,0.0,0.0,0.0,0.0,0.0,0.0,0.0,0.0,0.0,0.0,0.0,0.0,0.0,0.0,0.0,0.0,0.0,0.0,0.0,0.0,0.0,0.0,0.0,0.0,0.0,0.0,0.0,0.0,0.0,0.0,0.0,0.0,0.0,0.0,0.0,0.0,0.0,0.0,0.0,0.0,0.0,0.0,0.0,0.0,0.0,0.0,0.0,0.0,0.0,0.0,0.0,0.0,0.0,0.0,0.0,0.0,0.0,0.0,0.0,0.0,0.0,0.0,0.0,0.0,0.0,0.0,0.0,0.0,0.0,0.0,0.0,0.0,0.0,0.0,0.0,0.0,0.0,0.0,0.0,0.0,0.0,0.0,0.0,0.0,0.0,0.0,0.0,0.0,0.0,0.0,0.0,0.0,0.0,0.0,0.0,0.0,0.0,0.0,0.0,0.0,0.0,0.0,0.0,0.0,0.0,0.0,0.0,0.0,0.0,0.0,0.0,0.0,0.0,0.0,0.0,0.0,0.0,0.0,0.0,0.0,0.0,0.0,0.0,0.0,0.0,0.0,0.0,0.0,0.0,0.0,0.0,0.0,0.0,0.0,0.0,0.0,0.0,0.0,0.0,0.0,0.0,0.0,0.0,0.0,0.0,0.0,0.0,0.0,0.0,0.0,0.0,0.0,0.0,0.0,0.0,0.0,0.0,0.0,0.0,0.0,0.0,0.0,0.0,0.0,0.0,0.0,0.0,0.0,0.0,0.0,0.0,0.0,0.0,0.0,0.0,0.0,0.0,0.0,0.0,0.0,0.0,0.0,0.0,0.0,0.0,0.0,0.0,0.0,0.0,0.0,0.0,0.0,0.0,0.0,0.0,0.0,0.0,0.0,0.0,0.0,0.0,0.0,0.0,0.0,0.0,0.0,0.0,0.0,0.0,0.0,0.0,0.0,0.0,0.0,0.0,0.0,0.0,0.0,0.0,0.0,0.0,0.0,0.0,0.0,0.0,0.0,0.0,0.0,0.0,0.0,0.0,0.0,0.0,0.0,0.0,0.0,0.0,0.0,0.0,0.0,0.0,0.0,0.0,0.0,0.0,0.0,0.0,0.0,0.0,0.0,0.0,0.0,0.0,0.0,0.0,0.0,0.0,0.0,0.0,0.0,0.0,0.0,0.0,0.0,0.0,0.0,0.0,0.0,0.0,0.0,0.0,0.0,0.0,0.0,0.0,0.0,0.0,0.0,0.0,0.0,0.0,0.0,0.0,0.0,0.0,0.0,0.0,0.0,0.0,0.0,0.0,0.0,0.0,0.0,0.0,0.0,0.0,0.0,0.0,0.0,0.0,0.0,0.0,0.0,0.0,0.0,0.0,0.0,0.0,0.0,0.0,0.0,0.0,0.0,0.0,0.0,0.0,0.0,0.0,0.0,0.0,0.0,0.0,0.0,0.0,0.0,0.0,0.0,0.0,0.0,0.0,0.0,0.0,0.0,0.0,0.0,0.0,0.0,0.0,0.0,0.0,0.0,0.0,0.0,0.0,0.0,0.0,0.0,0.0,0.0,0.0,0.0,0.0,0.0,0.0,0.0,0.0,0.0,0.0,0.0,0.0,0.0,0.0,0.0,0.0,0.0,0.0,0.0,0.0,0.0,0.0,0.0,0.0,0.0,0.0,0.0,0.0,0.0,0.0,0.0,0.0,0.0,0.0,0.0,0.0,0.0,0.0,0.0,0.0,0.0,0.0,0.0,0.0,0.0,0.0,0.0,0.0,0.0,0.0,0.0,0.0,0.0,0.0,0.0,0.0,0.0,0.0,0.0,0.0,0.0,0.0,0.0,0.0,0.0,0.0,0.0,0.0,0.0,0.0,0.0,0.0,0.0,0.0,0.0,0.0,0.0,0.0,0.0,0.0,0.0,0.0,0.0,0.0,0.0,0.0,0.0,0.0,0.0,0.0,0.0,0.0,0.0,0.0,0.0,0.0,0.0,0.0,0.0,0.0,0.0,0.0,0.0,0.0,0.0,0.0,0.0,0.0,0.0,0.0,0.0,0.0,0.0,0.0,0.0,0.0,0.0,0.0,0.0,0.0,0.0,0.0,0.0,0.0,0.0,0.0,0.0,0.0,0.0,0.0,0.0,0.0,0.0,0.0,0.0,0.0,0.0,0.0,0.0,0.0,0.0,0.0,0.0,0.0,0.0,0.0,0.0,0.0,0.0,0.0,0.0,0.0,0.0,0.0,0.0,0.0,0.0,0.0,0.0,0.0,0.0,0.0,0.0,0.0,0.0,0.0,0.0,0.0,0.0,0.0,0.0,0.0,0.0,0.0,0.0,0.0,0.0,0.0,0.0,0.0,0.0,0.0,0.0,0.0,0.0,0.0,0.0,0.0,0.0,0.0,0.0,0.0,0.0,0.0,0.0,0.0,0.0,0.0,0.0,0.0,0.0,0.0,0.0,0.0,0.0,0.0,0.0,0.0,0.0,0.0,0.0,0.0,0.0,0.0,0.0,0.0,0.0,0.0,0.0,0.0,0.0,0.0,0.0,0.0,0.0,0.0,0.0,0.0,0.0,0.0,0.0,0.0,0.0,0.0,0.0,0.0,0.0,0.0,0.0,0.0,0.0,0.0,0.0,0.0,0.0,0.0,0.0,0.0,0.0,0.0,0.0,0.0,0.0,0.0,0.0,0.0,0.0,0.0,0.0,0.0,0.0,0.0,0.0,0.0,0.0,0.0,0.0,0.0,0.0,0.0,0.0,0.0,0.0,0.0,0.0,0.0,0.0,0.0,0.0,0.0,0.0,0.0,0.0,0.0,0.0,0.0,0.0,0.0,0.0,0.0,0.0,0.0,0.0,0.0,0.0,0.0,0.0,0.0,0.0,0.0,0.0,0.0,0.0,0.0,0.0,0.0,0.0,0.0,0.0,0.0,0.0,0.0,0.0,0.0,0.0,0.0,0.0,0.0,0.0,0.0,0.0,0.0,0.0,0.0,0.0,0.0,0.0,0.0,0.0,0.0,0.0,0.0,0.0,0.0,0.0,0.0,0.0,0.0,0.0,0.0,0.0,0.0,0.0,0.0,0.0,0.0,0.0,0.0,0.0,0.0,0.0,0.0,0.0,0.0,0.0,0.0,0.0,0.0,0.0,0.0,0.0,0.0,0.0,0.0,0.0,0.0,0.0,0.0,0.0,0.0,0.0,0.0,0.0,0.0,0.0,0.0,0.0,0.0,0.0,0.0,0.0,0.0,0.0,0.0,0.0,0.0,0.0,0.0,0.0,0.0,0.0,0.0,0.0,0.0,0.0,0.0,0.0,0.0,0.0,-0.8734,0.0,0.0,0.0,0.0,0.0,0.0,0.0,0.0,0.0,0.0,0.0,0.0,0.0,0.0,0.0,0.0,0.0,0.0,0.0,0.0,0.0,0.0,0.0,0.0,0.0,0.0,0.0,0.0,0.0,0.0,0.0,0.0,0.0,0.0,0.0,0.0,0.0,0.0,0.0,0.0,0.0,0.0,0.0,0.0,0.0,0.0,0.0,0.0,0.0,0.0,0.0,0.0,0.0,0.0,0.0,0.0,0.0,0.0,0.0,0.0,0.0,0.0,0.0,0.0,0.0,0.0,0.0,0.0,0.0,0.0,0.0,0.0,0.0,0.0,0.0,0.0,0.0,0.0,0.0,0.0,0.0,0.0,0.0,0.0,0.0,0.0,0.0,0.0,0.0,0.0,0.0,0.0,0.0,0.0,0.0,0.0,0.0,0.0,0.0,0.0,0.0,0.0,0.0,0.0,0.0,0.0,0.0,0.0,0.0,0.0,-0.9151,-0.9303,-0.9024,-0.8949,-0.9069,0.0,0.0,0.0,0.0,0.0,0.0,0.0,0.0,0.0,0.0,0.0,0.0,0.0,0.0,0.0,0.0,0.0,0.0,0.0,0.0,0.0,0.0,0.0,0.0,0.0,0.0,0.0,0.0,0.0,0.0,0.0,0.0,0.0,0.0,0.0,0.0,0.0,0.0,0.0,0.0,0.0,0.0,0.0,0.0,0.0,0.0,0.0,0.0,0.0,0.0,0.0,0.0,0.0,0.0,0.0,0.0,0.0,0.0,0.0,0.0,0.0,0.0,0.0,0.0,0.0,0.0,0.0,0.0,0.0,0.0,0.0,0.0,0.0,0.0,0.0,0.0,0.0,0.0,0.0,0.0,0.0,0.0,0.0,0.0,0.0,0.0,0.0,0.0,0.0,0.0,0.0,0.0,0.0,0.0,0.0,0.0,0.0,0.0,0.0,0.0,0.0,0.0,0.0,0.0,0.0,0.0,0.0,0.0,0.0,0.0,0.0,0.0,-0.9605,-0.9579,-0.9564,0.0,0.0,0.0,0.0,0.0,0.0,0.0,0.0,0.0,0.0,0.0,0.0,0.0,0.0,0.0,0.0,0.0,0.0,0.0,0.0,0.0,0.0,0.0,0.0,0.0,0.0,0.0,0.0,0.0,0.0,0.0,0.0,0.0,0.0,0.0,0.0,0.0,0.0,0.0,0.0,0.0,0.0,0.0,0.0,0.0,0.0,0.0,0.0,0.0,0.0,0.0,0.0,0.0,0.0,0.0,0.0,0.0,0.0,0.0,0.0,0.0,0.0,0.0,0.0,0.0,0.0,0.0,0.0,0.0,0.0,0.0,0.0,0.0,0.0,0.0,0.0,0.0,0.0,0.0,0.0,0.0,0.0,0.0,0.0,0.0,0.0,0.0,0.0,0.0,0.0,0.0,0.0,0.0,0.0,0.0,0.0,0.0,0.0,0.0,0.0,0.0,0.0,0.0,0.0,0.0,0.0,0.0,0.0,0.0,0.0,-0.9884,-1.0735,-1.052,0.0,-1.0397,0.0,0.0,0.0,0.0,0.0,0.0,0.0,0.0,0.0,0.0,0.0,0.0,0.0,0.0,0.0,0.0,0.0,0.0,0.0,0.0,0.0,0.0,0.0,0.0,0.0,0.0,0.0,0.0,0.0,0.0,0.0,0.0,0.0,0.0,0.0,0.0,0.0,0.0,0.0,0.0,0.0,0.0,0.0,0.0,0.0,0.0,0.0,0.0,0.0,0.0,0.0,0.0,0.0,0.0,0.0,0.0,0.0,0.0,0.0,0.0,0.0,0.0,0.0,0.0,0.0,0.0,0.0,0.0,0.0,0.0,0.0,0.0,0.0,0.0,0.0,0.0,0.0,0.0,0.0,0.0,0.0,0.0,0.0,0.0,0.0,0.0,0.0,0.0,0.0,0.0,0.0,0.0,0.0,0.0,0.0,0.0,0.0,0.0,0.0,0.0,0.0,0.0,0.0,0.0,0.0,0.0,0.0,0.0,0.0,0.0,0.0,-1.0898,-1.0828,-1.0785,0.0,0.0,0.0,0.0,0.0,0.0,0.0,0.0,0.0,0.0,0.0,0.0,0.0,0.0,0.0,0.0,0.0,0.0,0.0,0.0,0.0,0.0,0.0,0.0,0.0,0.0,0.0,0.0,0.0,0.0,0.0,0.0,0.0,0.0,0.0,0.0,0.0,0.0,0.0,0.0,0.0,0.0,0.0,0.0,0.0,0.0,0.0,0.0,0.0,0.0,0.0,0.0,0.0,0.0,0.0,0.0,0.0,0.0,0.0,0.0,0.0,0.0,0.0,0.0,0.0,0.0,0.0,0.0,0.0,0.0,0.0,0.0,0.0,0.0,0.0,0.0,0.0,0.0,0.0,0.0,0.0,0.0,0.0,0.0,0.0,0.0,0.0,0.0,0.0,0.0,0.0,0.0,0.0,0.0,0.0,0.0,0.0,0.0,0.0,0.0,0.0,0.0,0.0,0.0,0.0,0.0,0.0,0.0,0.0,0.0,-1.0848,0.0,-1.129,-1.1363,-1.1259,-1.0967,0.0,0.0,0.0,0.0,0.0,0.0,0.0,0.0,0.0,0.0,0.0,0.0,0.0,0.0,0.0,0.0,0.0,0.0,0.0,0.0,0.0,0.0,0.0,0.0,0.0,0.0,0.0,0.0,0.0,0.0,0.0,0.0,0.0,0.0,0.0,0.0,0.0,0.0,0.0,0.0,0.0,0.0,0.0,0.0,0.0,0.0,0.0,0.0,0.0,0.0,0.0,0.0,0.0,0.0,0.0,0.0,0.0,0.0,0.0,0.0,0.0,0.0,0.0,0.0,0.0,0.0,0.0,0.0,0.0,0.0,0.0,0.0,0.0,0.0,0.0,0.0,0.0,0.0,0.0,0.0,0.0,0.0,0.0,0.0,0.0,0.0,0.0,0.0,0.0,0.0,0.0,0.0,0.0,0.0,0.0,0.0,0.0,0.0,0.0,0.0,0.0,0.0,0.0,0.0,0.0,0.0,0.0,0.0,0.0,-1.1704,-1.1483,-1.2305,-1.2331,-1.1947,0.0,0.0,0.0,0.0,0.0,0.0,0.0,0.0,0.0,0.0,0.0,0.0,0.0,0.0,0.0,0.0,0.0,0.0,0.0,0.0,0.0,0.0,0.0,0.0,0.0,0.0,0.0,0.0,0.0,0.0,0.0,0.0,0.0,0.0,0.0,0.0,0.0,0.0,0.0,0.0,0.0,0.0,0.0,0.0,0.0,0.0,0.0,0.0,0.0,0.0,0.0,0.0,0.0,0.0,0.0,0.0,0.0,0.0,0.0,0.0,0.0,0.0,0.0,0.0,0.0,0.0,0.0,0.0,0.0,0.0,0.0,0.0,0.0,0.0,0.0,0.0,0.0,0.0,0.0,0.0,0.0,0.0,0.0,0.0,0.0,0.0,0.0,0.0,0.0,0.0,0.0,0.0,0.0,0.0,0.0,0.0,0.0,0.0,0.0,0.0,0.0,0.0,0.0,0.0,0.0,0.0,0.0,0.0,0.0,-1.1067,-1.1091,-1.1767,-1.3051,-1.2177,-1.173,0.0,0.0,0.0,0.0,0.0,0.0,0.0,0.0,0.0,0.0,0.0,0.0,0.0,0.0,0.0,0.0,0.0,0.0,0.0,0.0,0.0,0.0,0.0,0.0,0.0,0.0,0.0,0.0,0.0,0.0,0.0,0.0,0.0,0.0,0.0,0.0,0.0,0.0,0.0,0.0,0.0,0.0,0.0,0.0,0.0,0.0,0.0,0.0,0.0,0.0,0.0,0.0,0.0,0.0,0.0,0.0,0.0,0.0,0.0,0.0,0.0,0.0,0.0,0.0,0.0,0.0,0.0,0.0,0.0,0.0,0.0,0.0,0.0,0.0,0.0,0.0,0.0,0.0,0.0,0.0,0.0,0.0,0.0,0.0,0.0,0.0,0.0,0.0,0.0,0.0,0.0,0.0,0.0,0.0,0.0,0.0,0.0,0.0,0.0,0.0,0.0,0.0,0.0,0.0,0.0,0.0,0.0,0.0,0.0,-1.0834,0.0,-1.2426,0.0,-1.2262,-1.1683,0.0,0.0,0.0,0.0,0.0,0.0,0.0,0.0,0.0,0.0,0.0,0.0,0.0,0.0,0.0,0.0,0.0,0.0,0.0,0.0,0.0,0.0,0.0,0.0,0.0,0.0,0.0,0.0,0.0,0.0,0.0,0.0,0.0,0.0,0.0,0.0,0.0,0.0,0.0,0.0,0.0,0.0,0.0,0.0,0.0,0.0,0.0,0.0,0.0,0.0,0.0,0.0,0.0,0.0,0.0,0.0,0.0,0.0,0.0,0.0,0.0,0.0,0.0,0.0,0.0,0.0,0.0,0.0,0.0,0.0,0.0,0.0,0.0,0.0,0.0,0.0,0.0,0.0,0.0,0.0,0.0,0.0,0.0,0.0,0.0,0.0,0.0,0.0,0.0,0.0,0.0,0.0,0.0,0.0,0.0,0.0,0.0,0.0,0.0,0.0,0.0,0.0,0.0,0.0,0.0,0.0,0.0,0.0,-1.0947,-1.2508,-1.3369,-1.3492,-1.2777,-1.268,-1.1868,0.0,0.0,0.0,0.0,0.0,0.0,0.0,0.0,0.0,0.0,0.0,0.0,0.0,0.0,0.0,0.0,0.0,0.0,0.0,0.0,0.0,0.0,0.0,0.0,0.0,0.0,0.0,0.0,0.0,0.0,0.0,0.0,0.0,0.0,0.0,0.0,0.0,0.0,0.0,0.0,0.0,0.0,0.0,0.0,0.0,0.0,0.0,0.0,0.0,0.0,0.0,0.0,0.0,0.0,0.0,0.0,0.0,0.0,0.0,0.0,0.0,0.0,0.0,0.0,0.0,0.0,0.0,0.0,0.0,0.0,0.0,0.0,0.0,0.0,0.0,0.0,0.0,0.0,0.0,0.0,0.0,0.0,0.0,0.0,0.0,0.0,0.0,0.0,0.0,0.0,0.0,0.0,0.0,0.0,0.0,0.0,0.0,0.0,0.0,0.0,0.0,0.0,0.0,0.0,0.0,0.0,0.0,0.0,0.0,-1.1825,-1.3179,-1.4074,-1.4349,-1.2714,-1.2079,0.0,0.0,0.0,0.0,0.0,0.0,0.0,0.0,0.0,0.0,0.0,0.0,0.0,0.0,0.0,0.0,0.0,0.0,0.0,0.0,0.0,0.0,0.0,0.0,0.0,0.0,0.0,0.0,0.0,0.0,0.0,0.0,0.0,0.0,0.0,0.0,0.0,0.0,0.0,0.0,0.0,0.0,0.0,0.0,0.0,0.0,0.0,0.0,0.0,0.0,0.0,0.0,0.0,0.0,0.0,0.0,0.0,0.0,0.0,0.0,0.0,0.0,0.0,0.0,0.0,0.0,0.0,0.0,0.0,0.0,0.0,0.0,0.0,0.0,0.0,0.0,0.0,0.0,0.0,0.0,0.0,0.0,0.0,0.0,0.0,0.0,0.0,0.0,0.0,0.0,0.0,0.0,0.0,0.0,0.0,0.0,0.0,0.0,0.0,0.0,0.0,0.0,0.0,0.0,0.0,0.0,0.0,0.0,0.0,-1.2946,-1.4198,-1.4849,-1.4736,-1.2881,-1.2219,-1.2911,0.0,0.0,0.0,0.0,0.0,0.0,0.0,0.0,0.0,0.0,0.0,0.0,0.0,0.0,0.0,0.0,0.0,0.0,0.0,0.0,0.0,0.0,0.0,0.0,0.0,0.0,0.0,0.0,0.0,0.0,0.0,0.0,0.0,0.0,0.0,0.0,0.0,0.0,0.0,0.0,0.0,0.0,0.0,0.0,0.0,0.0,0.0,0.0,0.0,0.0,0.0,0.0,0.0,0.0,0.0,0.0,0.0,0.0,0.0,0.0,0.0,0.0,0.0,0.0,0.0,0.0,0.0,0.0,0.0,0.0,0.0,0.0,0.0,0.0,0.0,0.0,0.0,0.0,0.0,0.0,0.0,0.0,0.0,0.0,0.0,0.0,0.0,0.0,0.0,0.0,0.0,0.0,0.0,0.0,0.0,0.0,0.0,0.0,0.0,0.0,0.0,0.0,0.0,0.0,0.0,0.0,0.0,0.0,-1.5358,-1.6294,-1.5956,-1.4332,-1.3306,-1.241,0.0,0.0,0.0,0.0,0.0,0.0,0.0,0.0,0.0,0.0,0.0,0.0,0.0,0.0,0.0,0.0,0.0,0.0,0.0,0.0,0.0,0.0,0.0,0.0,0.0,0.0,0.0,0.0,0.0,0.0,0.0,0.0,0.0,0.0,0.0,0.0,0.0,0.0,0.0,0.0,0.0,0.0,0.0,0.0,0.0,0.0,0.0,0.0,0.0,0.0,0.0,0.0,0.0,0.0,0.0,0.0,0.0,0.0,0.0,0.0,0.0,0.0,0.0,0.0,0.0,0.0,0.0,0.0,0.0,0.0,0.0,0.0,0.0,0.0,0.0,0.0,0.0,0.0,0.0,0.0,0.0,0.0,0.0,0.0,0.0,0.0,0.0,0.0,0.0,0.0,0.0,0.0,0.0,0.0,0.0,0.0,0.0,0.0,0.0,0.0,0.0,0.0,0.0,0.0,0.0,0.0,0.0,0.0,0.0,-1.6339,-1.7805,-1.8045,-1.6868,-1.4787,-1.3566,0.0,0.0,0.0,0.0,0.0,0.0,0.0,0.0,0.0,0.0,0.0,0.0,0.0,0.0,0.0,0.0,0.0,0.0,0.0,0.0,0.0,0.0,0.0,0.0,0.0,0.0,0.0,0.0,0.0,0.0,0.0,0.0,0.0,0.0,0.0,0.0,0.0,0.0,0.0,0.0,0.0,0.0,0.0,0.0,0.0,0.0,0.0,0.0,0.0,0.0,0.0,0.0,0.0,0.0,0.0,0.0,0.0,0.0,0.0,0.0,0.0,0.0,0.0,0.0,0.0,0.0,0.0,0.0,0.0,0.0,0.0,0.0,0.0,0.0,0.0,0.0,0.0,0.0,0.0,0.0,0.0,0.0,0.0,0.0,0.0,0.0,0.0,0.0,0.0,0.0,0.0,0.0,0.0,0.0,0.0,0.0,0.0,0.0,0.0,0.0,0.0,0.0,0.0,0.0,0.0,0.0,0.0,0.0,-1.6162,-1.7752,-1.8426,-1.8668,-1.8482,-1.6662,-1.5145,0.0,0.0,0.0,0.0,0.0,0.0,0.0,0.0,0.0,0.0,0.0,0.0,0.0,0.0,0.0,0.0,0.0,0.0,0.0,0.0,0.0,0.0,0.0,0.0,0.0,0.0,0.0,0.0,0.0,0.0,0.0,0.0,0.0,0.0,0.0,0.0,0.0,0.0,0.0,0.0,0.0,0.0,0.0,0.0,0.0,0.0,0.0,0.0,0.0,0.0,0.0,0.0,0.0,0.0,0.0,0.0,0.0,0.0,0.0,0.0,0.0,0.0,0.0,0.0,0.0,0.0,0.0,0.0,0.0,0.0,0.0,0.0,0.0,0.0,0.0,0.0,0.0,0.0,0.0,0.0,0.0,0.0,0.0,0.0,0.0,0.0,0.0,0.0,0.0,0.0,0.0,0.0,0.0,0.0,0.0,0.0,0.0,0.0,0.0,0.0,0.0,0.0,0.0,0.0,0.0,0.0,0.0,0.0,-1.6675,-1.909,-1.8576,-1.8613,-1.9238,-1.8457,-1.6836,0.0,0.0,0.0,0.0,0.0,0.0,0.0,0.0,0.0,0.0,0.0,0.0,0.0,0.0,0.0,0.0,0.0,0.0,0.0,0.0,0.0,0.0,0.0,0.0,0.0,0.0,0.0,0.0,0.0,0.0,0.0,0.0,0.0,0.0,0.0,0.0,0.0,0.0,0.0,0.0,0.0,0.0,0.0,0.0,0.0,0.0,0.0,0.0,0.0,0.0,0.0,0.0,0.0,0.0,0.0,0.0,0.0,0.0,0.0,0.0,0.0,0.0,0.0,0.0,0.0,0.0,0.0,0.0,0.0,0.0,0.0,0.0,0.0,0.0,0.0,0.0,0.0,0.0,0.0,0.0,0.0,0.0,0.0,0.0,0.0,0.0,0.0,0.0,0.0,0.0,0.0,0.0,0.0,0.0,0.0,0.0,0.0,0.0,0.0,0.0,0.0,0.0,0.0,0.0,0.0,0.0,0.0,0.0,-1.7218,-1.8271,-1.9432,-1.9805,-1.9297,-1.8457,-1.709,0.0,0.0,0.0,0.0,0.0,0.0,0.0,0.0,0.0,0.0,0.0,0.0,0.0,0.0,0.0,0.0,0.0,0.0,0.0,0.0,0.0,0.0,0.0,0.0,0.0,0.0,0.0,0.0,0.0,0.0,0.0,0.0,0.0,0.0,0.0,0.0,0.0,0.0,0.0,0.0,0.0,0.0,0.0,0.0,0.0,0.0,0.0,0.0,-0.8444,0.0,0.0,0.0,0.0,0.0,0.0,0.0,0.0,0.0,0.0,0.0,0.0,0.0,0.0,0.0,0.0,0.0,0.0,0.0,0.0,0.0,0.0,0.0,0.0,0.0,0.0,0.0,0.0,0.0,0.0,0.0,0.0,0.0,0.0,0.0,0.0,0.0,0.0,0.0,0.0,0.0,0.0,0.0,0.0,0.0,0.0,0.0,0.0,0.0,0.0,0.0,0.0,0.0,0.0,0.0,0.0,0.0,0.0,0.0,-1.7592,-1.8594,-1.9531,-1.9766,-1.9297,-1.8457,-1.7383,0.0,0.0,0.0,0.0,0.0,0.0,0.0,0.0,0.0,0.0,0.0,0.0,0.0,0.0,0.0,0.0,0.0,0.0,0.0,0.0,0.0,0.0,0.0,0.0,0.0,0.0,0.0,0.0,0.0,0.0,0.0,0.0,0.0,0.0,0.0,0.0,0.0,0.0,0.0,0.0,0.0,0.0,0.0,0.0,0.0,0.0,0.0,0.0,0.0,0.0,0.0,0.0,0.0,0.0,0.0,0.0,0.0,0.0,0.0,0.0,0.0,0.0,0.0,0.0,0.0,0.0,0.0,0.0,0.0,0.0,0.0,0.0,0.0,0.0,0.0,0.0,0.0,0.0,0.0,0.0,0.0,0.0,0.0,0.0,0.0,0.0,0.0,0.0,0.0,0.0,0.0,0.0,0.0,0.0,0.0,0.0,0.0,0.0,0.0,0.0,0.0,0.0,0.0,0.0,0.0,0.0,0.0,-1.6763,-1.7842,-1.9043,-1.9102,-1.916,-1.9277,-1.8437,-1.7637,-1.6934,0.0,0.0,0.0,0.0,0.0,0.0,0.0,0.0,0.0,0.0,0.0,0.0,0.0,0.0,0.0,0.0,0.0,0.0,0.0,0.0,0.0,0.0,0.0,0.0,0.0,0.0,0.0,0.0,0.0,0.0,0.0,0.0,0.0,0.0,0.0,0.0,0.0,0.0,-0.8759,-0.997,0.0,0.0,0.0,0.0,0.0,0.0,0.0,0.0,-0.8678,0.0,0.0,0.0,0.0,0.0,0.0,0.0,0.0,0.0,0.0,0.0,0.0,0.0,0.0,0.0,0.0,0.0,0.0,0.0,0.0,0.0,0.0,0.0,0.0,0.0,0.0,0.0,0.0,0.0,0.0,0.0,0.0,0.0,0.0,0.0,0.0,0.0,0.0,0.0,0.0,0.0,0.0,0.0,0.0,0.0,0.0,0.0,0.0,0.0,0.0,0.0,0.0,0.0,0.0,0.0,0.0,-1.748,-1.775,-1.7967,-1.8203,-1.8203,-1.8574,-1.9238,-1.8457,-1.793,-1.7715,0.0,0.0,0.0,0.0,0.0,0.0,0.0,0.0,0.0,0.0,0.0,0.0,0.0,0.0,0.0,0.0,0.0,0.0,0.0,0.0,0.0,0.0,0.0,0.0,0.0,0.0,0.0,0.0,0.0,0.0,0.0,0.0,0.0,0.0,0.0,0.0,0.0,0.0,0.0,-1.1026,-1.1741,0.0,0.0,0.0,0.0,0.0,0.0,0.0,0.0,-0.8344,0.0,0.0,0.0,0.0,0.0,0.0,0.0,0.0,0.0,0.0,0.0,0.0,0.0,0.0,0.0,0.0,0.0,0.0,0.0,0.0,0.0,0.0,0.0,0.0,0.0,0.0,0.0,0.0,0.0,0.0,0.0,0.0,0.0,0.0,0.0,0.0,0.0,0.0,0.0,0.0,0.0,0.0,0.0,0.0,0.0,0.0,0.0,0.0,0.0,0.0,0.0,0.0,0.0,0.0,0.0,-1.7144,-1.7771,-1.8008,-1.7988,-1.7559,-1.7734,-1.8555,-1.7344,-1.707,0.0,0.0,0.0,0.0,0.0,0.0,0.0,0.0,0.0,0.0,0.0,0.0,0.0,0.0,0.0,0.0,0.0,0.0,0.0,0.0,0.0,0.0,0.0,0.0,0.0,0.0,0.0,0.0,0.0,0.0,0.0,0.0,0.0,0.0,0.0,0.0,0.0,0.0,0.0,0.0,-1.1758,-1.2327,-1.1451,0.0,0.0,0.0,0.0,0.0,0.0,-0.9141,-0.8591,0.0,0.0,0.0,0.0,0.0,0.0,0.0,0.0,0.0,0.0,0.0,0.0,0.0,0.0,0.0,0.0,0.0,0.0,0.0,0.0,0.0,0.0,0.0,0.0,0.0,0.0,0.0,0.0,0.0,0.0,0.0,0.0,0.0,0.0,0.0,0.0,0.0,0.0,0.0,0.0,0.0,0.0,0.0,0.0,0.0,0.0,0.0,0.0,0.0,0.0,0.0,0.0,0.0,0.0,0.0,-1.6878,-1.7649,-1.8008,-1.7969,-1.6992,-1.6934,-1.793,-1.6641,-1.6582,0.0,0.0,0.0,0.0,0.0,0.0,0.0,0.0,0.0,0.0,0.0,0.0,0.0,0.0,0.0,0.0,0.0,0.0,0.0,0.0,0.0,0.0,0.0,0.0,0.0,0.0,0.0,0.0,0.0,0.0,0.0,0.0,0.0,0.0,0.0,0.0,0.0,0.0,0.0,0.0,0.0,-1.2941,-1.2459,-1.2443,0.0,0.0,0.0,0.0,-1.0828,-1.0083,0.0,0.0,0.0,0.0,0.0,0.0,0.0,0.0,0.0,0.0,0.0,0.0,0.0,0.0,0.0,0.0,0.0,0.0,0.0,0.0,0.0,0.0,0.0,0.0,0.0,0.0,0.0,0.0,0.0,0.0,0.0,0.0,0.0,0.0,0.0,0.0,0.0,0.0,0.0,0.0,0.0,0.0,0.0,0.0,0.0,0.0,0.0,0.0,0.0,0.0,0.0,0.0,0.0,0.0,0.0,0.0,-1.7714,-1.7969,-1.8008,-1.793,-1.6387,-1.6328,-1.793,-1.7812,-1.7793,0.0,0.0,0.0,0.0,0.0,0.0,0.0,0.0,0.0,0.0,0.0,0.0,0.0,0.0,0.0,0.0,0.0,0.0,0.0,0.0,0.0,0.0,0.0,0.0,0.0,0.0,0.0,0.0,0.0,0.0,0.0,0.0,0.0,0.0,0.0,0.0,0.0,0.0,0.0,0.0,0.0,-1.4003,-1.2426,-1.2819,-1.3075,0.0,0.0,-1.1516,-1.184,-1.1667,0.0,0.0,0.0,0.0,0.0,0.0,0.0,0.0,0.0,0.0,0.0,0.0,0.0,0.0,0.0,0.0,0.0,0.0,0.0,0.0,0.0,0.0,0.0,0.0,0.0,0.0,0.0,0.0,0.0,0.0,0.0,0.0,0.0,0.0,0.0,0.0,0.0,0.0,0.0,0.0,0.0,0.0,0.0,0.0,0.0,0.0,0.0,0.0,0.0,0.0,0.0,0.0,0.0,0.0,0.0,-1.4336,-1.7148,-1.7754,-1.7754,-1.7246,-1.6055,-1.6211,-1.7891,-1.7471,-1.7198,0.0,0.0,0.0,0.0,0.0,0.0,0.0,0.0,0.0,0.0,0.0,0.0,0.0,0.0,0.0,0.0,0.0,0.0,0.0,0.0,0.0,0.0,0.0,0.0,0.0,0.0,0.0,0.0,0.0,0.0,0.0,0.0,0.0,0.0,0.0,0.0,0.0,0.0,0.0,0.0,0.0,0.0,-1.433,-1.4517,0.0,0.0,0.0,-1.3452,-1.3814,0.0,0.0,0.0,0.0,0.0,0.0,0.0,0.0,0.0,0.0,0.0,0.0,0.0,0.0,0.0,0.0,0.0,0.0,0.0,0.0,0.0,0.0,0.0,0.0,0.0,0.0,0.0,0.0,0.0,0.0,0.0,0.0,0.0,0.0,0.0,0.0,0.0,0.0,0.0,0.0,0.0,0.0,0.0,0.0,0.0,0.0,0.0,0.0,0.0,0.0,0.0,0.0,0.0,0.0,0.0,0.0,0.0,-1.6641,-1.7129,-1.7148,-1.6699,-1.5833,-1.6087,-1.7539,-1.6958,0.0,0.0,0.0,0.0,0.0,0.0,0.0,0.0,0.0,0.0,0.0,0.0,0.0,0.0,0.0,0.0,0.0,0.0,0.0,0.0,0.0,0.0,0.0,0.0,0.0,0.0,0.0,0.0,0.0,0.0,0.0,0.0,0.0,0.0,0.0,0.0,0.0,0.0,0.0,0.0,0.0,0.0,-1.4498,-1.5607,-1.5721,-1.5539,0.0,0.0,-1.5072,-1.5108,-1.3809,-1.2591,0.0,0.0,0.0,0.0,0.0,0.0,0.0,0.0,0.0,0.0,0.0,0.0,0.0,0.0,0.0,0.0,0.0,0.0,0.0,0.0,0.0,0.0,0.0,0.0,0.0,0.0,0.0,0.0,0.0,0.0,0.0,0.0,0.0,0.0,0.0,0.0,0.0,0.0,0.0,0.0,0.0,0.0,0.0,0.0,0.0,0.0,0.0,0.0,0.0,0.0,0.0,0.0,0.0,0.0,0.0,-1.6562,-1.5957,-1.5957,-1.6641,-1.585,-1.5827,-1.6738,-1.6676,-1.6593,0.0,0.0,0.0,0.0,0.0,0.0,0.0,0.0,0.0,0.0,0.0,0.0,0.0,0.0,0.0,0.0,0.0,0.0,0.0,0.0,0.0,0.0,0.0,0.0,0.0,0.0,0.0,0.0,0.0,0.0,0.0,0.0,0.0,0.0,0.0,0.0,0.0,0.0,0.0,0.0,0.0,-1.497,-1.5067,-1.5643,-1.5767,0.0,0.0,-1.5729,-1.4968,-1.5229,-1.4689,-1.2209,0.0,0.0,0.0,0.0,0.0,0.0,0.0,0.0,0.0,0.0,0.0,0.0,0.0,0.0,0.0,0.0,0.0,0.0,0.0,0.0,0.0,0.0,0.0,0.0,0.0,0.0,0.0,0.0,0.0,0.0,0.0,0.0,0.0,0.0,0.0,0.0,0.0,0.0,0.0,0.0,0.0,0.0,0.0,0.0,0.0,0.0,0.0,0.0,0.0,0.0,0.0,0.0,0.0,-1.3887,-1.5859,-1.5528,-1.5516,-1.587,-1.5525,-1.5742,-1.6557,-1.6538,-1.6279,0.0,0.0,0.0,0.0,0.0,0.0,0.0,0.0,0.0,0.0,0.0,0.0,0.0,0.0,0.0,0.0,0.0,0.0,0.0,0.0,0.0,0.0,0.0,0.0,0.0,0.0,0.0,0.0,-0.6965,-0.751,-0.7982,0.0,0.0,0.0,0.0,0.0,0.0,0.0,0.0,0.0,0.0,-1.5536,-1.5617,-1.6503,0.0,0.0,-1.6302,-1.6542,-1.6593,-1.5785,-1.4839,-1.381,-1.2957,0.0,0.0,0.0,0.0,0.0,0.0,0.0,0.0,0.0,0.0,0.0,0.0,0.0,0.0,0.0,0.0,0.0,0.0,0.0,0.0,0.0,0.0,0.0,0.0,0.0,0.0,0.0,0.0,0.0,0.0,0.0,0.0,0.0,0.0,0.0,0.0,0.0,0.0,0.0,0.0,0.0,0.0,0.0,0.0,0.0,0.0,0.0,0.0,0.0,0.0,0.0,0.0,-1.373,-1.5371,-1.5346,-1.5311,-1.5413,-1.5332,-1.5554,-1.611,-1.6369,-1.6093,0.0,0.0,0.0,0.0,0.0,0.0,0.0,0.0,0.0,0.0,0.0,0.0,0.0,0.0,0.0,0.0,0.0,0.0,0.0,0.0,0.0,0.0,0.0,0.0,0.0,0.0,0.0,0.0,-0.7446,-0.7885,-0.8443,0.0,0.0,0.0,0.0,0.0,0.0,0.0,0.0,0.0,0.0,-1.6002,-1.6458,-1.7529,-1.8029,-1.7309,-1.7534,-1.7729,-1.7639,-1.6621,-1.5536,-1.4507,0.0,0.0,0.0,0.0,0.0,0.0,0.0,0.0,0.0,0.0,0.0,0.0,0.0,0.0,0.0,0.0,0.0,0.0,0.0,0.0,0.0,0.0,0.0,0.0,0.0,0.0,0.0,0.0,0.0,0.0,-1.2584,0.0,0.0,0.0,0.0,0.0,0.0,0.0,0.0,0.0,0.0,0.0,0.0,0.0,0.0,0.0,0.0,0.0,0.0,0.0,0.0,0.0,0.0,-1.375,-1.5391,-1.5412,-1.5374,-1.5432,-1.5336,-1.5317,-1.5349,-1.608,-1.608,-1.5209,0.0,0.0,0.0,0.0,0.0,0.0,0.0,0.0,0.0,0.0,0.0,0.0,0.0,0.0,0.0,0.0,0.0,0.0,0.0,0.0,0.0,0.0,0.0,0.0,0.0,0.0,-0.9551,-0.892,-0.8472,0.0,0.0,0.0,0.0,0.0,0.0,0.0,0.0,0.0,0.0,-1.5396,-1.6378,-1.7585,-1.8661,-1.9071,-1.8418,-1.9181,-1.9286,-1.7657,-1.7894,-1.7163,0.0,0.0,0.0,0.0,0.0,0.0,0.0,0.0,0.0,0.0,0.0,0.0,0.0,0.0,0.0,0.0,0.0,0.0,0.0,0.0,0.0,0.0,0.0,0.0,0.0,0.0,0.0,-1.5395,-1.3095,0.0,0.0,0.0,0.0,0.0,0.0,0.0,0.0,0.0,0.0,0.0,-1.8255,-2.1015,0.0,0.0,0.0,0.0,0.0,0.0,0.0,0.0,0.0,0.0,0.0,0.0,-1.4297,-1.6973,-1.7118,-1.6811,-1.6212,-1.6123,-1.5829,-1.5253,-1.5484,-1.5234,-1.4363,0.0,0.0,0.0,0.0,0.0,0.0,0.0,0.0,0.0,0.0,0.0,0.0,0.0,0.0,0.0,0.0,0.0,0.0,0.0,0.0,0.0,0.0,0.0,0.0,0.0,-0.9698,0.0,0.0,0.0,0.0,0.0,0.0,0.0,0.0,0.0,0.0,0.0,-1.3962,-1.4607,-1.6969,-1.8508,-1.8189,-1.8851,-1.8982,0.0,0.0,0.0,0.0,0.0,0.0,0.0,0.0,0.0,0.0,0.0,0.0,0.0,0.0,-1.4061,-1.1487,-1.015,-0.9437,-0.9437,0.0,0.0,0.0,0.0,0.0,0.0,0.0,0.0,0.0,0.0,0.0,0.0,0.0,0.0,-1.9095,0.0,-1.7414,0.0,0.0,0.0,0.0,0.0,0.0,0.0,0.0,-1.8701,-1.9158,-2.0027,-2.1525,-2.1655,0.0,-2.0284,-1.9018,0.0,0.0,0.0,0.0,0.0,0.0,0.0,0.0,-1.5254,-1.8184,-1.8711,-1.8402,-1.7384,-1.6794,-1.6226,-1.5688,-1.5657,-1.5376,-1.4824,-1.4805,-1.389,0.0,0.0,0.0,0.0,0.0,0.0,0.0,0.0,0.0,0.0,0.0,0.0,0.0,0.0,0.0,0.0,0.0,0.0,0.0,0.0,0.0,0.0,0.0,-0.962,0.0,0.0,0.0,0.0,0.0,0.0,0.0,0.0,0.0,-1.1748,-1.3437,-1.4949,-1.568,-1.7782,-1.9182,-1.9075,0.0,0.0,0.0,0.0,0.0,0.0,0.0,-1.7311,-1.6303,-1.5598,-1.4823,-1.3741,-1.4635,-1.5409,-1.5012,0.0,0.0,-1.3123,-1.1873,-1.1123,-1.0904,-1.0605,-1.0212,-0.9669,-1.005,-1.0401,0.0,0.0,0.0,0.0,0.0,0.0,0.0,0.0,-2.0376,-2.3187,0.0,-2.2439,0.0,0.0,0.0,0.0,0.0,-2.1617,0.0,0.0,-2.3495,-2.3956,-2.188,-2.1059,-2.1494,-2.3137,-2.3903,-2.3416,-2.1641,-1.6797,0.0,0.0,0.0,0.0,0.0,0.0,-1.6699,-1.8984,-2.0059,-2.001,-1.8843,-1.7374,-1.6553,-1.6495,-1.6522,-1.651,-1.6484,-1.6445,-1.4577,-1.0521,-1.2547,0.0,0.0,0.0,0.0,0.0,0.0,0.0,0.0,0.0,0.0,0.0,0.0,0.0,0.0,0.0,0.0,0.0,0.0,0.0,0.0,-0.9538,0.0,0.0,0.0,0.0,0.0,0.0,0.0,0.0,0.0,0.0,-1.4014,-1.4519,-1.5579,-1.7613,0.0,0.0,0.0,0.0,-1.9782,-2.0702,-2.0911,-2.0496,-1.9434,-1.926,-1.8263,-1.5307,0.0,0.0,-1.2834,-1.4237,-1.5319,-1.4352,-1.5042,-1.5844,-1.6245,-1.5262,-1.4432,-1.3875,-1.2833,-1.2156,-1.1589,-1.1307,-1.1453,-2.5374,0.0,0.0,0.0,0.0,-2.3651,-2.3735,-2.3756,-2.3832,-2.5379,-2.7651,-2.3799,0.0,0.0,0.0,0.0,0.0,0.0,-2.3225,-2.3822,-2.2489,-2.2411,-2.3578,-2.4006,-2.4141,-2.4045,-2.429,-2.3822,-2.2656,-2.0039,-1.8223,-1.7285,0.0,0.0,0.0,0.0,-1.9844,-2.1211,-2.0841,-2.0416,-2.0017,-1.8969,-1.7804,-1.6535,-1.7067,-1.7079,-1.6522,-1.6503,-1.5658,-1.3844,-1.3284,0.0,0.0,0.0,0.0,0.0,0.0,0.0,0.0,0.0,0.0,0.0,0.0,0.0,0.0,0.0,0.0,0.0,0.0,0.0,-1.0429,-1.0328,-1.0664,0.0,0.0,0.0,0.0,0.0,0.0,0.0,0.0,0.0,-1.668,-1.7342,-1.811,0.0,0.0,-2.1049,-2.1246,-2.0645,-2.0096,-1.975,0.0,0.0,0.0,-1.7591,-1.7188,-1.6407,-1.5854,-1.521,-1.4309,-1.4722,-1.5024,-1.471,-1.5126,-1.5476,-1.5291,-1.4442,-1.3616,-1.3031,-1.2117,-1.1196,-1.0795,-1.0872,-1.1026,-2.822,-2.7333,-2.6042,-2.5614,-2.5767,-2.5958,-2.5765,-2.534,-2.6022,-2.691,-2.7759,-2.537,-2.4005,-2.3447,-2.2331,0.0,0.0,0.0,-2.4216,-2.4822,-2.3243,-2.3145,-2.4333,-2.525,-2.5443,-2.491,-2.456,-2.4316,-2.4102,-2.3105,-2.1934,-2.0566,0.0,0.0,-2.082,-2.1328,-2.1948,-2.2552,-2.126,-2.0497,-2.0445,-1.9587,-1.8278,-1.6599,-1.7285,-1.7471,-1.7003,-1.6965,-1.7048,-1.7183,-1.5297,-1.342,0.0,0.0,0.0,0.0,0.0,0.0,0.0,0.0,0.0,0.0,0.0,-1.0357,0.0,0.0,0.0,0.0,-0.9403,-1.0637,-1.1392,-1.1881,0.0,0.0,0.0,0.0,0.0,0.0,0.0,-1.6237,-1.6394,-1.6874,-1.8249,-1.8971,-1.9418,-1.9553,-2.0353,-2.095,-2.0955,0.0,-1.9585,-1.9501,-1.8747,-1.793,-1.7208,-1.6876,-1.6539,-1.6,-1.5214,-1.4529,-1.4298,-1.4387,-1.4563,-1.4637,-1.5031,-1.5312,-1.4979,-1.4197,-1.3483,-1.2941,-1.23,-1.1634,-1.0953,-1.0996,-1.1084,-3.0301,-3.0094,-2.7915,-2.6995,-2.7028,-2.7221,-2.6624,-2.5658,-2.7175,-2.7945,-2.8022,-2.711,-2.6697,-2.6601,-2.5149,0.0,-2.4533,-2.5332,-2.5284,-2.4543,-2.5297,-2.5311,-2.4648,-2.5371,-2.5742,-2.5781,-2.4902,-2.4883,-2.5547,-2.5566,-2.5215,-2.4473,-2.2148,-2.1738,-2.3144,-2.3144,-2.3132,-2.3165,-2.1363,-2.0398,-2.037,-1.9542,-1.8299,-1.6657,-1.7369,-1.7773,-1.7696,-1.7779,-1.857,-2.0115,-1.7851,-1.4647,-1.0832,0.0,0.0,0.0,0.0,0.0,0.0,0.0,0.0,0.0,0.0,0.0,0.0,0.0,0.0,0.0,-1.0645,0.0,-1.2358,-1.3751,0.0,0.0,0.0,-1.4824,-1.4173,-1.5176,-1.6239,-1.7053,0.0,0.0,-1.8894,0.0,-1.9613,-1.891,-1.8935,-1.9216,-1.9909,-1.9078,-1.8664,-1.9569,-1.8801,-1.7777,-1.7022,-1.6708,-1.6154,-1.4949,-1.3835,-1.342,-1.3393,-1.3659,-1.3991,-1.4024,-1.4694,-1.5133,-1.4878,-1.4528,-1.4125,-1.3413,-1.3152,-1.277,-1.1802,-1.1555,-1.1545,-3.1115,-3.1072,-3.0491,-2.9329,-2.7831,-2.8034,-2.779,-2.7317,-2.7504,-2.842,-2.9682,-2.8247,-2.7601,-2.7582,-2.7817,-2.7923,-2.7939,-2.8123,-2.8142,-2.7871,-2.6193,-2.6058,-2.7207,-2.6211,-2.6035,-2.6602,-2.5801,-2.5156,-2.4727,-2.4707,-2.4941,-2.5332,-2.4785,-2.4355,-2.4062,-2.3496,-2.3174,-2.3126,-2.1336,-2.0392,-2.032,-2.0104,-1.9158,-1.7472,-1.8234,-1.8388,-1.7753,-1.833,-1.9179,-2.0173,-1.7757,-1.5558,-1.3863,-1.2883,0.0,0.0,0.0,0.0,0.0,0.0,0.0,0.0,0.0,-1.1742,-0.9757,0.0,-1.1949,0.0,-1.1751,-1.1781,-1.3295,-1.3686,0.0,0.0,-1.6394,-1.6741,-1.6843,-1.677,-1.7164,-1.8314,-1.8223,-1.8268,-1.8826,-1.9063,-1.8894,-1.82,-1.9041,-1.9807,-1.9968,-1.9076,-1.8483,-1.8724,-1.7725,-1.6624,-1.6278,-1.6069,-1.5802,-1.5058,-1.4515,-1.4086,-1.3779,-1.3525,-1.3396,-1.3402,-1.3553,-1.3833,-1.4236,-1.4499,-1.4563,-1.3974,-1.3197,-1.2421,-1.1798,-1.1686,-1.1644,-3.1935,-3.1916,-3.1549,-3.0686,-2.9588,-2.9943,-2.9427,-2.8446,-2.9069,-2.978,-3.0317,-2.9017,-2.8236,-2.7958,-2.8375,-2.8568,-2.8563,-2.8552,-2.8591,-2.8525,-2.7129,-2.7067,-2.8147,-2.8065,-2.7851,-2.7539,-2.6699,-2.6035,-2.5547,-2.5176,-2.5234,-2.5684,-2.5312,-2.5078,-2.4961,-2.4551,-2.4307,-2.4257,-2.2708,-2.1382,-2.035,-2.0292,-1.9831,-1.8927,-1.9331,-1.9542,-1.9388,-1.9869,-2.0165,-2.0253,-1.8897,-1.734,-1.5746,-1.4635,-1.3637,0.0,0.0,0.0,0.0,0.0,0.0,0.0,0.0,0.0,0.0,0.0,-1.2359,0.0,-1.3301,-1.365,-1.4969,-1.5602,-1.6214,-1.6798,-1.7569,-1.7838,-1.7398,-1.7326,-1.762,-1.8302,-1.8065,-1.7963,-1.8369,-1.8707,-1.8758,-1.8352,-1.9275,-1.9866,-1.9562,-1.9228,-1.8805,-1.7939,-1.7602,-1.727,-1.6759,-1.6515,-1.6206,-1.573,-1.5302,-1.4869,-1.4427,-1.4146,-1.3961,-1.3948,-1.3532,-1.3496,-1.4312,-1.5104,-1.5286,-1.4271,-1.3579,-1.2878,-1.2221,-1.1851,-1.1654,-3.2745,-3.2692,-3.2001,-3.1704,-3.1754,-3.2257,-3.1299,-2.9495,-3.1073,-3.1373,-3.0667,-2.991,-2.9198,-2.8544,-2.8429,-2.839,-2.839,-2.8257,-2.823,-2.8217,-2.8233,-2.8299,-2.8479,-2.9951,-2.9883,-2.8457,-2.7578,-2.7168,-2.7129,-2.6289,-2.5918,-2.5996,-2.5156,-2.5176,-2.5996,-2.5957,-2.584,-2.5662,-2.4569,-2.2914,-2.0696,-2.0735,-2.0677,-2.0465,-2.0562,-2.0908,-2.1466,-2.16,-2.137,-2.0762,-2.0554,-1.9326,-1.6946,-1.6607,-1.595,0.0,-1.4774,0.0,0.0,0.0,0.0,0.0,0.0,0.0,0.0,-1.2466,-1.2944,-1.3877,-1.503,-1.6021,-1.6648,-1.7862,-1.8155,-1.7037,-1.8048,-1.8352,-1.7033,-1.749,-1.7912,-1.7789,-1.7896,-1.7963,-1.8031,-1.8572,-1.9046,-1.9096,-1.9697,-2.0027,-1.9435,-1.9563,-1.9098,-1.7257,-1.8008,-1.822,-1.7708,-1.7364,-1.7016,-1.6536,-1.6072,-1.5617,-1.5176,-1.4937,-1.4878,-1.4801,-1.4106,-1.3828,-1.4812,-1.5789,-1.5984,-1.4724,-1.4246,-1.3735,-1.2807,-1.2197,-1.1792,-3.3587,-3.3578,-3.3403,-3.334,-3.3358,-3.3677,-3.2982,-3.1621,-3.1958,-3.2225,-3.2429,-3.2256,-3.2102,-3.1891,-3.128,-3.096,-3.0929,-3.0244,-2.9936,-2.9929,-2.9917,-3.0009,-3.0095,-2.9592,-2.9355,-2.9297,-2.8476,-2.8066,-2.8047,-2.7168,-2.7109,-2.7773,-2.6953,-2.6934,-2.7734,0.0,0.0,0.0,-2.5307,-2.4244,-2.2455,-2.3024,-2.2705,-2.137,-2.1966,0.0,-2.1562,-2.2177,-2.2695,-2.2932,-2.1835,0.0,0.0,0.0,0.0,0.0,0.0,0.0,0.0,0.0,0.0,0.0,-1.6962,-1.6037,-1.3927,-1.5505,-1.6427,-1.5868,-1.6224,-1.6546,-1.6699,-1.6936,-1.7258,-1.7608,-1.8386,-1.8538,-1.7743,-1.8251,-1.8471,-1.7879,-1.8318,-1.8691,-1.8741,-1.935,-1.9782,-1.9841,-2.0467,-2.0873,-2.0754,-1.9876,-1.9002,-1.854,-1.833,-1.7955,-1.7715,-1.7677,-1.7637,-1.7324,-1.6718,-1.6213,-1.5998,-1.5376,-1.4938,-1.4931,-1.4732,-1.4771,-1.5429,-1.6081,-1.6393,-1.6073,-1.5215,-1.4205,-1.3178,-1.2827,-1.2715,-3.4174,0.0,-3.3807,-3.3807,0.0,-3.3954,-3.3623,-3.2963,-3.2872,-3.2762,-3.2718,-3.2852,-3.2891,-3.2872,-3.248,-3.2307,-3.2256,-3.1422,-3.1056,-3.1025,-3.059,-3.0467,-3.0595,-3.0061,-2.9988,-3.0215,-2.9355,-2.8945,-2.8906,-2.8066,-2.7637,-2.7656,-2.7226,-2.7012,-2.7012,-2.6699,-2.5954,-2.4721,-2.5229,-2.4659,-2.2938,-2.2831,-2.2793,-2.2802,0.0,0.0,0.0,0.0,0.0,0.0,0.0,0.0,0.0,0.0,0.0,-1.7646,-1.8272,-1.8531,-1.8149,-1.771,-1.7656,-1.806,-1.7884,-1.7191,-1.5823,-1.7151,-1.7617,-1.6614,-1.6942,-1.7236,-1.7236,-1.7253,-1.7388,-1.7772,-1.8471,-1.8741,-1.8488,-1.8995,-1.9299,-1.8988,-1.9232,-1.9469,-1.9444,-2.0128,-2.0568,-2.0636,-2.1262,-2.1718,-2.1674,-2.1078,-2.0471,-1.9996,-1.921,-1.8687,-1.8702,-1.8687,-1.8554,-1.8291,-1.7675,-1.7142,-1.6823,-1.6209,-1.5677,-1.5666,-1.5674,-1.5793,-1.6019,-1.6334,-1.6321,-1.574,-1.5107,-1.4321,-1.3253,-1.2943,-1.2919,-3.4761,-3.4017,-3.399,-3.3917,-3.3807,-3.3807,-3.3834,-3.3847,0.0,0.0,0.0,-3.3254,-3.3372,-3.3353,-3.3218,-3.3122,-3.3064,-3.2288,-3.191,-3.1872,-3.1025,-3.0698,-3.0818,-3.0711,-3.0732,-3.082,-3.0156,-2.9824,-2.9805,-2.8945,-2.8164,-2.75,-2.7305,-2.6797,-2.5977,-2.5781,-2.5197,-2.4289,-2.5053,-2.4803,-2.3371,-2.2726,-2.2928,-2.4072,-2.3552,-2.3533,-2.4072,-2.4225,-2.3639,-2.2265,-2.2067,-2.138,-2.0153,-2.0568,-2.063,-2.0168,-2.0868,-2.1048,-2.0326,-1.9669,-1.9149,-1.876,-1.8214,-1.7844,-1.7772,-1.8162,-1.8058,-1.7211,-1.7783,-1.8194,-1.82,-1.82,-1.8177,-1.8177,-1.8741,-1.9113,-1.9113,-1.9545,-1.9841,-1.9985,-2.0052,-2.017,-2.0238,-2.0906,-2.138,-2.1448,-2.187,-2.2327,-2.2282,-2.1994,-2.1513,-2.0799,-1.9989,-1.963,-1.9675,-1.9615,-1.9479,-1.8904,-1.8387,-1.7895,-1.7369,-1.685,-1.6534,-1.6403,-1.6522,-1.6484,-1.6509,-1.6497,-1.6107,-1.5073,-1.4744,-1.4376,-1.3382,-1.2968,-1.292,-3.5643,-3.4833,-3.4844,-3.4431,-3.3807,-3.3807,-3.3935,-3.4152,-3.4417,-3.4586,-3.4742,-3.5019,-3.5141,-3.5089,-3.4364,-3.4019,-3.3968,-3.3127,-3.2737,0.0,-3.1891,-3.1557,-3.1592,-3.0952,-3.0654,-3.0723,-3.0723,-3.0723,-3.0625,-2.9844,-2.9355,-2.916,-2.8476,-2.7676,-2.6836,-2.6074,-2.5572,-2.5307,-2.544,-2.5332,-2.4976,-2.5563,-2.5293,-2.4187,-2.4659,-2.4659,-2.4129,-2.4736,-2.5014,-2.4784,-2.4747,-2.3602,-2.1107,-2.1068,-2.0389,-1.8662,-1.9216,-1.9593,-1.95,-1.9376,-1.9858,-2.109,-2.0318,-1.9471,-1.886,-1.8798,-1.8847,-1.893,-1.9341,-1.9697,-1.9697,-1.963,-1.9579,-1.963,-1.9765,-1.9849,-1.9833,-1.9656,-1.9698,-2.0061,-2.0415,-2.0786,-2.1059,-2.1651,-2.209,-2.2141,-2.2192,-2.2327,-2.2197,-2.1661,-2.1023,-2.0483,-2.0,-1.9762,-1.9705,-1.9705,-1.9479,-1.8968,-1.8458,-1.7947,-1.7461,-1.6876,-1.6522,-1.6534,-1.6534,-1.6534,-1.6534,-1.6534,-1.6151,-1.5454,-1.5005,-1.4433,-1.3684,-1.319,-1.2939,-3.646,-3.5735,-3.5725,-3.5495,-3.5092,-3.4193,-3.4109,-3.4641,-3.4996,-3.5116,-3.5122,-3.5403,-3.5507,-3.5468,-3.5089,-3.4916,-3.4872,-3.4005,-3.3602,-3.3545,-3.2737,-3.2153,-3.1804,-3.1448,-3.1073,-3.0723,-3.084,-3.0918,-3.0859,-3.0488,-3.0059,-2.957,-2.873,-2.7871,-2.7012,-2.6133,-2.5634,-2.5513,-2.5514,-2.5447,-2.5313,-2.5255,-2.5082,-2.4736,-2.4716,-2.4505,-2.412,-2.3995,-2.3716,-2.3254,-2.2732,-2.1787,-2.0486,-2.0294,-1.9963,-1.9473,-2.0189,-2.0868,-2.1275,-2.1305,-2.1449,-2.173,-2.1189,-2.0586,-2.0075,-1.9843,-1.9756,-1.9935,-2.0021,-1.9985,-1.9985,-1.9985,-1.9985,-1.9985,-2.0382,-2.0653,-2.0686,-2.0853,-2.1012,-2.1235,-2.1471,-2.1657,-2.1786,-2.209,-2.2327,-2.2327,-2.2327,-2.2327,-2.2282,-2.1554,-2.0942,-2.0682,-2.033,-1.9965,-1.9762,-1.9705,-1.9603,-1.9369,-1.865,-1.8092,-1.7706,-1.7118,-1.6565,-1.6534,-1.6534,-1.6534,-1.6534,-1.6534,-1.6107,-1.5287,-1.4926,-1.4376,-1.3563,-1.3065,-1.2939,-3.7312,-3.6567,-3.6578,-3.6468,-3.6193,-3.5054,-3.488,-3.5403,-3.5916,-3.5837,-3.5429,-3.5465,-3.5507,-3.5507,-3.5507,-3.5488,-3.5397,-3.4807,-3.4499,-3.441,-3.3603,-3.2904,-3.2358,-3.2274,-3.1759,-3.1063,-3.1132,-3.1113,-3.0937,-3.0918,-3.0566,-2.9863,-2.9023,-2.8242,-2.7578,-2.6335,-2.5714,-2.578,-2.5564,-2.5399,-2.5264,-2.4678,-2.4582,-2.4928,-2.462,-2.4284,-2.4092,-2.363,-2.3062,-2.2371,-2.1312,-2.0702,-2.0608,-2.0252,-2.0273,-2.0796,-2.1418,-2.2077,-2.2643,-2.2719,-2.2537,-2.2133,-2.1825,-2.1594,-2.1512,-2.1241,-2.0893,-2.0694,-2.0602,-2.0559,-2.0593,-2.0559,-2.0525,-2.0559,-2.1059,-2.1431,-2.1498,-2.1955,-2.2327,-2.2327,-2.2327,-2.2293,-2.2327,-2.2327,-2.2327,-2.2327,-2.2327,-2.2282,-2.2106,-2.1507,-2.115,-2.0781,-2.0449,-2.0054,-1.9762,-1.9705,-1.9566,-1.9442,-1.865,-1.8013,-1.7666,-1.6951,-1.6565,-1.6534,-1.6534,-1.6534,-1.6534,-1.6534,-1.602,-1.5062,-1.4744,-1.434,-1.32,-1.2929,-1.2891,-3.8096,-3.7449,-3.7393,-3.6945,-3.6413,-3.6654,-3.6676,-3.6645,-3.751,-3.7278,-3.6193,-3.5714,-3.5526,-3.5507,-3.5507,-3.5507,-3.5507,-3.5397,-3.5339,-3.5257,-3.4487,-3.4045,-3.3846,-3.3345,-3.2619,-3.1885,-3.1944,-3.1621,-3.0937,-3.0918,-3.0859,-3.0684,-2.9922,-2.9414,-2.9082,-2.696,-2.606,-2.6641,-2.5779,-2.5311,-2.5303,-2.5236,-2.4889,-2.4225,-2.4851,-2.4832,-2.4197,-2.4716,-2.5014,-2.486,-2.3594,-2.3013,-2.3027,-2.2595,-2.2117,-2.1694,-2.1784,-2.1839,-2.1931,-2.1917,-2.2263,-2.2813,-2.2606,-2.27,-2.3271,-2.3079,-2.2391,-2.1559,-2.1712,-2.1983,-2.209,-2.204,-2.1927,-2.1904,-2.2057,-2.2209,-2.2175,-2.2276,-2.2327,-2.2327,-2.2327,-2.2327,-2.2327,-2.2327,-2.2327,-2.2327,-2.2327,-2.2209,-2.1869,-2.1598,-2.1197,-2.055,-2.0035,-1.9818,-1.9705,-1.9705,-1.9369,-1.8574,-1.821,-1.7787,-1.716,-1.6752,-1.6534,-1.6534,-1.6534,-1.6534,-1.6534,-1.6479,-1.6107,-1.5017,-1.4571,-1.4294,-1.3248,-1.2891,-1.2891,-3.8511,-3.8206,-3.8181,-3.8028,-3.7753,-3.7952,-3.7727,-3.7285,-3.7915,-3.765,-3.6862,-3.6913,-3.6449,-3.5526,-3.5507,-3.5507,-3.5507,-3.5507,-3.5507,-3.5488,-3.5122,-3.4699,-3.4199,-3.4077,-3.3265,-3.1999,-3.2098,-3.1758,-3.1035,-3.0918,-3.0918,-3.0879,-3.0527,-3.0117,-2.9609,-2.904,-2.842,-2.7565,-2.6073,-2.5561,-2.5937,-2.5582,-2.5149,-2.4889,-2.5111,-2.5178,-2.4812,-2.4697,-2.4582,-2.4534,-2.3572,-2.295,-2.2822,-2.3262,-2.3019,-2.1984,-2.2259,-2.2517,-2.252,-2.2941,-2.338,-2.3712,-2.358,-2.359,-2.3678,-2.3566,-2.307,-2.2332,-2.2382,-2.249,-2.2338,-2.2327,-2.2327,-2.2327,-2.2327,-2.2327,-2.2327,-2.2327,-2.2327,-2.2327,-2.2327,-2.2327,-2.2327,-2.2327,-2.2327,-2.2327,-2.2327,-2.218,-2.202,-2.1598,-2.1118,-2.0731,-2.0139,-1.9762,-1.9705,-1.9705,-1.9332,-1.8779,-1.8302,-1.7801,-1.7201,-1.668,-1.6522,-1.6534,-1.6534,-1.6534,-1.6534,-1.6436,-1.6163,-1.5062,-1.3931,-1.343,-1.2978,-1.2891,-1.2891,-3.8707,-3.8707,-3.8707,-3.8707,-3.8689,-3.8676,-3.8416,-3.8034,-3.8394,-3.8196,-3.7637,-3.812,-3.7565,-3.6276,-3.5949,-3.5718,-3.5526,-3.5507,-3.5507,-3.5507,-3.5507,-3.5161,-3.4622,-3.4743,-3.4055,-3.2849,-3.2838,-3.2344,-3.1348,-3.0976,-3.0918,-3.0918,-3.0918,-3.0586,-3.0078,-3.0619,-3.0105,-2.8537,-2.724,-2.6801,-2.6851,-2.6101,-2.5553,-2.5322,-2.5313,-2.5313,-2.5264,-2.4736,-2.4428,-2.4409,-2.3762,-2.3263,-2.303,-2.3761,-2.3689,-2.2682,-2.2995,-2.3327,-2.3327,-2.3878,-2.419,-2.419,-2.419,-2.4164,-2.4067,-2.4017,-2.3815,-2.3458,-2.3336,-2.3158,-2.2383,-2.2327,-2.2327,-2.2327,-2.2327,-2.2327,-2.2327,-2.2327,-2.2327,-2.2327,-2.2327,-2.2327,-2.2327,-2.2327,-2.2327,-2.2327,-2.2327,-2.2225,-2.2049,-2.1477,-2.0959,-2.0797,-2.0139,-1.9762,-1.9705,-1.9705,-1.9442,-1.9006,-1.8458,-1.7907,-1.7394,-1.6879,-1.6522,-1.6534,-1.6534,-1.6479,-1.6367,-1.6324,-1.5752,-1.4698,-1.3658,-1.2968,-1.2939,-1.2891,-1.2891,-3.8707,-3.8707,-3.8707,-3.8707,-3.8707,-3.8689,-3.8836,-3.8941,-3.9325,-3.9207,-3.8766,-3.909,-3.8738,-3.7815,-3.706,-3.6252,-3.5584,-3.5526,-3.5507,-3.5507,-3.5507,-3.5488,-3.5449,-3.5565,-3.5168,-3.4225,-3.4277,-3.3613,-3.2168,-3.1328,-3.0918,-3.0937,-3.0937,-3.0879,-3.0801,-3.0856,-3.038,-2.9464,-2.9629,-2.9333,-2.7948,-2.7005,-2.6159,-2.5524,-2.5313,-2.5313,-2.5293,-2.5264,-2.5236,-2.5245,-2.49,-2.4708,-2.4615,-2.4348,-2.4115,-2.4026,-2.408,-2.4117,-2.4098,-2.4153,-2.4226,-2.4245,-2.43,-2.444,-2.4864,-2.487,-2.4843,-2.4931,-2.4806,-2.4115,-2.2796,-2.2609,-2.2513,-2.2479,-2.2383,-2.2429,-2.2367,-2.2383,-2.2299,-2.2361,-2.2344,-2.2327,-2.2327,-2.2327,-2.2395,-2.2412,-2.2378,-2.2315,-2.1966,-2.1437,-2.1021,-2.0587,-2.0157,-1.9705,-1.972,-1.9705,-1.9493,-1.8968,-1.8458,-1.7933,-1.7381,-1.6909,-1.668,-1.6534,-1.6534,-1.6423,-1.6299,-1.5716,-1.4857,-1.4021,-1.3457,-1.2968,-1.2939,-1.2891,-1.2891,-3.8707,-3.8707,-3.8707,-3.8707,-3.8707,-3.8707,-3.8873,-3.9107,-3.9438,-3.9605,-3.9662,-3.9931,-3.9604,-3.8796,-3.8522,-3.7584,-3.6295,-3.5757,-3.5507,-3.5507,-3.5507,-3.5507,-3.5526,-3.5641,-3.5284,-3.4627,-3.4629,-3.4101,-3.3008,-3.2129,-3.1738,-3.1621,-3.1172,-3.0918,-3.0918,-3.0916,-3.0642,-3.023,-3.0356,-2.9817,-2.8717,-2.7852,-2.7266,-2.693,-2.588,-2.5313,-2.5313,-2.5313,-2.5313,-2.5313,-2.5205,-2.5053,-2.4799,-2.4422,-2.4211,-2.4209,-2.419,-2.419,-2.419,-2.419,-2.4428,-2.4887,-2.498,-2.525,-2.5826,-2.5965,-2.5901,-2.5761,-2.5464,-2.4873,-2.4315,-2.3857,-2.368,-2.3697,-2.3697,-2.3646,-2.3528,-2.2933,-2.2471,-2.2806,-2.2632,-2.2327,-2.2496,-2.2716,-2.2987,-2.3054,-2.3393,-2.3382,-2.3011,-2.2588,-2.2083,-2.1574,-2.0871,-2.0348,-2.0348,-1.9929,-1.953,-1.8968,-1.8458,-1.7933,-1.7381,-1.6866,-1.6565,-1.6534,-1.6534,-1.6324,-1.6114,-1.5475,-1.4517,-1.381,-1.3238,-1.2978,-1.2891,-1.2891,-1.2891,-3.8707,-3.8707,-3.8707,-3.8707,-3.8707,-3.8707,-3.8913,-3.9264,-3.9486,-3.984,-4.0213,-4.0425,-4.0181,-3.9681,-3.9411,-3.87,-3.7469,-3.643,-3.5911,-3.5853,-3.5608,-3.5507,-3.5526,-3.5641,-3.5419,-3.4945,-3.4752,-3.4355,-3.3789,-3.2988,-3.248,-3.2168,-3.1582,-3.1172,-3.0957,-3.0906,-3.0808,-3.0602,-3.0462,-3.0086,-2.9467,-2.8698,-2.8285,-2.8084,-2.6881,-2.6159,-2.614,-2.6159,-2.614,-2.6072,-2.5627,-2.5323,-2.5333,-2.4874,-2.4704,-2.4905,-2.4983,-2.4964,-2.498,-2.4979,-2.5217,-2.5695,-2.5825,-2.6117,-2.6869,-2.6874,-2.6791,-2.6706,-2.6348,-2.5985,-2.5773,-2.5449,-2.5031,-2.4659,-2.4523,-2.4523,-2.4441,-2.3624,-2.3341,-2.3566,-2.3393,-2.3088,-2.3054,-2.3444,-2.368,-2.3748,-2.4235,-2.4269,-2.3786,-2.3365,-2.2905,-2.2359,-2.1569,-2.1105,-2.1021,-2.0752,-2.0049,-1.9478,-1.8627,-1.8057,-1.7609,-1.7012,-1.6609,-1.6572,-1.6448,-1.6238,-1.5764,-1.5141,-1.4457,-1.3732,-1.3238,-1.2929,-1.2891,-1.2891,-1.2949,-3.8707,-3.8707,-3.8707,-3.8707,-3.8707,-3.8719,-3.9064,-3.9529,-3.9622,-3.9964,-4.0406,-4.0489,-4.045,-4.0296,-3.9734,-3.9296,-3.8911,-3.7565,-3.6738,-3.6546,-3.5911,-3.5565,-3.5507,-3.5622,-3.5723,-3.5671,-3.5066,-3.4766,-3.4668,-3.3828,-3.3066,-3.2441,-3.2207,-3.1699,-3.0976,-3.0957,-3.0813,-3.0617,-3.046,-3.0371,-3.0283,-2.9525,-2.9129,-2.9048,-2.8321,-2.789,-2.789,-2.7813,-2.7659,-2.7572,-2.6293,-2.5783,-2.6277,-2.5799,-2.5731,-2.6266,-2.6482,-2.6519,-2.6486,-2.6426,-2.6368,-2.6612,-2.6612,-2.6943,-2.76,-2.75,-2.7507,-2.7893,-2.7529,-2.7178,-2.7082,-2.6717,-2.6015,-2.4831,-2.4794,-2.4794,-2.4692,-2.4574,-2.4506,-2.4455,-2.432,-2.4455,-2.4472,-2.4441,-2.4492,-2.443,-2.458,-2.4476,-2.393,-2.3545,-2.2995,-2.2492,-2.2046,-2.1764,-2.1695,-2.159,-2.0812,-1.9997,-1.9063,-1.8303,-1.8026,-1.7557,-1.7125,-1.7024,-1.6835,-1.6554,-1.5105,-1.4528,-1.4143,-1.3563,-1.321,-1.291,-1.29,-1.2959,-1.2988,-3.8707,-3.8707,-3.8707,-3.8707,-3.8719,-3.8894,-3.9223,-3.9622,-3.9819,-4.0157,-4.0457,-4.0489,-4.0489,-4.045,-4.0235,-4.0123,-4.0027,-3.895,-3.7873,-3.6853,-3.6449,-3.6007,-3.5603,-3.5641,-3.5796,-3.589,-3.572,-3.5586,-3.541,-3.4707,-3.4121,-3.3789,-3.2754,-3.2109,-3.1738,-3.1242,-3.0808,-3.0606,-3.0467,-3.0398,-3.0398,-3.014,-2.9994,-2.9975,-2.9725,-2.964,-2.9563,-2.8525,-2.7928,-2.7928,-2.7395,-2.6953,-2.6617,-2.637,-2.6337,-2.6557,-2.6618,-2.6602,-2.6612,-2.6648,-2.6903,-2.7288,-2.742,-2.7805,-2.8439,-2.8215,-2.8052,-2.819,-2.7694,-2.7303,-2.7241,-2.6922,-2.6471,-2.6031,-2.6015,-2.5913,-2.5812,-2.5524,-2.5215,-2.4989,-2.4689,-2.4523,-2.4611,-2.4847,-2.5076,-2.4863,-2.5113,-2.5146,-2.4383,-2.4018,-2.3787,-2.3284,-2.2851,-2.2368,-2.2353,-2.2122,-2.1465,-2.0611,-1.968,-1.8768,-1.8468,-1.8044,-1.7644,-1.738,-1.7205,-1.645,-1.4971,-1.4212,-1.3994,-1.3532,-1.3135,-1.2978,-1.2939,-1.3077,-1.3233,-3.8707,-3.8707,-3.8707,-3.8707,-3.8719,-3.8999,-3.9289,-3.9622,-3.9962,-4.025,-4.0457,-4.0489,-4.0489,-4.0489,-4.0489,-4.0489,-4.0446,-3.995,-3.8988,-3.7661,-3.6892,-3.6262,-3.5614,-3.5718,-3.5862,-3.5976,-3.6016,-3.6016,-3.5976,-3.5469,-3.5039,-3.4512,-3.3633,-3.2754,-3.2159,-3.1309,-3.0808,-3.059,-3.0467,-3.0398,-3.0398,-3.0398,-3.0398,-3.0398,-3.0398,-3.0398,-3.0333,-2.9352,-2.8832,-2.8722,-2.8414,-2.7883,-2.7509,-2.7251,-2.7181,-2.7457,-2.7512,-2.753,-2.749,-2.7584,-2.7666,-2.8127,-2.8114,-2.8278,-2.873,-2.854,-2.8147,-2.7896,-2.7578,-2.7303,-2.7272,-2.6939,-2.6725,-2.6691,-2.664,-2.6708,-2.6623,-2.6302,-2.5996,-2.5758,-2.5522,-2.5353,-2.5439,-2.5413,-2.5647,-2.5388,-2.5471,-2.5439,-2.4666,-2.4387,-2.4096,-2.3761,-2.3293,-2.3026,-2.2981,-2.2589,-2.2083,-2.1254,-2.0299,-1.9486,-1.8924,-1.8396,-1.7953,-1.775,-1.7554,-1.6847,-1.5485,-1.4969,-1.4591,-1.389,-1.3262,-1.3428,-1.3555,-1.3594,-1.364,-3.8707,-3.8707,-3.8707,-3.8719,-3.8792,-3.9036,-3.9339,-3.9649,-3.9983,-4.0286,-4.0473,-4.0489,-4.0489,-4.0489,-4.0489,-4.0489,-4.0489,-4.0431,-4.0008,-3.8988,-3.7815,-3.6628,-3.5729,-3.5842,-3.5988,-3.6016,-3.6016,-3.6016,-3.5996,-3.5918,-3.5586,-3.4902,-3.459,-3.3856,-3.2492,-3.1421,-3.0795,-3.0733,-3.0513,-3.0398,-3.0398,-3.0398,-3.0398,-3.0398,-3.0398,-3.0398,-3.0359,-3.0163,-3.0208,-3.0203,-2.9167,-2.8652,-2.8741,-2.8254,-2.8191,-2.8737,-2.8938,-2.8828,-2.8902,-2.8737,-2.8764,-2.874,-2.853,-2.854,-2.87,-2.821,-2.7731,-2.7477,-2.7297,-2.7241,-2.7147,-2.6906,-2.6725,-2.6708,-2.6708,-2.6708,-2.6708,-2.6657,-2.6572,-2.6573,-2.6657,-2.6657,-2.6471,-2.6233,-2.604,-2.5773,-2.546,-2.5006,-2.4458,-2.4194,-2.4055,-2.3815,-2.3488,-2.3415,-2.3281,-2.2892,-2.2353,-2.1563,-2.0708,-2.0013,-1.9396,-1.8878,-1.8421,-1.8202,-1.7739,-1.6971,-1.6214,-1.5531,-1.4799,-1.4089,-1.3896,-1.4038,-1.4068,-1.4072,-1.3874,-3.8707,-3.8707,-3.8707,-3.8833,-3.9027,-3.9333,-3.9588,-3.9849,-4.0229,-4.0406,-4.0489,-4.0489,-4.0489,-4.0489,-4.0489,-4.0489,-4.0489,-4.0489,-4.0446,-4.0081,-3.9196,-3.7565,-3.6144,-3.5937,-3.6016,-3.6016,-3.6016,-3.6016,-3.6016,-3.6016,-3.5859,-3.5644,-3.5019,-3.4506,-3.3712,-3.183,-3.1067,-3.1256,-3.0686,-3.0398,-3.0398,-3.0398,-3.0398,-3.0398,-3.0398,-3.0398,-3.0367,-3.0209,-3.0223,-3.0333,-2.9625,-2.9093,-2.8975,-2.876,-2.8741,-2.8902,-2.8975,-2.8975,-2.8975,-2.8975,-2.8881,-2.859,-2.8464,-2.8324,-2.8156,-2.7736,-2.7308,-2.6991,-2.6877,-2.6873,-2.6858,-2.6791,-2.6708,-2.6708,-2.6708,-2.6708,-2.6708,-2.6708,-2.6708,-2.6708,-2.6708,-2.6708,-2.6624,-2.647,-2.6123,-2.5582,-2.5173,-2.4854,-2.4194,-2.3906,-2.3806,-2.3736,-2.355,-2.358,-2.3435,-2.3128,-2.2548,-2.1806,-2.1036,-2.0368,-1.9858,-1.9509,-1.9145,-1.8869,-1.8034,-1.7271,-1.6378,-1.5574,-1.4914,-1.4316,-1.4287,-1.4301,-1.4282,-1.4243,-1.4016,-3.8707,-3.8689,-3.8833,-3.8961,-3.916,-3.9599,-3.9846,-3.9967,-4.0315,-4.0489,-4.0489,-4.0489,-4.0489,-4.0489,-4.0489,-4.0489,-4.0489,-4.0489,-4.0489,-4.0438,-4.0095,-3.8653,-3.6914,-3.623,-3.6016,-3.6016,-3.6016,-3.6016,-3.6016,-3.6016,-3.6016,-3.5898,-3.5483,-3.5018,-3.4439,-3.3562,-3.2281,-3.1756,-3.0879,-3.0398,-3.0398,-3.0398,-3.0398,-3.0398,-3.0398,-3.0398,-3.0355,-3.0066,-2.9962,-2.9996,-2.9625,-2.9267,-2.904,-2.8975,-2.8975,-2.8975,-2.8975,-2.8975,-2.8975,-2.8975,-2.8797,-2.8471,-2.8298,-2.8084,-2.7851,-2.7409,-2.6899,-2.6768,-2.6703,-2.6691,-2.6708,-2.6708,-2.6708,-2.6708,-2.6708,-2.6708,-2.6708,-2.6708,-2.6708,-2.6708,-2.6691,-2.659,-2.6436,-2.6245,-2.5709,-2.5051,-2.4617,-2.421,-2.3752,-2.3638,-2.3595,-2.3595,-2.3595,-2.3551,-2.3363,-2.3009,-2.2346,-2.1649,-2.089,-2.0295,-2.0105,-1.9798,-1.9569,-1.915,-1.8358,-1.7542,-1.6721,-1.5903,-1.529,-1.4824,-1.4687,-1.4658,-1.4717,-1.4305,-1.411,-3.8738,-3.8762,-3.8999,-3.9152,-3.9314,-3.9838,-4.0043,-4.0043,-4.0351,-4.0489,-4.0489,-4.0489,-4.0489,-4.0489,-4.0489,-4.0489,-4.0489,-4.0489,-4.0508,-4.0579,-4.0447,-3.9469,-3.7473,-3.6368,-3.6055,-3.6016,-3.6016,-3.6016,-3.6016,-3.6016,-3.6016,-3.5957,-3.5879,-3.5452,-3.4981,-3.511,-3.4186,-3.2134,-3.0898,-3.0417,-3.0398,-3.0398,-3.0398,-3.0398,-3.0398,-3.0355,-3.0241,-2.9958,-2.9734,-2.968,-2.9455,-2.9225,-2.8998,-2.8975,-2.8975,-2.8975,-2.8975,-2.8975,-2.897,-2.8942,-2.8737,-2.836,-2.7974,-2.7794,-2.7589,-2.7083,-2.6738,-2.6725,-2.6704,-2.6708,-2.6708,-2.6708,-2.6708,-2.6708,-2.6708,-2.6708,-2.6708,-2.6708,-2.6708,-2.6708,-2.6708,-2.6487,-2.6068,-2.5577,-2.5089,-2.476,-2.4343,-2.4076,-2.3776,-2.3638,-2.3595,-2.3595,-2.3551,-2.3566,-2.3275,-2.2905,-2.2132,-2.1315,-2.0508,-1.9952,-1.9952,-1.9811,-1.972,-1.9282,-1.8307,-1.7628,-1.7104,-1.6395,-1.5561,-1.5254,-1.5068,-1.5205,-1.5274,-1.4571,-1.4139,-3.8815,-3.9008,-3.9072,-3.9408,-3.9859,-4.0061,-4.0194,-4.0367,-4.0473,-4.0489,-4.0489,-4.0489,-4.0489,-4.0489,-4.0489,-4.0489,-4.0489,-4.0508,-4.0566,-4.0731,-4.0776,-3.9887,-3.8184,-3.6719,-3.6055,-3.6016,-3.6016,-3.6016,-3.6016,-3.6016,-3.6016,-3.5976,-3.5899,-3.5759,-3.5521,-3.5437,-3.4738,-3.2737,-3.1212,-3.0521,-3.0417,-3.0456,-3.0456,-3.0398,-3.0379,-3.0267,-3.0095,-2.9848,-2.9662,-2.9492,-2.9265,-2.9067,-2.8998,-2.8975,-2.8975,-2.8975,-2.8975,-2.8975,-2.8923,-2.8721,-2.8389,-2.8055,-2.7707,-2.7286,-2.6971,-2.6841,-2.6708,-2.669,-2.6691,-2.6708,-2.6708,-2.6708,-2.6708,-2.6708,-2.6708,-2.6708,-2.6708,-2.6708,-2.6708,-2.6708,-2.6674,-2.6521,-2.6033,-2.5815,-2.5281,-2.4601,-2.424,-2.401,-2.3812,-2.3623,-2.3595,-2.3595,-2.3421,-2.3334,-2.2891,-2.2423,-2.1568,-2.0939,-2.0232,-1.9798,-1.9798,-1.9617,-1.9485,-1.897,-1.8216,-1.7645,-1.709,-1.6301,-1.5352,-1.5391,-1.542,-1.5294,-1.5118,-1.4569,-1.3811,-3.9054,-3.9339,-3.9486,-3.9775,-4.0101,-4.0232,-4.0372,-4.0473,-4.0489,-4.0489,-4.0489,-4.0489,-4.0489,-4.0489,-4.0489,-4.0489,-4.0508,-4.0566,-4.045,-4.0431,-4.0515,-3.9753,-3.8047,-3.6777,-3.6016,-3.6016,-3.6016,-3.6016,-3.6016,-3.6016,-3.5976,-3.5936,-3.5863,-3.5747,-3.5669,-3.5611,-3.4802,-3.3468,-3.2205,-3.1251,-3.0559,-3.0802,-3.0706,-3.0432,-3.0273,-3.0128,-2.9999,-2.9713,-2.957,-2.9427,-2.9175,-2.8975,-2.8975,-2.8975,-2.8975,-2.8975,-2.8975,-2.8975,-2.8894,-2.8626,-2.8271,-2.7915,-2.753,-2.7115,-2.6825,-2.6708,-2.6708,-2.6708,-2.6691,-2.6708,-2.6708,-2.6708,-2.6708,-2.6708,-2.6708,-2.6708,-2.6708,-2.6708,-2.6708,-2.6657,-2.647,-2.6104,-2.5815,-2.5577,-2.4989,-2.4101,-2.3975,-2.3758,-2.3773,-2.3595,-2.3595,-2.3508,-2.329,-2.295,-2.25,-2.1885,-2.1015,-2.0484,-2.0042,-1.9798,-1.9798,-1.946,-1.9129,-1.8565,-1.7988,-1.7357,-1.6754,-1.5968,-1.541,-1.541,-1.5352,-1.5177,-1.4756,-1.4025,-1.3245,-3.9364,-3.969,-3.9982,-4.0139,-4.0195,-4.0389,-4.0489,-4.0489,-4.0489,-4.0489,-4.0489,-4.0489,-4.0489,-4.0489,-4.0489,-4.045,-4.0342,-4.0378,-4.0138,-3.9608,-3.9978,-3.9096,-3.7539,-3.6543,-3.6016,-3.6016,-3.6016,-3.6016,-3.6016,-3.5996,-3.5957,-3.5886,-3.5756,-3.5684,-3.5605,-3.5482,-3.4956,-3.3833,-3.3487,-3.234,-3.1059,-3.1263,-3.1148,-3.0407,-3.0133,-2.9946,-2.9832,-2.9589,-2.9411,-2.9425,-2.9171,-2.904,-2.8975,-2.8975,-2.8975,-2.8975,-2.8975,-2.8929,-2.8785,-2.8476,-2.8134,-2.7829,-2.7409,-2.7083,-2.6774,-2.6708,-2.6708,-2.6708,-2.6708,-2.6708,-2.6708,-2.6708,-2.6708,-2.6708,-2.6708,-2.6708,-2.6708,-2.6657,-2.6556,-2.6505,-2.6245,-2.5888,-2.5297,-2.4871,-2.4241,-2.3752,-2.3638,-2.3595,-2.3595,-2.3551,-2.3551,-2.3421,-2.3187,-2.2406,-2.1899,-2.1315,-2.0434,-2.0194,-1.9798,-1.9645,-1.9606,-1.9267,-1.8827,-1.8371,-1.7767,-1.7134,-1.6472,-1.5806,-1.5468,-1.541,-1.5108,-1.4815,-1.4204,-1.3425,-1.2692,-3.9731,-4.0022,-4.0081,-4.0213,-4.0406,-4.0489,-4.0489,-4.0489,-4.0489,-4.0489,-4.0489,-4.0489,-4.0489,-4.0489,-4.0469,-4.0181,-3.9744,-3.9712,-3.9412,-3.8783,-3.8965,-3.832,-3.7246,-3.6406,-3.6035,-3.6016,-3.6016,-3.6016,-3.6016,-3.6016,-3.5937,-3.5883,-3.5759,-3.5643,-3.5592,-3.5507,-3.5097,-3.4468,-3.4501,-3.3654,-3.216,-3.152,-3.1162,-3.0218,-2.9996,-2.9803,-2.957,-2.9454,-2.9289,-2.9089,-2.904,-2.8998,-2.8975,-2.8975,-2.8975,-2.8975,-2.8952,-2.8821,-2.8558,-2.8208,-2.7789,-2.7448,-2.7051,-2.6841,-2.6725,-2.6708,-2.6708,-2.6708,-2.6708,-2.6708,-2.6708,-2.6708,-2.6708,-2.6708,-2.6657,-2.6657,-2.659,-2.6367,-2.6068,-2.598,-2.5835,-2.5635,-2.4989,-2.4446,-2.4032,-2.3767,-2.3638,-2.3595,-2.3595,-2.3566,-2.3523,-2.3334,-2.3054,-2.2114,-2.121,-2.057,-1.9952,-1.994,-1.9658,-1.9327,-1.9184,-1.8919,-1.8501,-1.7878,-1.7266,-1.6627,-1.6036,-1.5584,-1.5352,-1.5177,-1.4805,-1.4392,-1.3597,-1.287,-1.2281,-3.996,-4.0138,-4.0251,-4.0372,-4.0489,-4.0489,-4.0489,-4.0489,-4.0489,-4.0489,-4.0489,-4.0489,-4.0489,-4.0392,-4.005,-3.9535,-3.9078,-3.8961,-3.8561,-3.8038,-3.8262,-3.7832,-3.6816,-3.6172,-3.6055,-3.6016,-3.6016,-3.6016,-3.6016,-3.5976,-3.5898,-3.5784,-3.5669,-3.5622,-3.5565,-3.5507,-3.5257,-3.5007,-3.5174,-3.4655,-3.2801,-3.2077,-3.0978,-3.0266,-2.9782,-2.9589,-2.9434,-2.9225,-2.9115,-2.9021,-2.8998,-2.8975,-2.8975,-2.8975,-2.8975,-2.8952,-2.8815,-2.8615,-2.8324,-2.794,-2.7496,-2.7321,-2.6939,-2.6725,-2.6708,-2.6708,-2.6708,-2.6708,-2.6708,-2.6708,-2.6708,-2.6691,-2.6708,-2.6657,-2.6505,-2.6332,-2.6227,-2.5872,-2.5561,-2.5297,-2.5105,-2.4871,-2.4672,-2.4199,-2.3921,-2.3724,-2.3595,-2.3551,-2.3551,-2.3421,-2.3304,-2.2844,-2.2406,-2.1404,-2.0594,-2.0245,-1.9798,-1.9747,-1.9463,-1.9132,-1.8613,-1.8258,-1.7744,-1.7127,-1.6561,-1.6171,-1.5816,-1.541,-1.5177,-1.4932,-1.451,-1.3965,-1.3114,-1.2366,-1.1789,-3.9624,-3.97,-3.9893,-4.0008,-4.0027,-4.0215,-4.035,-4.0485,-4.0504,-4.0258,-4.0027,-4.0123,-4.0085,-3.9865,-3.9394,-3.8796,-3.8185,-3.8161,-3.7734,-3.7266,-3.7578,-3.7187,-3.6387,-3.6016,-3.6016,-3.6016,-3.6016,-3.6016,-3.5976,-3.5937,-3.582,-3.5704,-3.5605,-3.5565,-3.5526,-3.5507,-3.5507,-3.5507,-3.5468,-3.493,-3.3755,-3.223,-3.0975,-3.0209,-2.9664,-2.9392,-2.9267,-2.9134,-2.9044,-2.8998,-2.8975,-2.8975,-2.8975,-2.8975,-2.8975,-2.8929,-2.8633,-2.842,-2.8139,-2.7718,-2.7289,-2.7115,-2.6873,-2.6758,-2.6708,-2.6708,-2.6708,-2.6708,-2.6708,-2.6708,-2.6691,-2.6573,-2.6556,-2.6453,-2.6104,-2.5799,-2.5689,-2.5411,-2.4973,-2.4657,-2.4348,-2.4199,-2.4116,-2.4048,-2.3724,-2.3681,-2.3595,-2.3334,-2.329,-2.3009,-2.274,-2.2203,-2.1534,-2.0539,-1.9978,-2.0042,-1.9798,-1.9798,-1.9267,-1.8785,-1.8151,-1.75,-1.6931,-1.6477,-1.6321,-1.5951,-1.5594,-1.5294,-1.505,-1.4688,-1.4273,-1.3545,-1.2626,-1.1834,-1.1274,-3.8032,-3.8258,-3.83,-3.8296,-3.8454,-3.9142,-3.9869,-4.0462,-4.0408,-3.9623,-3.8569,-3.9046,-3.9027,-3.8513,-3.8468,-3.7974,-3.75,-3.7324,-3.7012,-3.6445,-3.6484,-3.6445,-3.6035,-3.6016,-3.5996,-3.5996,-3.5996,-3.5976,-3.592,-3.5873,-3.5788,-3.5643,-3.5592,-3.5565,-3.5507,-3.5507,-3.5507,-3.5507,-3.5474,-3.5032,-3.3986,-3.2335,-3.1352,-3.0655,-2.9982,-2.9326,-2.9149,-2.9021,-2.8998,-2.8975,-2.8975,-2.8975,-2.8975,-2.8975,-2.8975,-2.8905,-2.8651,-2.8264,-2.7974,-2.753,-2.7115,-2.6906,-2.6725,-2.6708,-2.6708,-2.6708,-2.6708,-2.6708,-2.6708,-2.6792,-2.6774,-2.6364,-2.6173,-2.5987,-2.5826,-2.548,-2.5301,-2.4831,-2.443,-2.4266,-2.4074,-2.3879,-2.3709,-2.3681,-2.3595,-2.3595,-2.3551,-2.329,-2.2994,-2.2706,-2.2035,-2.1382,-2.1028,-2.0129,-1.9826,-1.9837,-1.9798,-1.9798,-1.9044,-1.8405,-1.782,-1.709,-1.6337,-1.5972,-1.5846,-1.5672,-1.5235,-1.4991,-1.4864,-1.4323,-1.3606,-1.2879,-1.2081,-1.1413,-1.0863,-3.6784,-3.7719,-3.7901,-3.8003,-3.8055,-3.8426,-3.9326,-4.0111,-3.9465,-3.87,-3.8146,-3.8354,-3.8142,-3.7574,-3.7565,-3.7201,-3.6621,-3.6582,-3.6406,-3.6094,-3.6016,-3.6016,-3.6016,-3.5996,-3.5976,-3.5944,-3.5931,-3.5859,-3.5786,-3.5753,-3.5706,-3.5605,-3.5584,-3.5526,-3.5507,-3.5507,-3.5507,-3.5441,-3.5254,-3.4757,-3.3895,-3.2841,-3.1769,-3.0826,-3.0185,-2.9576,-2.9113,-2.8975,-2.8975,-2.8975,-2.8975,-2.8845,-2.8652,-2.8578,-2.8565,-2.8334,-2.7974,-2.7809,-2.7794,-2.7296,-2.6954,-2.6791,-2.6708,-2.6708,-2.6708,-2.6759,-2.6979,-2.7317,-2.6928,-2.696,-2.7234,-2.6842,-2.6711,-2.6403,-2.5775,-2.5399,-2.5055,-2.4302,-2.3921,-2.3837,-2.3809,-2.3681,-2.3595,-2.3595,-2.3595,-2.3595,-2.3465,-2.3143,-2.2735,-2.2292,-2.1477,-2.0459,-2.0169,-1.9864,-1.9787,-1.9798,-1.9747,-1.9527,-1.8501,-1.7941,-1.7534,-1.686,-1.6009,-1.5634,-1.5576,-1.5312,-1.4883,-1.4346,-1.3895,-1.3382,-1.2879,-1.2205,-1.1538,-1.117,-1.0681,-3.5909,-3.7013,-3.7274,-3.7368,-3.7396,-3.7579,-3.8195,-3.8979,-3.8426,-3.7796,-3.7435,-3.7353,-3.7089,-3.6825,-3.6752,-3.6523,-3.6074,-3.6016,-3.6016,-3.6016,-3.6016,-3.6016,-3.6016,-3.5996,-3.5968,-3.5886,-3.59,-3.5811,-3.5669,-3.5643,-3.565,-3.5565,-3.5545,-3.5507,-3.5507,-3.5474,-3.546,-3.5277,-3.5073,-3.4649,-3.4052,-3.3346,-3.2219,-3.1229,-3.0397,-2.9824,-2.9145,-2.8975,-2.8975,-2.8994,-2.8863,-2.8621,-2.8345,-2.827,-2.8192,-2.7964,-2.7648,-2.7496,-2.7455,-2.7161,-2.6791,-2.6708,-2.6708,-2.6708,-2.6759,-2.6911,-2.7233,-2.774,-2.7444,-2.7528,-2.769,-2.7271,-2.6807,-2.6425,-2.601,-2.5577,-2.5157,-2.4546,-2.3949,-2.3724,-2.3681,-2.3638,-2.3595,-2.3595,-2.3595,-2.3551,-2.3363,-2.3009,-2.2399,-2.1732,-2.1027,-2.0016,-1.994,-1.9799,-1.9722,-1.9747,-1.9695,-1.9202,-1.8178,-1.749,-1.7065,-1.6441,-1.572,-1.543,-1.5399,-1.5046,-1.4666,-1.3784,-1.2929,-1.2631,-1.2205,-1.16,-1.1052,-1.0744,-1.0378,-3.5523,-3.5638,-3.5685,-3.5757,-3.5815,-3.6469,-3.6454,-3.6435,-3.745,-3.7051,-3.6017,-3.5839,-3.6065,-3.6034,-3.6137,-3.6087,-3.6016,-3.6016,-3.6016,-3.6016,-3.6016,-3.6016,-3.6016,-3.5996,-3.5958,-3.5879,-3.5842,-3.5738,-3.5641,-3.5603,-3.5565,-3.5526,-3.5507,-3.5507,-3.5474,-3.5427,-3.5277,-3.5073,-3.4826,-3.4737,-3.426,-3.3593,-3.2612,-3.173,-3.0748,-2.9843,-2.909,-2.9012,-2.8929,-2.8929,-2.8682,-2.8358,-2.8085,-2.7966,-2.7833,-2.7648,-2.7409,-2.7257,-2.7183,-2.6992,-2.6757,-2.6708,-2.6793,-2.6843,-2.6774,-2.8117,-2.8422,-2.7969,-2.7757,-2.7888,-2.7737,-2.7237,-2.6804,-2.6622,-2.6306,-2.5788,-2.541,-2.4972,-2.4402,-2.3804,-2.3684,-2.3819,-2.3554,-2.354,-2.3348,-2.329,-2.2575,-2.2207,-2.15,-2.0888,-2.041,-1.985,-1.985,-1.9734,-1.9631,-1.9488,-1.915,-1.8555,-1.7633,-1.709,-1.6673,-1.5979,-1.542,-1.543,-1.538,-1.4849,-1.4207,-1.3097,-1.2273,-1.1989,-1.1648,-1.117,-1.0787,-1.0465,-1.0053,-3.5507,-3.5507,-3.5507,-3.5507,-3.5545,-3.5834,-3.5782,-3.5628,-3.6166,-3.6185,-3.557,-3.5718,-3.5815,-3.5893,-3.5949,-3.5974,-3.6016,-3.6016,-3.6016,-3.6016,-3.6016,-3.6016,-3.5996,-3.5943,-3.5902,-3.5794,-3.5732,-3.5661,-3.5565,-3.5565,-3.5526,-3.5507,-3.5507,-3.5507,-3.546,-3.5296,-3.5057,-3.4845,-3.449,-3.4261,-3.4285,-3.3876,-3.313,-3.2293,-3.1433,-3.0558,-2.9824,-2.9255,-2.8955,-2.8676,-2.8507,-2.813,-2.7763,-2.7584,-2.7439,-2.7272,-2.7051,-2.6982,-2.6977,-2.6805,-2.6725,-2.6843,-2.7165,-2.7382,-2.705,-2.8412,-2.8758,-2.8467,-2.8099,-2.8176,-2.8186,-2.7607,-2.7072,-2.6959,-2.663,-2.6126,-2.5734,-2.539,-2.5061,-2.4582,-2.4358,-2.4313,-2.3911,-2.3496,-2.323,-2.2934,-2.2128,-2.1369,-2.0746,-2.0308,-2.0003,-1.9798,-1.9798,-1.9475,-1.9319,-1.8939,-1.8501,-1.7852,-1.7146,-1.6698,-1.6265,-1.5874,-1.543,-1.5381,-1.5212,-1.4625,-1.3726,-1.2359,-1.1717,-1.1593,-1.1288,-1.0863,-1.0534,-1.0168,-0.9685,-3.5507,-3.5507,-3.5507,-3.5507,-3.5507,-3.5507,-3.5507,-3.5507,-3.5565,-3.5603,-3.5699,-3.5834,-3.5898,-3.5946,-3.5974,-3.5996,-3.6016,-3.6016,-3.6016,-3.6016,-3.6016,-3.6016,-3.5976,-3.5916,-3.5844,-3.5698,-3.5631,-3.5565,-3.5507,-3.5507,-3.5507,-3.5507,-3.5507,-3.5507,-3.5427,-3.5181,-3.4883,-3.4584,-3.4301,-3.3918,-3.4074,-3.3873,-3.3393,-3.2676,-3.199,-3.1366,-3.0528,-2.9801,-2.9155,-2.8763,-2.838,-2.784,-2.747,-2.7178,-2.6971,-2.6825,-2.6708,-2.6708,-2.6725,-2.691,-2.7029,-2.7232,-2.7322,-2.7491,-2.776,-2.8572,-2.8845,-2.8414,-2.8259,-2.8307,-2.8448,-2.7825,-2.7418,-2.7274,-2.7214,-2.6752,-2.6378,-2.6033,-2.5734,-2.539,-2.5135,-2.4774,-2.3974,-2.3398,-2.2592,-2.2239,-2.1657,-2.093,-2.0396,-2.0055,-1.9901,-1.9798,-1.9798,-1.9371,-1.8886,-1.8447,-1.7961,-1.7246,-1.6652,-1.6244,-1.5864,-1.5546,-1.5196,-1.4921,-1.4639,-1.4317,-1.3339,-1.1999,-1.1563,-1.1365,-1.1024,-1.0755,-1.016,-0.9741,-0.9181,-3.5507,-3.5507,-3.5507,-3.5507,-3.5507,-3.5507,-3.5507,-3.5526,-3.5603,-3.5718,-3.5861,-3.5907,-3.5946,-3.5976,-3.6016,-3.6016,-3.6016,-3.6016,-3.6016,-3.6016,-3.6016,-3.6016,-3.5957,-3.5899,-3.5784,-3.5707,-3.5622,-3.5545,-3.5507,-3.5507,-3.5507,-3.546,-3.5446,-3.5446,-3.5446,-3.5223,-3.4794,-3.4315,-3.4204,-3.4025,-3.3884,-3.3815,-3.3366,-3.2944,-3.2522,-3.1953,-3.1352,-3.0283,-2.9682,-2.9386,-2.8323,-2.7753,-2.7431,-2.699,-2.6758,-2.6725,-2.6708,-2.6708,-2.6776,-2.7395,-2.7801,-2.7803,-2.7864,-2.7673,-2.8059,-2.8567,-2.8721,-2.8268,-2.8306,-2.8405,-2.8255,-2.8012,-2.7715,-2.7535,-2.7445,-2.7325,-2.6901,-2.6707,-2.6422,-2.6165,-2.5774,-2.5239,-2.4276,-2.3261,-2.2105,-2.1464,-2.1004,-2.0586,-2.022,-1.9901,-1.9798,-1.9695,-1.9643,-1.9032,-1.8447,-1.7895,-1.7357,-1.6652,-1.6171,-1.5914,-1.5673,-1.539,-1.5006,-1.4543,-1.4206,-1.3916,-1.2822,-1.1582,-1.1403,-1.1231,-1.0978,-1.0619,-0.997,-0.9316,-0.8748,-3.5507,-3.5507,-3.5507,-3.5507,-3.5507,-3.5507,-3.5507,-3.5545,-3.5738,-3.5886,-3.5912,-3.5951,-3.5958,-3.5996,-3.6016,-3.6016,-3.6016,-3.6016,-3.6016,-3.6016,-3.5996,-3.5976,-3.592,-3.5824,-3.572,-3.5656,-3.5584,-3.5526,-3.5507,-3.5507,-3.5507,-3.5474,-3.5324,-3.5239,-3.5086,-3.4794,-3.4338,-3.4195,-3.4043,-3.3895,-3.3834,-3.3788,-3.3642,-3.3311,-3.2908,-3.2515,-3.2125,-3.1021,-3.0294,-2.9869,-2.8732,-2.7937,-2.7535,-2.7029,-2.6742,-2.6725,-2.6742,-2.6962,-2.7603,-2.8407,-2.9009,-2.8766,-2.8478,-2.8274,-2.8375,-2.8833,-2.8632,-2.8186,-2.8262,-2.8238,-2.7894,-2.7745,-2.7595,-2.7595,-2.75,-2.7535,-2.729,-2.734,-2.7156,-2.6907,-2.654,-2.4948,-2.3719,-2.3313,-2.235,-2.1622,-2.1287,-2.0862,-2.0469,-2.0039,-1.9811,-1.9592,-1.9371,-1.8715,-1.8058,-1.7468,-1.68,-1.6083,-1.5828,-1.5742,-1.5507,-1.5393,-1.5106,-1.4711,-1.4119,-1.3493,-1.26,-1.185,-1.1464,-1.1169,-1.0935,-1.0489,-0.9838,-0.9104,-0.847,-3.5507,-3.5507,-3.5507,-3.5507,-3.5507,-3.5526,-3.5565,-3.568,-3.5886,-3.5951,-3.5962,-3.5996,-3.6016,-3.6016,-3.6016,-3.6016,-3.6016,-3.6016,-3.6016,-3.5996,-3.5957,-3.5943,-3.5869,-3.5742,-3.5654,-3.5592,-3.5545,-3.5507,-3.5507,-3.5507,-3.5426,-3.5305,-3.5108,-3.4908,-3.4696,-3.4386,-3.4171,-3.4043,-3.3876,-3.3834,-3.3807,-3.3807,-3.3807,-3.3642,-3.3366,-3.301,-3.2648,-3.1862,-3.0755,-3.0119,-2.9286,-2.8253,-2.7606,-2.708,-2.6843,-2.6979,-2.7437,-2.7844,-2.8772,-2.9278,-2.9676,-2.9527,-2.9387,-2.8973,-2.8484,-2.8544,-2.8292,-2.7997,-2.8042,-2.7959,-2.771,-2.756,-2.756,-2.756,-2.756,-2.7545,-2.7494,-2.7464,-2.7261,-2.7056,-2.6454,-2.4783,-2.3417,-2.3054,-2.2559,-2.2109,-2.1662,-2.1217,-2.0803,-2.0298,-1.9728,-1.9393,-1.8963,-1.8274,-1.7633,-1.6978,-1.6255,-1.5526,-1.5586,-1.5791,-1.5677,-1.5534,-1.5232,-1.4815,-1.4148,-1.3423,-1.2719,-1.2061,-1.1577,-1.1224,-1.1012,-1.0455,-0.9678,-0.8898,-0.8075,-3.5449,-3.5468,-3.5507,-3.5507,-3.5507,-3.5584,-3.5699,-3.5886,-3.5945,-3.6021,-3.6016,-3.5996,-3.6016,-3.6016,-3.6016,-3.6016,-3.6016,-3.6016,-3.5996,-3.5976,-3.5937,-3.5912,-3.5817,-3.5682,-3.5618,-3.5572,-3.5545,-3.5507,-3.5488,-3.5412,-3.5305,-3.5059,-3.481,-3.4548,-3.4311,-3.4171,-3.4037,-3.3902,-3.3842,-3.3807,-3.3807,-3.3807,-3.3807,-3.3707,-3.3561,-3.3488,-3.3063,-3.2199,-3.1213,-3.0387,-2.9555,-2.834,-2.7436,-2.6826,-2.7249,-2.7792,-2.8562,-2.9227,-2.9668,-3.0034,-2.9987,-2.9823,-2.9507,-2.9041,-2.8576,-2.8161,-2.783,-2.771,-2.776,-2.771,-2.756,-2.756,-2.756,-2.7509,-2.7458,-2.7473,-2.7437,-2.7335,-2.7041,-2.6654,-2.6101,-2.497,-2.3923,-2.3354,-2.287,-2.269,-2.2189,-2.1567,-2.1051,-2.0444,-1.9834,-1.9143,-1.8576,-1.7863,-1.7213,-1.6623,-1.6287,-1.5713,-1.5957,-1.6111,-1.5918,-1.5523,-1.4963,-1.448,-1.4009,-1.3408,-1.2607,-1.1989,-1.152,-1.1155,-1.0657,-0.9821,-0.8905,-0.8309,-0.7584,-3.4589,-3.4653,-3.5301,-3.5565,-3.5584,-3.568,-3.5795,-3.5888,-3.5981,-3.6016,-3.6016,-3.6016,-3.6016,-3.6016,-3.6016,-3.6016,-3.6016,-3.5996,-3.5976,-3.5937,-3.5886,-3.5797,-3.5699,-3.5622,-3.5565,-3.5526,-3.5507,-3.5474,-3.5446,-3.5335,-3.5075,-3.4797,-3.4539,-3.4232,-3.4037,-3.3928,-3.3868,-3.3842,-3.3807,-3.3807,-3.3807,-3.3807,-3.3807,-3.378,-3.3522,-3.347,-3.3104,-3.2309,-3.1514,-3.115,-3.0103,-2.9161,-2.9262,-2.8361,-2.8073,-2.8638,-2.9327,-2.9873,-3.0065,-3.0187,-3.0082,-2.9673,-2.9134,-2.8779,-2.8367,-2.7993,-2.761,-2.756,-2.756,-2.756,-2.756,-2.756,-2.7509,-2.7357,-2.7203,-2.6982,-2.6989,-2.6939,-2.6605,-2.5713,-2.5177,-2.4644,-2.3708,-2.3433,-2.2971,-2.3025,-2.2755,-2.1987,-2.1317,-2.0648,-1.9646,-1.8873,-1.8054,-1.7213,-1.6857,-1.6328,-1.6197,-1.6007,-1.6208,-1.6205,-1.5836,-1.5371,-1.4637,-1.3986,-1.3467,-1.2942,-1.2449,-1.1819,-1.1181,-1.0404,-0.975,-0.8925,-0.8165,-0.7597,-0.7207,-3.3686,-3.3774,-3.4307,-3.482,-3.5243,-3.5661,-3.5886,-3.5939,-3.5982,-3.6016,-3.6016,-3.6016,-3.6016,-3.6016,-3.6016,-3.6016,-3.6016,-3.5996,-3.5958,-3.5894,-3.5834,-3.5718,-3.5622,-3.5565,-3.5545,-3.5507,-3.5507,-3.5507,-3.5412,-3.5207,-3.4965,-3.4708,-3.4358,-3.4062,-3.3876,-3.386,-3.3834,-3.3807,-3.3807,-3.3807,-3.3807,-3.3807,-3.3807,-3.3707,-3.3372,-3.3212,-3.3055,-3.2243,-3.1738,-3.1495,-3.0387,-3.001,-2.9959,-2.9087,-2.8982,-2.9553,-3.0099,-3.0459,-3.06,-3.0366,-3.0004,-2.9444,-2.8826,-2.8415,-2.814,-2.776,-2.761,-2.756,-2.756,-2.756,-2.756,-2.756,-2.7357,-2.7152,-2.6774,-2.639,-2.6415,-2.6465,-2.5703,-2.466,-2.4063,-2.3715,-2.3305,-2.3185,-2.3065,-2.2992,-2.2713,-2.2104,-2.1415,-2.0776,-1.9436,-1.8248,-1.7372,-1.6539,-1.6308,-1.6267,-1.6247,-1.6127,-1.6062,-1.5974,-1.5726,-1.4949,-1.4034,-1.3301,-1.275,-1.2191,-1.1483,-1.1218,-1.0685,-0.9814,-0.8836,-0.8143,-0.7528,-0.7069,-0.6685,-3.2821,-3.284,-3.2954,-3.3682,-3.4539,-3.5258,-3.5668,-3.5898,-3.582,-3.5918,-3.5976,-3.6016,-3.6016,-3.6016,-3.6016,-3.5996,-3.5976,-3.5976,-3.5905,-3.5867,-3.5757,-3.5661,-3.5584,-3.5526,-3.5507,-3.5507,-3.5474,-3.546,-3.535,-3.5069,-3.4732,-3.4622,-3.433,-3.4012,-3.3842,-3.3807,-3.3807,-3.3807,-3.3807,-3.3807,-3.3807,-3.3807,-3.377,-3.3634,-3.3345,-3.3072,-3.28,-3.2228,-3.1441,-3.111,-3.0773,-3.0411,-3.0044,-2.9871,-3.0108,-3.0277,-3.0755,-3.0791,-3.0704,-3.0369,-2.9826,-2.9307,-2.8779,-2.8222,-2.781,-2.766,-2.761,-2.756,-2.756,-2.756,-2.756,-2.7291,-2.7034,-2.6654,-2.6176,-2.5783,-2.5481,-2.5324,-2.4691,-2.3858,-2.3605,-2.3233,-2.3245,-2.3065,-2.2884,-2.2811,-2.2494,-2.2027,-2.114,-2.0449,-1.9474,-1.7894,-1.7124,-1.6504,-1.6347,-1.6335,-1.6382,-1.6283,-1.6114,-1.5851,-1.5608,-1.4544,-1.3295,-1.2732,-1.2218,-1.1039,-1.0341,-1.0077,-0.9583,-0.8761,-0.7931,-0.7326,-0.6872,-0.6567,-0.649,-3.2018,-3.2154,-3.2906,-3.3425,-3.3691,-3.3912,-3.4434,-3.498,-3.5019,-3.5391,-3.5898,-3.5996,-3.6016,-3.6016,-3.5996,-3.5978,-3.5948,-3.5899,-3.5805,-3.5753,-3.5661,-3.5622,-3.5545,-3.5507,-3.5507,-3.5507,-3.546,-3.5369,-3.5138,-3.4755,-3.4423,-3.4298,-3.4068,-3.3868,-3.3834,-3.3807,-3.3807,-3.3807,-3.3807,-3.378,-3.3753,-3.3725,-3.3688,-3.334,-3.2997,-3.251,-3.219,-3.1674,-3.1338,-3.1142,-3.1138,-3.0959,-3.0734,-3.0852,-3.0903,-3.097,-3.0982,-3.0834,-3.0443,-2.9967,-2.9384,-2.8826,-2.8271,-2.7894,-2.766,-2.761,-2.756,-2.756,-2.756,-2.756,-2.7458,-2.7086,-2.664,-2.6147,-2.5577,-2.5119,-2.461,-2.4079,-2.3598,-2.3374,-2.316,-2.3113,-2.3125,-2.2944,-2.2689,-2.2445,-2.2199,-2.1581,-2.0306,-1.9476,-1.9291,-1.8072,-1.7213,-1.6681,-1.6383,-1.6254,-1.6271,-1.629,-1.6093,-1.5824,-1.5409,-1.4078,-1.2739,-1.2285,-1.1607,-1.0587,-0.96,-0.8727,-0.8223,-0.7629,-0.7249,-0.6795,-0.6641,-0.6412,-0.6335,-3.1179,-3.1353,-3.2298,-3.2781,-3.2925,-3.3243,-3.3702,-3.4141,-3.4512,-3.4961,-3.5469,-3.5801,-3.6016,-3.5996,-3.5976,-3.5935,-3.5894,-3.5842,-3.574,-3.5636,-3.5603,-3.5565,-3.5526,-3.5507,-3.5507,-3.5474,-3.5335,-3.5155,-3.487,-3.4532,-3.4242,-3.4128,-3.3935,-3.3807,-3.3807,-3.3807,-3.3807,-3.3807,-3.378,-3.3707,-3.3578,-3.3514,-3.347,-3.3081,-3.2581,-3.2125,-3.1819,-3.1455,-3.1224,-3.119,-3.1173,-3.1173,-3.1072,-3.1106,-3.0982,-3.0818,-3.0687,-3.054,-2.9962,-2.9382,-2.8857,-2.8396,-2.7959,-2.766,-2.761,-2.756,-2.756,-2.756,-2.756,-2.756,-2.7408,-2.7086,-2.6419,-2.5816,-2.5107,-2.4452,-2.3989,-2.3518,-2.328,-2.322,-2.3113,-2.3125,-2.2944,-2.2506,-2.231,-2.1916,-2.1667,-2.0835,-1.9619,-1.8781,-1.8572,-1.8127,-1.7268,-1.6434,-1.5907,-1.5901,-1.6121,-1.6089,-1.592,-1.4874,-1.395,-1.3128,-1.2231,-1.1848,-1.123,-1.0306,-0.9251,-0.821,-0.7468,-0.7022,-0.6718,-0.6335,-0.6261,-0.6261,-0.6261,-3.0544,-3.066,-3.1495,-3.1916,-3.2109,-3.2734,-3.3144,-3.3398,-3.4043,-3.4609,-3.5019,-3.5566,-3.5831,-3.5968,-3.594,-3.5886,-3.5815,-3.5738,-3.5641,-3.5603,-3.5584,-3.5545,-3.5526,-3.5507,-3.546,-3.532,-3.5174,-3.4907,-3.4614,-3.4265,-3.4093,-3.4074,-3.3961,-3.3807,-3.3807,-3.3807,-3.378,-3.3643,-3.3524,-3.3364,-3.3266,-3.3136,-3.3085,-3.2787,-3.2305,-3.1817,-3.1611,-3.1455,-3.1207,-3.119,-3.119,-3.119,-3.1095,-3.1055,-3.074,-3.051,-3.022,-2.9884,-2.9345,-2.8902,-2.8583,-2.8247,-2.7855,-2.7625,-2.761,-2.756,-2.756,-2.756,-2.756,-2.7408,-2.7255,-2.673,-2.6044,-2.5299,-2.456,-2.3943,-2.3471,-2.3125,-2.3125,-2.3065,-2.3065,-2.3065,-2.2628,-2.2187,-2.1729,-2.133,-2.0673,-1.9846,-1.9058,-1.8583,-1.8245,-1.7895,-1.7272,-1.6431,-1.5704,-1.565,-1.5999,-1.5394,-1.5023,-1.3685,-1.2666,-1.2452,-1.2077,-1.162,-1.0926,-0.9707,-0.8652,-0.7604,-0.6934,-0.6567,-0.6412,-0.6261,-0.6261,-0.6261,-0.6261,-3.0564,-3.0706,-3.0989,-3.1133,-3.1191,-3.1367,-3.1894,-3.2656,-3.2715,-3.373,-3.498,-3.4994,-3.5198,-3.5897,-3.59,-3.5834,-3.568,-3.5622,-3.5584,-3.5545,-3.5545,-3.5507,-3.5455,-3.5374,-3.5335,-3.5138,-3.487,-3.4614,-3.4353,-3.4062,-3.3876,-3.3876,-3.3895,-3.3807,-3.3807,-3.378,-3.3671,-3.3393,-3.2925,-3.2655,-3.2836,-3.2755,-3.2639,-3.2317,-3.1917,-3.1585,-3.138,-3.1263,-3.119,-3.119,-3.119,-3.119,-3.1055,-3.0838,-3.0477,-3.0117,-2.9825,-2.9246,-2.8795,-2.848,-2.8271,-2.7905,-2.7625,-2.7625,-2.756,-2.756,-2.756,-2.7444,-2.7342,-2.7152,-2.6826,-2.6054,-2.5301,-2.4576,-2.3865,-2.3564,-2.3185,-2.3125,-2.3125,-2.3065,-2.3005,-2.2689,-2.2187,-2.1678,-2.1037,-2.0493,-1.9879,-1.9048,-1.8509,-1.8192,-1.7949,-1.7455,-1.7032,-1.6843,-1.6351,-1.5875,-1.5783,-1.5056,-1.4237,-1.3208,-1.2592,-1.2378,-1.2003,-1.1329,-1.019,-0.8893,-0.791,-0.7153,-0.6707,-0.6412,-0.6335,-0.6261,-0.6261,-0.6261,-0.6261]}]]